<?xml version="1.0" encoding="UTF-8" standalone="no" ?>
<gpx xmlns="http://www.topografix.com/GPX/1/1" xmlns:xsi="http://www.w3.org/2001/XMLSchema-instance" xsi:schemaLocation="http://www.topografix.com/GPX/1/1 http://www.topografix.com/GPX/1/1/gpx.xsd" version="1.1" creator="VisuGPX - https://www.visugpx.com">
  <metadata>
    <name>Mont Jovet</name>
    <desc><![CDATA[Rando du samedi 25/02/2012]]></desc>
  </metadata>
  <trk>
    <name><![CDATA[Mont Jovet]]></name>
    <trkseg>
      <trkpt lat="45.50906" lon="6.5938">
        <ele>1271.5999755859</ele>
        <time>2012-02-25T07:04:21.000Z</time>
      </trkpt>
      <trkpt lat="45.50902" lon="6.59379">
        <ele>1272.4000244141</ele>
        <time>2012-02-25T07:04:27.000Z</time>
      </trkpt>
      <trkpt lat="45.50892" lon="6.59375">
        <ele>1273.8000488281</ele>
        <time>2012-02-25T07:04:39.000Z</time>
      </trkpt>
      <trkpt lat="45.50886" lon="6.59372">
        <ele>1274.8000488281</ele>
        <time>2012-02-25T07:04:47.000Z</time>
      </trkpt>
      <trkpt lat="45.50882" lon="6.59371">
        <ele>1275.1999511719</ele>
        <time>2012-02-25T07:04:51.000Z</time>
      </trkpt>
      <trkpt lat="45.50875" lon="6.59368">
        <ele>1276.4000244141</ele>
        <time>2012-02-25T07:05:00.000Z</time>
      </trkpt>
      <trkpt lat="45.50874" lon="6.59368">
        <ele>1276.4000244141</ele>
        <time>2012-02-25T07:05:01.000Z</time>
      </trkpt>
      <trkpt lat="45.50868" lon="6.59366">
        <ele>1277.1999511719</ele>
        <time>2012-02-25T07:05:09.000Z</time>
      </trkpt>
      <trkpt lat="45.50862" lon="6.59362">
        <ele>1277.8000488281</ele>
        <time>2012-02-25T07:05:18.000Z</time>
      </trkpt>
      <trkpt lat="45.50856" lon="6.59359">
        <ele>1278.5999755859</ele>
        <time>2012-02-25T07:05:27.000Z</time>
      </trkpt>
      <trkpt lat="45.5085" lon="6.59351">
        <ele>1278.1999511719</ele>
        <time>2012-02-25T07:05:36.000Z</time>
      </trkpt>
      <trkpt lat="45.50845" lon="6.59344">
        <ele>1278</ele>
        <time>2012-02-25T07:05:44.000Z</time>
      </trkpt>
      <trkpt lat="45.50839" lon="6.59338">
        <ele>1277.8000488281</ele>
        <time>2012-02-25T07:05:52.000Z</time>
      </trkpt>
      <trkpt lat="45.50837" lon="6.59337">
        <ele>1278</ele>
        <time>2012-02-25T07:05:57.000Z</time>
      </trkpt>
      <trkpt lat="45.50837" lon="6.59341">
        <ele>1278.8000488281</ele>
        <time>2012-02-25T07:06:02.000Z</time>
      </trkpt>
      <trkpt lat="45.5084" lon="6.59348">
        <ele>1279.4000244141</ele>
        <time>2012-02-25T07:06:09.000Z</time>
      </trkpt>
      <trkpt lat="45.50841" lon="6.59356">
        <ele>1280.5999755859</ele>
        <time>2012-02-25T07:06:16.000Z</time>
      </trkpt>
      <trkpt lat="45.5084" lon="6.59363">
        <ele>1282</ele>
        <time>2012-02-25T07:06:22.000Z</time>
      </trkpt>
      <trkpt lat="45.50839" lon="6.59368">
        <ele>1283</ele>
        <time>2012-02-25T07:06:26.000Z</time>
      </trkpt>
      <trkpt lat="45.50835" lon="6.59369">
        <ele>1284.1999511719</ele>
        <time>2012-02-25T07:06:32.000Z</time>
      </trkpt>
      <trkpt lat="45.50834" lon="6.59369">
        <ele>1284.1999511719</ele>
        <time>2012-02-25T07:06:33.000Z</time>
      </trkpt>
      <trkpt lat="45.50827" lon="6.59367">
        <ele>1285.1999511719</ele>
        <time>2012-02-25T07:06:42.000Z</time>
      </trkpt>
      <trkpt lat="45.50821" lon="6.59366">
        <ele>1286.1999511719</ele>
        <time>2012-02-25T07:06:50.000Z</time>
      </trkpt>
      <trkpt lat="45.50816" lon="6.59366">
        <ele>1287.1999511719</ele>
        <time>2012-02-25T07:06:57.000Z</time>
      </trkpt>
      <trkpt lat="45.5081" lon="6.59366">
        <ele>1288.4000244141</ele>
        <time>2012-02-25T07:07:05.000Z</time>
      </trkpt>
      <trkpt lat="45.50804" lon="6.5936">
        <ele>1288.4000244141</ele>
        <time>2012-02-25T07:07:14.000Z</time>
      </trkpt>
      <trkpt lat="45.50801" lon="6.59357">
        <ele>1288.4000244141</ele>
        <time>2012-02-25T07:07:18.000Z</time>
      </trkpt>
      <trkpt lat="45.508" lon="6.59357">
        <ele>1288.5999755859</ele>
        <time>2012-02-25T07:07:23.000Z</time>
      </trkpt>
      <trkpt lat="45.50801" lon="6.59363">
        <ele>1289.5999755859</ele>
        <time>2012-02-25T07:07:29.000Z</time>
      </trkpt>
      <trkpt lat="45.50804" lon="6.59371">
        <ele>1290.8000488281</ele>
        <time>2012-02-25T07:07:36.000Z</time>
      </trkpt>
      <trkpt lat="45.50806" lon="6.59378">
        <ele>1291.8000488281</ele>
        <time>2012-02-25T07:07:42.000Z</time>
      </trkpt>
      <trkpt lat="45.50808" lon="6.59387">
        <ele>1293.1999511719</ele>
        <time>2012-02-25T07:07:49.000Z</time>
      </trkpt>
      <trkpt lat="45.50808" lon="6.59388">
        <ele>1293.1999511719</ele>
        <time>2012-02-25T07:07:50.000Z</time>
      </trkpt>
      <trkpt lat="45.50809" lon="6.59397">
        <ele>1294.8000488281</ele>
        <time>2012-02-25T07:07:58.000Z</time>
      </trkpt>
      <trkpt lat="45.50808" lon="6.59401">
        <ele>1296</ele>
        <time>2012-02-25T07:08:03.000Z</time>
      </trkpt>
      <trkpt lat="45.50804" lon="6.59397">
        <ele>1296</ele>
        <time>2012-02-25T07:08:08.000Z</time>
      </trkpt>
      <trkpt lat="45.508" lon="6.59389">
        <ele>1295.1999511719</ele>
        <time>2012-02-25T07:08:14.000Z</time>
      </trkpt>
      <trkpt lat="45.50796" lon="6.59381">
        <ele>1294.4000244141</ele>
        <time>2012-02-25T07:08:21.000Z</time>
      </trkpt>
      <trkpt lat="45.50791" lon="6.59371">
        <ele>1293.1999511719</ele>
        <time>2012-02-25T07:08:29.000Z</time>
      </trkpt>
      <trkpt lat="45.50787" lon="6.59363">
        <ele>1292.1999511719</ele>
        <time>2012-02-25T07:08:36.000Z</time>
      </trkpt>
      <trkpt lat="45.50782" lon="6.59353">
        <ele>1291</ele>
        <time>2012-02-25T07:08:45.000Z</time>
      </trkpt>
      <trkpt lat="45.50776" lon="6.59345">
        <ele>1290.1999511719</ele>
        <time>2012-02-25T07:08:53.000Z</time>
      </trkpt>
      <trkpt lat="45.5077" lon="6.59339">
        <ele>1290</ele>
        <time>2012-02-25T07:09:00.000Z</time>
      </trkpt>
      <trkpt lat="45.50769" lon="6.59338">
        <ele>1290</ele>
        <time>2012-02-25T07:09:01.000Z</time>
      </trkpt>
      <trkpt lat="45.50765" lon="6.59338">
        <ele>1290.5999755859</ele>
        <time>2012-02-25T07:09:06.000Z</time>
      </trkpt>
      <trkpt lat="45.50762" lon="6.5934">
        <ele>1291.4000244141</ele>
        <time>2012-02-25T07:09:10.000Z</time>
      </trkpt>
      <trkpt lat="45.50761" lon="6.59348">
        <ele>1293.5999755859</ele>
        <time>2012-02-25T07:09:18.000Z</time>
      </trkpt>
      <trkpt lat="45.50762" lon="6.59348">
        <ele>1293.5999755859</ele>
        <time>2012-02-25T07:09:28.000Z</time>
      </trkpt>
      <trkpt lat="45.50765" lon="6.59352">
        <ele>1293.8000488281</ele>
        <time>2012-02-25T07:10:42.000Z</time>
      </trkpt>
      <trkpt lat="45.50768" lon="6.59358">
        <ele>1294.8000488281</ele>
        <time>2012-02-25T07:10:48.000Z</time>
      </trkpt>
      <trkpt lat="45.5077" lon="6.59361">
        <ele>1295</ele>
        <time>2012-02-25T07:10:51.000Z</time>
      </trkpt>
      <trkpt lat="45.50774" lon="6.59373">
        <ele>1297.1999511719</ele>
        <time>2012-02-25T07:11:00.000Z</time>
      </trkpt>
      <trkpt lat="45.50776" lon="6.59381">
        <ele>1298.5999755859</ele>
        <time>2012-02-25T07:11:05.000Z</time>
      </trkpt>
      <trkpt lat="45.50778" lon="6.59389">
        <ele>1300</ele>
        <time>2012-02-25T07:11:11.000Z</time>
      </trkpt>
      <trkpt lat="45.50781" lon="6.59399">
        <ele>1301.5999755859</ele>
        <time>2012-02-25T07:11:18.000Z</time>
      </trkpt>
      <trkpt lat="45.50783" lon="6.59409">
        <ele>1303.4000244141</ele>
        <time>2012-02-25T07:11:25.000Z</time>
      </trkpt>
      <trkpt lat="45.50782" lon="6.59415">
        <ele>1305</ele>
        <time>2012-02-25T07:11:31.000Z</time>
      </trkpt>
      <trkpt lat="45.50782" lon="6.59424">
        <ele>1307.5999755859</ele>
        <time>2012-02-25T07:11:39.000Z</time>
      </trkpt>
      <trkpt lat="45.50782" lon="6.59434">
        <ele>1310.1999511719</ele>
        <time>2012-02-25T07:11:46.000Z</time>
      </trkpt>
      <trkpt lat="45.50783" lon="6.59442">
        <ele>1312.4000244141</ele>
        <time>2012-02-25T07:11:52.000Z</time>
      </trkpt>
      <trkpt lat="45.50783" lon="6.5945">
        <ele>1314.5999755859</ele>
        <time>2012-02-25T07:11:58.000Z</time>
      </trkpt>
      <trkpt lat="45.50784" lon="6.5946">
        <ele>1317.1999511719</ele>
        <time>2012-02-25T07:12:06.000Z</time>
      </trkpt>
      <trkpt lat="45.50786" lon="6.59469">
        <ele>1319.1999511719</ele>
        <time>2012-02-25T07:12:13.000Z</time>
      </trkpt>
      <trkpt lat="45.50787" lon="6.59478">
        <ele>1321.8000488281</ele>
        <time>2012-02-25T07:12:20.000Z</time>
      </trkpt>
      <trkpt lat="45.50787" lon="6.59487">
        <ele>1324</ele>
        <time>2012-02-25T07:12:27.000Z</time>
      </trkpt>
      <trkpt lat="45.50787" lon="6.59494">
        <ele>1326</ele>
        <time>2012-02-25T07:12:33.000Z</time>
      </trkpt>
      <trkpt lat="45.50787" lon="6.59495">
        <ele>1326.4000244141</ele>
        <time>2012-02-25T07:12:34.000Z</time>
      </trkpt>
      <trkpt lat="45.50788" lon="6.59502">
        <ele>1327.8000488281</ele>
        <time>2012-02-25T07:12:41.000Z</time>
      </trkpt>
      <trkpt lat="45.50787" lon="6.59505">
        <ele>1328.8000488281</ele>
        <time>2012-02-25T07:12:45.000Z</time>
      </trkpt>
      <trkpt lat="45.50788" lon="6.59513">
        <ele>1330.1999511719</ele>
        <time>2012-02-25T07:12:52.000Z</time>
      </trkpt>
      <trkpt lat="45.5079" lon="6.5953">
        <ele>1332.8000488281</ele>
        <time>2012-02-25T07:13:06.000Z</time>
      </trkpt>
      <trkpt lat="45.50791" lon="6.59534">
        <ele>1333.4000244141</ele>
        <time>2012-02-25T07:13:12.000Z</time>
      </trkpt>
      <trkpt lat="45.50793" lon="6.59542">
        <ele>1334.4000244141</ele>
        <time>2012-02-25T07:13:18.000Z</time>
      </trkpt>
      <trkpt lat="45.50795" lon="6.59549">
        <ele>1335.1999511719</ele>
        <time>2012-02-25T07:13:24.000Z</time>
      </trkpt>
      <trkpt lat="45.50795" lon="6.59558">
        <ele>1337</ele>
        <time>2012-02-25T07:13:31.000Z</time>
      </trkpt>
      <trkpt lat="45.50795" lon="6.59559">
        <ele>1337.4000244141</ele>
        <time>2012-02-25T07:13:32.000Z</time>
      </trkpt>
      <trkpt lat="45.50797" lon="6.59568">
        <ele>1338.5999755859</ele>
        <time>2012-02-25T07:13:39.000Z</time>
      </trkpt>
      <trkpt lat="45.50797" lon="6.5957">
        <ele>1338.8000488281</ele>
        <time>2012-02-25T07:13:41.000Z</time>
      </trkpt>
      <trkpt lat="45.50798" lon="6.59572">
        <ele>1339.1999511719</ele>
        <time>2012-02-25T07:13:43.000Z</time>
      </trkpt>
      <trkpt lat="45.50798" lon="6.59577">
        <ele>1340.4000244141</ele>
        <time>2012-02-25T07:13:47.000Z</time>
      </trkpt>
      <trkpt lat="45.50799" lon="6.59586">
        <ele>1341.5999755859</ele>
        <time>2012-02-25T07:13:54.000Z</time>
      </trkpt>
      <trkpt lat="45.50801" lon="6.59595">
        <ele>1342</ele>
        <time>2012-02-25T07:14:01.000Z</time>
      </trkpt>
      <trkpt lat="45.50803" lon="6.59602">
        <ele>1342.1999511719</ele>
        <time>2012-02-25T07:14:07.000Z</time>
      </trkpt>
      <trkpt lat="45.50804" lon="6.5961">
        <ele>1342.8000488281</ele>
        <time>2012-02-25T07:14:13.000Z</time>
      </trkpt>
      <trkpt lat="45.50804" lon="6.59617">
        <ele>1343.4000244141</ele>
        <time>2012-02-25T07:14:19.000Z</time>
      </trkpt>
      <trkpt lat="45.50804" lon="6.59624">
        <ele>1344.4000244141</ele>
        <time>2012-02-25T07:14:25.000Z</time>
      </trkpt>
      <trkpt lat="45.50804" lon="6.59633">
        <ele>1345.4000244141</ele>
        <time>2012-02-25T07:14:32.000Z</time>
      </trkpt>
      <trkpt lat="45.50803" lon="6.5964">
        <ele>1346.4000244141</ele>
        <time>2012-02-25T07:14:38.000Z</time>
      </trkpt>
      <trkpt lat="45.50803" lon="6.59649">
        <ele>1347.5999755859</ele>
        <time>2012-02-25T07:14:45.000Z</time>
      </trkpt>
      <trkpt lat="45.50802" lon="6.59656">
        <ele>1348.4000244141</ele>
        <time>2012-02-25T07:14:51.000Z</time>
      </trkpt>
      <trkpt lat="45.50802" lon="6.59664">
        <ele>1349.5999755859</ele>
        <time>2012-02-25T07:14:58.000Z</time>
      </trkpt>
      <trkpt lat="45.50801" lon="6.59674">
        <ele>1351.1999511719</ele>
        <time>2012-02-25T07:15:06.000Z</time>
      </trkpt>
      <trkpt lat="45.508" lon="6.59684">
        <ele>1352.8000488281</ele>
        <time>2012-02-25T07:15:14.000Z</time>
      </trkpt>
      <trkpt lat="45.50799" lon="6.59693">
        <ele>1354.5999755859</ele>
        <time>2012-02-25T07:15:21.000Z</time>
      </trkpt>
      <trkpt lat="45.50799" lon="6.597">
        <ele>1355.4000244141</ele>
        <time>2012-02-25T07:15:27.000Z</time>
      </trkpt>
      <trkpt lat="45.50799" lon="6.59703">
        <ele>1356</ele>
        <time>2012-02-25T07:15:29.000Z</time>
      </trkpt>
      <trkpt lat="45.50795" lon="6.59702">
        <ele>1357.1999511719</ele>
        <time>2012-02-25T07:15:34.000Z</time>
      </trkpt>
      <trkpt lat="45.5079" lon="6.59696">
        <ele>1357.5999755859</ele>
        <time>2012-02-25T07:15:40.000Z</time>
      </trkpt>
      <trkpt lat="45.5079" lon="6.59695">
        <ele>1357.5999755859</ele>
        <time>2012-02-25T07:15:41.000Z</time>
      </trkpt>
      <trkpt lat="45.50783" lon="6.59682">
        <ele>1357.8000488281</ele>
        <time>2012-02-25T07:15:52.000Z</time>
      </trkpt>
      <trkpt lat="45.50779" lon="6.59673">
        <ele>1357.8000488281</ele>
        <time>2012-02-25T07:15:59.000Z</time>
      </trkpt>
      <trkpt lat="45.50775" lon="6.59665">
        <ele>1358</ele>
        <time>2012-02-25T07:16:05.000Z</time>
      </trkpt>
      <trkpt lat="45.5077" lon="6.59655">
        <ele>1358.4000244141</ele>
        <time>2012-02-25T07:16:13.000Z</time>
      </trkpt>
      <trkpt lat="45.50764" lon="6.59646">
        <ele>1359</ele>
        <time>2012-02-25T07:16:20.000Z</time>
      </trkpt>
      <trkpt lat="45.50761" lon="6.59639">
        <ele>1359.4000244141</ele>
        <time>2012-02-25T07:16:25.000Z</time>
      </trkpt>
      <trkpt lat="45.50757" lon="6.59632">
        <ele>1359.8000488281</ele>
        <time>2012-02-25T07:16:31.000Z</time>
      </trkpt>
      <trkpt lat="45.50751" lon="6.59624">
        <ele>1360.4000244141</ele>
        <time>2012-02-25T07:16:39.000Z</time>
      </trkpt>
      <trkpt lat="45.50744" lon="6.59619">
        <ele>1361.4000244141</ele>
        <time>2012-02-25T07:16:47.000Z</time>
      </trkpt>
      <trkpt lat="45.50738" lon="6.59616">
        <ele>1362</ele>
        <time>2012-02-25T07:16:55.000Z</time>
      </trkpt>
      <trkpt lat="45.50731" lon="6.59612">
        <ele>1362.5999755859</ele>
        <time>2012-02-25T07:17:03.000Z</time>
      </trkpt>
      <trkpt lat="45.50722" lon="6.59614">
        <ele>1364.4000244141</ele>
        <time>2012-02-25T07:17:13.000Z</time>
      </trkpt>
      <trkpt lat="45.50715" lon="6.59615">
        <ele>1365.8000488281</ele>
        <time>2012-02-25T07:17:21.000Z</time>
      </trkpt>
      <trkpt lat="45.50711" lon="6.59613">
        <ele>1366.1999511719</ele>
        <time>2012-02-25T07:17:32.000Z</time>
      </trkpt>
      <trkpt lat="45.50705" lon="6.59611">
        <ele>1366.5999755859</ele>
        <time>2012-02-25T07:17:40.000Z</time>
      </trkpt>
      <trkpt lat="45.50702" lon="6.5961">
        <ele>1366.8000488281</ele>
        <time>2012-02-25T07:17:45.000Z</time>
      </trkpt>
      <trkpt lat="45.50696" lon="6.59607">
        <ele>1367.4000244141</ele>
        <time>2012-02-25T07:17:53.000Z</time>
      </trkpt>
      <trkpt lat="45.5069" lon="6.59605">
        <ele>1367.8000488281</ele>
        <time>2012-02-25T07:18:02.000Z</time>
      </trkpt>
      <trkpt lat="45.50687" lon="6.59605">
        <ele>1368.1999511719</ele>
        <time>2012-02-25T07:18:09.000Z</time>
      </trkpt>
      <trkpt lat="45.50689" lon="6.59609">
        <ele>1368.8000488281</ele>
        <time>2012-02-25T07:18:18.000Z</time>
      </trkpt>
      <trkpt lat="45.50691" lon="6.59614">
        <ele>1369.5999755859</ele>
        <time>2012-02-25T07:18:25.000Z</time>
      </trkpt>
      <trkpt lat="45.50692" lon="6.5962">
        <ele>1371</ele>
        <time>2012-02-25T07:18:31.000Z</time>
      </trkpt>
      <trkpt lat="45.50692" lon="6.59626">
        <ele>1372.4000244141</ele>
        <time>2012-02-25T07:18:37.000Z</time>
      </trkpt>
      <trkpt lat="45.50693" lon="6.59633">
        <ele>1373.8000488281</ele>
        <time>2012-02-25T07:18:43.000Z</time>
      </trkpt>
      <trkpt lat="45.50693" lon="6.5964">
        <ele>1375.4000244141</ele>
        <time>2012-02-25T07:18:49.000Z</time>
      </trkpt>
      <trkpt lat="45.50693" lon="6.59648">
        <ele>1377.1999511719</ele>
        <time>2012-02-25T07:18:56.000Z</time>
      </trkpt>
      <trkpt lat="45.50693" lon="6.59656">
        <ele>1379.1999511719</ele>
        <time>2012-02-25T07:19:03.000Z</time>
      </trkpt>
      <trkpt lat="45.50692" lon="6.59665">
        <ele>1381.5999755859</ele>
        <time>2012-02-25T07:19:11.000Z</time>
      </trkpt>
      <trkpt lat="45.50692" lon="6.59673">
        <ele>1383.1999511719</ele>
        <time>2012-02-25T07:19:17.000Z</time>
      </trkpt>
      <trkpt lat="45.50691" lon="6.5968">
        <ele>1384.5999755859</ele>
        <time>2012-02-25T07:19:23.000Z</time>
      </trkpt>
      <trkpt lat="45.50692" lon="6.59687">
        <ele>1385.5999755859</ele>
        <time>2012-02-25T07:19:28.000Z</time>
      </trkpt>
      <trkpt lat="45.50692" lon="6.59692">
        <ele>1386.5999755859</ele>
        <time>2012-02-25T07:19:33.000Z</time>
      </trkpt>
      <trkpt lat="45.50692" lon="6.59693">
        <ele>1386.8000488281</ele>
        <time>2012-02-25T07:19:34.000Z</time>
      </trkpt>
      <trkpt lat="45.50687" lon="6.59692">
        <ele>1388.1999511719</ele>
        <time>2012-02-25T07:19:41.000Z</time>
      </trkpt>
      <trkpt lat="45.5068" lon="6.59689">
        <ele>1389.5999755859</ele>
        <time>2012-02-25T07:19:49.000Z</time>
      </trkpt>
      <trkpt lat="45.50676" lon="6.59686">
        <ele>1390.1999511719</ele>
        <time>2012-02-25T07:19:56.000Z</time>
      </trkpt>
      <trkpt lat="45.50671" lon="6.59688">
        <ele>1392.1999511719</ele>
        <time>2012-02-25T07:20:05.000Z</time>
      </trkpt>
      <trkpt lat="45.50672" lon="6.59699">
        <ele>1394.1999511719</ele>
        <time>2012-02-25T07:20:13.000Z</time>
      </trkpt>
      <trkpt lat="45.50674" lon="6.59708">
        <ele>1395.1999511719</ele>
        <time>2012-02-25T07:20:19.000Z</time>
      </trkpt>
      <trkpt lat="45.50676" lon="6.59718">
        <ele>1396.5999755859</ele>
        <time>2012-02-25T07:20:26.000Z</time>
      </trkpt>
      <trkpt lat="45.50677" lon="6.59728">
        <ele>1398</ele>
        <time>2012-02-25T07:20:32.000Z</time>
      </trkpt>
      <trkpt lat="45.50678" lon="6.59735">
        <ele>1399.1999511719</ele>
        <time>2012-02-25T07:20:37.000Z</time>
      </trkpt>
      <trkpt lat="45.50679" lon="6.59746">
        <ele>1401</ele>
        <time>2012-02-25T07:20:44.000Z</time>
      </trkpt>
      <trkpt lat="45.5068" lon="6.5975">
        <ele>1401.4000244141</ele>
        <time>2012-02-25T07:20:50.000Z</time>
      </trkpt>
      <trkpt lat="45.50681" lon="6.59756">
        <ele>1401.5999755859</ele>
        <time>2012-02-25T07:21:18.000Z</time>
      </trkpt>
      <trkpt lat="45.50681" lon="6.59763">
        <ele>1402.8000488281</ele>
        <time>2012-02-25T07:21:56.000Z</time>
      </trkpt>
      <trkpt lat="45.50675" lon="6.59763">
        <ele>1405</ele>
        <time>2012-02-25T07:22:03.000Z</time>
      </trkpt>
      <trkpt lat="45.50665" lon="6.59758">
        <ele>1407.4000244141</ele>
        <time>2012-02-25T07:22:14.000Z</time>
      </trkpt>
      <trkpt lat="45.50662" lon="6.59756">
        <ele>1407.5999755859</ele>
        <time>2012-02-25T07:22:17.000Z</time>
      </trkpt>
      <trkpt lat="45.50657" lon="6.59753">
        <ele>1407.8000488281</ele>
        <time>2012-02-25T07:22:23.000Z</time>
      </trkpt>
      <trkpt lat="45.50652" lon="6.59753">
        <ele>1408.5999755859</ele>
        <time>2012-02-25T07:22:30.000Z</time>
      </trkpt>
      <trkpt lat="45.50649" lon="6.5976">
        <ele>1410.4000244141</ele>
        <time>2012-02-25T07:22:38.000Z</time>
      </trkpt>
      <trkpt lat="45.50646" lon="6.59765">
        <ele>1411.8000488281</ele>
        <time>2012-02-25T07:22:45.000Z</time>
      </trkpt>
      <trkpt lat="45.50642" lon="6.59762">
        <ele>1412</ele>
        <time>2012-02-25T07:22:51.000Z</time>
      </trkpt>
      <trkpt lat="45.50637" lon="6.59756">
        <ele>1411.4000244141</ele>
        <time>2012-02-25T07:22:58.000Z</time>
      </trkpt>
      <trkpt lat="45.50636" lon="6.59755">
        <ele>1411.4000244141</ele>
        <time>2012-02-25T07:22:59.000Z</time>
      </trkpt>
      <trkpt lat="45.50633" lon="6.59753">
        <ele>1411.4000244141</ele>
        <time>2012-02-25T07:23:05.000Z</time>
      </trkpt>
      <trkpt lat="45.50628" lon="6.59749">
        <ele>1411.4000244141</ele>
        <time>2012-02-25T07:23:12.000Z</time>
      </trkpt>
      <trkpt lat="45.50624" lon="6.59747">
        <ele>1411.4000244141</ele>
        <time>2012-02-25T07:23:18.000Z</time>
      </trkpt>
      <trkpt lat="45.50621" lon="6.59753">
        <ele>1413.1999511719</ele>
        <time>2012-02-25T07:23:25.000Z</time>
      </trkpt>
      <trkpt lat="45.50618" lon="6.59757">
        <ele>1414.8000488281</ele>
        <time>2012-02-25T07:23:32.000Z</time>
      </trkpt>
      <trkpt lat="45.50615" lon="6.59759">
        <ele>1415.5999755859</ele>
        <time>2012-02-25T07:23:37.000Z</time>
      </trkpt>
      <trkpt lat="45.50613" lon="6.59762">
        <ele>1416.5999755859</ele>
        <time>2012-02-25T07:23:42.000Z</time>
      </trkpt>
      <trkpt lat="45.50613" lon="6.59764">
        <ele>1417.4000244141</ele>
        <time>2012-02-25T07:23:47.000Z</time>
      </trkpt>
      <trkpt lat="45.50612" lon="6.59766">
        <ele>1417.8000488281</ele>
        <time>2012-02-25T07:24:17.000Z</time>
      </trkpt>
      <trkpt lat="45.50612" lon="6.59765">
        <ele>1417.5999755859</ele>
        <time>2012-02-25T07:24:28.000Z</time>
      </trkpt>
      <trkpt lat="45.50612" lon="6.59767">
        <ele>1418.1999511719</ele>
        <time>2012-02-25T07:24:55.000Z</time>
      </trkpt>
      <trkpt lat="45.5061" lon="6.59772">
        <ele>1420</ele>
        <time>2012-02-25T07:25:00.000Z</time>
      </trkpt>
      <trkpt lat="45.5061" lon="6.59777">
        <ele>1421.1999511719</ele>
        <time>2012-02-25T07:25:06.000Z</time>
      </trkpt>
      <trkpt lat="45.50613" lon="6.59781">
        <ele>1421.5999755859</ele>
        <time>2012-02-25T07:25:12.000Z</time>
      </trkpt>
      <trkpt lat="45.50614" lon="6.59786">
        <ele>1422.4000244141</ele>
        <time>2012-02-25T07:25:18.000Z</time>
      </trkpt>
      <trkpt lat="45.50618" lon="6.59789">
        <ele>1422.4000244141</ele>
        <time>2012-02-25T07:25:24.000Z</time>
      </trkpt>
      <trkpt lat="45.50618" lon="6.59796">
        <ele>1424.1999511719</ele>
        <time>2012-02-25T07:25:30.000Z</time>
      </trkpt>
      <trkpt lat="45.50615" lon="6.598">
        <ele>1425.8000488281</ele>
        <time>2012-02-25T07:25:36.000Z</time>
      </trkpt>
      <trkpt lat="45.5061" lon="6.598">
        <ele>1427</ele>
        <time>2012-02-25T07:25:42.000Z</time>
      </trkpt>
      <trkpt lat="45.5061" lon="6.59806">
        <ele>1428.8000488281</ele>
        <time>2012-02-25T07:25:49.000Z</time>
      </trkpt>
      <trkpt lat="45.5061" lon="6.59812">
        <ele>1430.4000244141</ele>
        <time>2012-02-25T07:25:54.000Z</time>
      </trkpt>
      <trkpt lat="45.50607" lon="6.59818">
        <ele>1432.5999755859</ele>
        <time>2012-02-25T07:26:00.000Z</time>
      </trkpt>
      <trkpt lat="45.50603" lon="6.59824">
        <ele>1435.4000244141</ele>
        <time>2012-02-25T07:26:07.000Z</time>
      </trkpt>
      <trkpt lat="45.506" lon="6.5983">
        <ele>1437.8000488281</ele>
        <time>2012-02-25T07:26:13.000Z</time>
      </trkpt>
      <trkpt lat="45.50598" lon="6.59835">
        <ele>1439.8000488281</ele>
        <time>2012-02-25T07:26:19.000Z</time>
      </trkpt>
      <trkpt lat="45.50594" lon="6.59839">
        <ele>1442</ele>
        <time>2012-02-25T07:26:26.000Z</time>
      </trkpt>
      <trkpt lat="45.50589" lon="6.5984">
        <ele>1443.8000488281</ele>
        <time>2012-02-25T07:26:33.000Z</time>
      </trkpt>
      <trkpt lat="45.50582" lon="6.5984">
        <ele>1445.5999755859</ele>
        <time>2012-02-25T07:26:43.000Z</time>
      </trkpt>
      <trkpt lat="45.50576" lon="6.5984">
        <ele>1446</ele>
        <time>2012-02-25T07:26:51.000Z</time>
      </trkpt>
      <trkpt lat="45.50572" lon="6.59841">
        <ele>1446.5999755859</ele>
        <time>2012-02-25T07:26:58.000Z</time>
      </trkpt>
      <trkpt lat="45.50568" lon="6.59841">
        <ele>1447</ele>
        <time>2012-02-25T07:27:05.000Z</time>
      </trkpt>
      <trkpt lat="45.50564" lon="6.59842">
        <ele>1447.5999755859</ele>
        <time>2012-02-25T07:27:14.000Z</time>
      </trkpt>
      <trkpt lat="45.5056" lon="6.59843">
        <ele>1448</ele>
        <time>2012-02-25T07:27:31.000Z</time>
      </trkpt>
      <trkpt lat="45.50554" lon="6.59846">
        <ele>1449.1999511719</ele>
        <time>2012-02-25T07:27:39.000Z</time>
      </trkpt>
      <trkpt lat="45.50551" lon="6.59852">
        <ele>1450.5999755859</ele>
        <time>2012-02-25T07:27:46.000Z</time>
      </trkpt>
      <trkpt lat="45.50549" lon="6.5986">
        <ele>1452.1999511719</ele>
        <time>2012-02-25T07:27:53.000Z</time>
      </trkpt>
      <trkpt lat="45.50546" lon="6.59869">
        <ele>1454</ele>
        <time>2012-02-25T07:28:00.000Z</time>
      </trkpt>
      <trkpt lat="45.5054" lon="6.59881">
        <ele>1456.1999511719</ele>
        <time>2012-02-25T07:28:09.000Z</time>
      </trkpt>
      <trkpt lat="45.50536" lon="6.59891">
        <ele>1458.1999511719</ele>
        <time>2012-02-25T07:28:16.000Z</time>
      </trkpt>
      <trkpt lat="45.50531" lon="6.599">
        <ele>1459.8000488281</ele>
        <time>2012-02-25T07:28:23.000Z</time>
      </trkpt>
      <trkpt lat="45.50527" lon="6.59906">
        <ele>1461</ele>
        <time>2012-02-25T07:28:29.000Z</time>
      </trkpt>
      <trkpt lat="45.50524" lon="6.59911">
        <ele>1461.8000488281</ele>
        <time>2012-02-25T07:28:35.000Z</time>
      </trkpt>
      <trkpt lat="45.50519" lon="6.59918">
        <ele>1462.8000488281</ele>
        <time>2012-02-25T07:28:43.000Z</time>
      </trkpt>
      <trkpt lat="45.50515" lon="6.59924">
        <ele>1464</ele>
        <time>2012-02-25T07:28:50.000Z</time>
      </trkpt>
      <trkpt lat="45.5051" lon="6.59932">
        <ele>1465.4000244141</ele>
        <time>2012-02-25T07:28:59.000Z</time>
      </trkpt>
      <trkpt lat="45.50505" lon="6.5994">
        <ele>1466.5999755859</ele>
        <time>2012-02-25T07:29:06.000Z</time>
      </trkpt>
      <trkpt lat="45.50502" lon="6.59945">
        <ele>1467.8000488281</ele>
        <time>2012-02-25T07:29:12.000Z</time>
      </trkpt>
      <trkpt lat="45.50497" lon="6.59953">
        <ele>1469.4000244141</ele>
        <time>2012-02-25T07:29:19.000Z</time>
      </trkpt>
      <trkpt lat="45.50494" lon="6.59958">
        <ele>1470.8000488281</ele>
        <time>2012-02-25T07:29:25.000Z</time>
      </trkpt>
      <trkpt lat="45.5049" lon="6.59965">
        <ele>1472.1999511719</ele>
        <time>2012-02-25T07:29:32.000Z</time>
      </trkpt>
      <trkpt lat="45.50486" lon="6.59971">
        <ele>1473.5999755859</ele>
        <time>2012-02-25T07:29:39.000Z</time>
      </trkpt>
      <trkpt lat="45.50481" lon="6.59977">
        <ele>1475.1999511719</ele>
        <time>2012-02-25T07:29:47.000Z</time>
      </trkpt>
      <trkpt lat="45.50476" lon="6.59983">
        <ele>1476.5999755859</ele>
        <time>2012-02-25T07:29:55.000Z</time>
      </trkpt>
      <trkpt lat="45.50471" lon="6.59991">
        <ele>1478.1999511719</ele>
        <time>2012-02-25T07:30:05.000Z</time>
      </trkpt>
      <trkpt lat="45.50464" lon="6.59996">
        <ele>1479.4000244141</ele>
        <time>2012-02-25T07:30:15.000Z</time>
      </trkpt>
      <trkpt lat="45.5046" lon="6.60001">
        <ele>1480.5999755859</ele>
        <time>2012-02-25T07:30:53.000Z</time>
      </trkpt>
      <trkpt lat="45.50458" lon="6.60003">
        <ele>1481.1999511719</ele>
        <time>2012-02-25T07:30:56.000Z</time>
      </trkpt>
      <trkpt lat="45.50454" lon="6.60005">
        <ele>1482</ele>
        <time>2012-02-25T07:31:01.000Z</time>
      </trkpt>
      <trkpt lat="45.50452" lon="6.60006">
        <ele>1482.4000244141</ele>
        <time>2012-02-25T07:31:10.000Z</time>
      </trkpt>
      <trkpt lat="45.50452" lon="6.60009">
        <ele>1483</ele>
        <time>2012-02-25T07:31:19.000Z</time>
      </trkpt>
      <trkpt lat="45.50455" lon="6.60014">
        <ele>1483.8000488281</ele>
        <time>2012-02-25T07:31:25.000Z</time>
      </trkpt>
      <trkpt lat="45.50459" lon="6.6002">
        <ele>1485</ele>
        <time>2012-02-25T07:31:32.000Z</time>
      </trkpt>
      <trkpt lat="45.50462" lon="6.60026">
        <ele>1485.8000488281</ele>
        <time>2012-02-25T07:31:38.000Z</time>
      </trkpt>
      <trkpt lat="45.50468" lon="6.60035">
        <ele>1487.1999511719</ele>
        <time>2012-02-25T07:31:46.000Z</time>
      </trkpt>
      <trkpt lat="45.50471" lon="6.60043">
        <ele>1488.4000244141</ele>
        <time>2012-02-25T07:31:53.000Z</time>
      </trkpt>
      <trkpt lat="45.50477" lon="6.60055">
        <ele>1490.4000244141</ele>
        <time>2012-02-25T07:32:04.000Z</time>
      </trkpt>
      <trkpt lat="45.50481" lon="6.60063">
        <ele>1491.5999755859</ele>
        <time>2012-02-25T07:32:11.000Z</time>
      </trkpt>
      <trkpt lat="45.50485" lon="6.60071">
        <ele>1492.8000488281</ele>
        <time>2012-02-25T07:32:19.000Z</time>
      </trkpt>
      <trkpt lat="45.50491" lon="6.60079">
        <ele>1493.4000244141</ele>
        <time>2012-02-25T07:32:27.000Z</time>
      </trkpt>
      <trkpt lat="45.50497" lon="6.60085">
        <ele>1494</ele>
        <time>2012-02-25T07:32:34.000Z</time>
      </trkpt>
      <trkpt lat="45.50502" lon="6.60089">
        <ele>1494.4000244141</ele>
        <time>2012-02-25T07:32:40.000Z</time>
      </trkpt>
      <trkpt lat="45.50506" lon="6.60096">
        <ele>1495.8000488281</ele>
        <time>2012-02-25T07:32:47.000Z</time>
      </trkpt>
      <trkpt lat="45.50509" lon="6.60104">
        <ele>1497.5999755859</ele>
        <time>2012-02-25T07:32:55.000Z</time>
      </trkpt>
      <trkpt lat="45.50514" lon="6.60111">
        <ele>1499.1999511719</ele>
        <time>2012-02-25T07:33:02.000Z</time>
      </trkpt>
      <trkpt lat="45.5052" lon="6.60119">
        <ele>1500.5999755859</ele>
        <time>2012-02-25T07:33:11.000Z</time>
      </trkpt>
      <trkpt lat="45.50526" lon="6.60126">
        <ele>1501.5999755859</ele>
        <time>2012-02-25T07:33:19.000Z</time>
      </trkpt>
      <trkpt lat="45.50531" lon="6.60132">
        <ele>1502.1999511719</ele>
        <time>2012-02-25T07:33:27.000Z</time>
      </trkpt>
      <trkpt lat="45.50536" lon="6.60138">
        <ele>1503</ele>
        <time>2012-02-25T07:33:35.000Z</time>
      </trkpt>
      <trkpt lat="45.5054" lon="6.60143">
        <ele>1504</ele>
        <time>2012-02-25T07:33:42.000Z</time>
      </trkpt>
      <trkpt lat="45.50546" lon="6.60152">
        <ele>1505</ele>
        <time>2012-02-25T07:33:51.000Z</time>
      </trkpt>
      <trkpt lat="45.50547" lon="6.60155">
        <ele>1505.5999755859</ele>
        <time>2012-02-25T07:33:54.000Z</time>
      </trkpt>
      <trkpt lat="45.50548" lon="6.60166">
        <ele>1508.1999511719</ele>
        <time>2012-02-25T07:34:05.000Z</time>
      </trkpt>
      <trkpt lat="45.50548" lon="6.60171">
        <ele>1509.8000488281</ele>
        <time>2012-02-25T07:34:12.000Z</time>
      </trkpt>
      <trkpt lat="45.50549" lon="6.60181">
        <ele>1512.8000488281</ele>
        <time>2012-02-25T07:34:21.000Z</time>
      </trkpt>
      <trkpt lat="45.5055" lon="6.60188">
        <ele>1514.8000488281</ele>
        <time>2012-02-25T07:34:29.000Z</time>
      </trkpt>
      <trkpt lat="45.50554" lon="6.60192">
        <ele>1515.5999755859</ele>
        <time>2012-02-25T07:34:37.000Z</time>
      </trkpt>
      <trkpt lat="45.50557" lon="6.60199">
        <ele>1517.1999511719</ele>
        <time>2012-02-25T07:34:45.000Z</time>
      </trkpt>
      <trkpt lat="45.50559" lon="6.60204">
        <ele>1518.4000244141</ele>
        <time>2012-02-25T07:35:06.000Z</time>
      </trkpt>
      <trkpt lat="45.50559" lon="6.60209">
        <ele>1520</ele>
        <time>2012-02-25T07:35:12.000Z</time>
      </trkpt>
      <trkpt lat="45.50557" lon="6.60215">
        <ele>1522.1999511719</ele>
        <time>2012-02-25T07:35:18.000Z</time>
      </trkpt>
      <trkpt lat="45.50556" lon="6.60221">
        <ele>1524.4000244141</ele>
        <time>2012-02-25T07:35:25.000Z</time>
      </trkpt>
      <trkpt lat="45.50555" lon="6.60226">
        <ele>1526.5999755859</ele>
        <time>2012-02-25T07:35:31.000Z</time>
      </trkpt>
      <trkpt lat="45.50552" lon="6.6023">
        <ele>1528.1999511719</ele>
        <time>2012-02-25T07:35:37.000Z</time>
      </trkpt>
      <trkpt lat="45.50549" lon="6.60232">
        <ele>1529.8000488281</ele>
        <time>2012-02-25T07:35:44.000Z</time>
      </trkpt>
      <trkpt lat="45.50545" lon="6.60236">
        <ele>1532</ele>
        <time>2012-02-25T07:35:51.000Z</time>
      </trkpt>
      <trkpt lat="45.50546" lon="6.60238">
        <ele>1532.4000244141</ele>
        <time>2012-02-25T07:35:55.000Z</time>
      </trkpt>
      <trkpt lat="45.50547" lon="6.60242">
        <ele>1533.4000244141</ele>
        <time>2012-02-25T07:36:00.000Z</time>
      </trkpt>
      <trkpt lat="45.50547" lon="6.60246">
        <ele>1534.5999755859</ele>
        <time>2012-02-25T07:36:06.000Z</time>
      </trkpt>
      <trkpt lat="45.50548" lon="6.60252">
        <ele>1536.5999755859</ele>
        <time>2012-02-25T07:36:28.000Z</time>
      </trkpt>
      <trkpt lat="45.50547" lon="6.60253">
        <ele>1537.4000244141</ele>
        <time>2012-02-25T07:36:34.000Z</time>
      </trkpt>
      <trkpt lat="45.50541" lon="6.60257">
        <ele>1540.8000488281</ele>
        <time>2012-02-25T07:37:09.000Z</time>
      </trkpt>
      <trkpt lat="45.50538" lon="6.60256">
        <ele>1541.1999511719</ele>
        <time>2012-02-25T07:37:14.000Z</time>
      </trkpt>
      <trkpt lat="45.50536" lon="6.60258">
        <ele>1542.4000244141</ele>
        <time>2012-02-25T07:37:18.000Z</time>
      </trkpt>
      <trkpt lat="45.50535" lon="6.60264">
        <ele>1545.5999755859</ele>
        <time>2012-02-25T07:37:25.000Z</time>
      </trkpt>
      <trkpt lat="45.50535" lon="6.60265">
        <ele>1546.1999511719</ele>
        <time>2012-02-25T07:37:29.000Z</time>
      </trkpt>
      <trkpt lat="45.50539" lon="6.6027">
        <ele>1547.1999511719</ele>
        <time>2012-02-25T07:37:34.000Z</time>
      </trkpt>
      <trkpt lat="45.5054" lon="6.60275">
        <ele>1549.1999511719</ele>
        <time>2012-02-25T07:37:40.000Z</time>
      </trkpt>
      <trkpt lat="45.50543" lon="6.60279">
        <ele>1550.4000244141</ele>
        <time>2012-02-25T07:37:46.000Z</time>
      </trkpt>
      <trkpt lat="45.50545" lon="6.60281">
        <ele>1550.8000488281</ele>
        <time>2012-02-25T07:37:50.000Z</time>
      </trkpt>
      <trkpt lat="45.50548" lon="6.60284">
        <ele>1551.5999755859</ele>
        <time>2012-02-25T07:37:56.000Z</time>
      </trkpt>
      <trkpt lat="45.50551" lon="6.60288">
        <ele>1552.5999755859</ele>
        <time>2012-02-25T07:38:02.000Z</time>
      </trkpt>
      <trkpt lat="45.50553" lon="6.60293">
        <ele>1554.4000244141</ele>
        <time>2012-02-25T07:38:10.000Z</time>
      </trkpt>
      <trkpt lat="45.50553" lon="6.60299">
        <ele>1557.1999511719</ele>
        <time>2012-02-25T07:38:20.000Z</time>
      </trkpt>
      <trkpt lat="45.50551" lon="6.60303">
        <ele>1559.5999755859</ele>
        <time>2012-02-25T07:38:26.000Z</time>
      </trkpt>
      <trkpt lat="45.50554" lon="6.60306">
        <ele>1560</ele>
        <time>2012-02-25T07:38:31.000Z</time>
      </trkpt>
      <trkpt lat="45.50558" lon="6.60305">
        <ele>1558.5999755859</ele>
        <time>2012-02-25T07:38:37.000Z</time>
      </trkpt>
      <trkpt lat="45.50562" lon="6.60304">
        <ele>1557.4000244141</ele>
        <time>2012-02-25T07:38:43.000Z</time>
      </trkpt>
      <trkpt lat="45.50567" lon="6.60309">
        <ele>1558.5999755859</ele>
        <time>2012-02-25T07:38:50.000Z</time>
      </trkpt>
      <trkpt lat="45.50571" lon="6.60312">
        <ele>1559</ele>
        <time>2012-02-25T07:38:57.000Z</time>
      </trkpt>
      <trkpt lat="45.50575" lon="6.60311">
        <ele>1557.5999755859</ele>
        <time>2012-02-25T07:39:04.000Z</time>
      </trkpt>
      <trkpt lat="45.50579" lon="6.60314">
        <ele>1558.1999511719</ele>
        <time>2012-02-25T07:39:10.000Z</time>
      </trkpt>
      <trkpt lat="45.50582" lon="6.60318">
        <ele>1558.8000488281</ele>
        <time>2012-02-25T07:39:15.000Z</time>
      </trkpt>
      <trkpt lat="45.50583" lon="6.6032">
        <ele>1559.8000488281</ele>
        <time>2012-02-25T07:39:22.000Z</time>
      </trkpt>
      <trkpt lat="45.50586" lon="6.60322">
        <ele>1560.4000244141</ele>
        <time>2012-02-25T07:39:29.000Z</time>
      </trkpt>
      <trkpt lat="45.50591" lon="6.60324">
        <ele>1560.1999511719</ele>
        <time>2012-02-25T07:39:33.000Z</time>
      </trkpt>
      <trkpt lat="45.50595" lon="6.60328">
        <ele>1561.1999511719</ele>
        <time>2012-02-25T07:39:39.000Z</time>
      </trkpt>
      <trkpt lat="45.50599" lon="6.6033">
        <ele>1561.4000244141</ele>
        <time>2012-02-25T07:39:44.000Z</time>
      </trkpt>
      <trkpt lat="45.50601" lon="6.6033">
        <ele>1560.8000488281</ele>
        <time>2012-02-25T07:39:48.000Z</time>
      </trkpt>
      <trkpt lat="45.50604" lon="6.60332">
        <ele>1561.4000244141</ele>
        <time>2012-02-25T07:39:53.000Z</time>
      </trkpt>
      <trkpt lat="45.50607" lon="6.60334">
        <ele>1561.5999755859</ele>
        <time>2012-02-25T07:39:58.000Z</time>
      </trkpt>
      <trkpt lat="45.5061" lon="6.60336">
        <ele>1562.1999511719</ele>
        <time>2012-02-25T07:40:03.000Z</time>
      </trkpt>
      <trkpt lat="45.50613" lon="6.60341">
        <ele>1563.8000488281</ele>
        <time>2012-02-25T07:40:10.000Z</time>
      </trkpt>
      <trkpt lat="45.50611" lon="6.60344">
        <ele>1565.5999755859</ele>
        <time>2012-02-25T07:40:16.000Z</time>
      </trkpt>
      <trkpt lat="45.50609" lon="6.60348">
        <ele>1567.8000488281</ele>
        <time>2012-02-25T07:40:23.000Z</time>
      </trkpt>
      <trkpt lat="45.50607" lon="6.60351">
        <ele>1569.8000488281</ele>
        <time>2012-02-25T07:40:28.000Z</time>
      </trkpt>
      <trkpt lat="45.50603" lon="6.60352">
        <ele>1571</ele>
        <time>2012-02-25T07:40:34.000Z</time>
      </trkpt>
      <trkpt lat="45.50602" lon="6.60352">
        <ele>1570.8000488281</ele>
        <time>2012-02-25T07:40:39.000Z</time>
      </trkpt>
      <trkpt lat="45.50599" lon="6.60353">
        <ele>1571.8000488281</ele>
        <time>2012-02-25T07:40:49.000Z</time>
      </trkpt>
      <trkpt lat="45.50596" lon="6.60359">
        <ele>1575.1999511719</ele>
        <time>2012-02-25T07:40:55.000Z</time>
      </trkpt>
      <trkpt lat="45.50593" lon="6.60361">
        <ele>1576.5999755859</ele>
        <time>2012-02-25T07:41:01.000Z</time>
      </trkpt>
      <trkpt lat="45.50589" lon="6.6036">
        <ele>1577</ele>
        <time>2012-02-25T07:41:06.000Z</time>
      </trkpt>
      <trkpt lat="45.50586" lon="6.6036">
        <ele>1577.8000488281</ele>
        <time>2012-02-25T07:41:11.000Z</time>
      </trkpt>
      <trkpt lat="45.50583" lon="6.60362">
        <ele>1579</ele>
        <time>2012-02-25T07:41:15.000Z</time>
      </trkpt>
      <trkpt lat="45.50581" lon="6.60364">
        <ele>1580.4000244141</ele>
        <time>2012-02-25T07:41:21.000Z</time>
      </trkpt>
      <trkpt lat="45.50578" lon="6.60366">
        <ele>1581.8000488281</ele>
        <time>2012-02-25T07:41:26.000Z</time>
      </trkpt>
      <trkpt lat="45.50578" lon="6.60367">
        <ele>1582.8000488281</ele>
        <time>2012-02-25T07:41:30.000Z</time>
      </trkpt>
      <trkpt lat="45.5058" lon="6.6037">
        <ele>1583.4000244141</ele>
        <time>2012-02-25T07:41:35.000Z</time>
      </trkpt>
      <trkpt lat="45.50581" lon="6.60369">
        <ele>1583</ele>
        <time>2012-02-25T07:41:39.000Z</time>
      </trkpt>
      <trkpt lat="45.5058" lon="6.60367">
        <ele>1582.1999511719</ele>
        <time>2012-02-25T07:41:57.000Z</time>
      </trkpt>
      <trkpt lat="45.50583" lon="6.60367">
        <ele>1581.5999755859</ele>
        <time>2012-02-25T07:42:03.000Z</time>
      </trkpt>
      <trkpt lat="45.50588" lon="6.60371">
        <ele>1582.1999511719</ele>
        <time>2012-02-25T07:42:10.000Z</time>
      </trkpt>
      <trkpt lat="45.50591" lon="6.60373">
        <ele>1582.5999755859</ele>
        <time>2012-02-25T07:42:16.000Z</time>
      </trkpt>
      <trkpt lat="45.50594" lon="6.60376">
        <ele>1583.1999511719</ele>
        <time>2012-02-25T07:42:21.000Z</time>
      </trkpt>
      <trkpt lat="45.50597" lon="6.60379">
        <ele>1584.1999511719</ele>
        <time>2012-02-25T07:42:25.000Z</time>
      </trkpt>
      <trkpt lat="45.50599" lon="6.60384">
        <ele>1586</ele>
        <time>2012-02-25T07:42:31.000Z</time>
      </trkpt>
      <trkpt lat="45.50603" lon="6.60388">
        <ele>1587</ele>
        <time>2012-02-25T07:42:37.000Z</time>
      </trkpt>
      <trkpt lat="45.50606" lon="6.60391">
        <ele>1588</ele>
        <time>2012-02-25T07:42:42.000Z</time>
      </trkpt>
      <trkpt lat="45.50608" lon="6.60394">
        <ele>1588.8000488281</ele>
        <time>2012-02-25T07:42:47.000Z</time>
      </trkpt>
      <trkpt lat="45.5061" lon="6.60397">
        <ele>1590</ele>
        <time>2012-02-25T07:42:53.000Z</time>
      </trkpt>
      <trkpt lat="45.50611" lon="6.60398">
        <ele>1590.1999511719</ele>
        <time>2012-02-25T07:43:00.000Z</time>
      </trkpt>
      <trkpt lat="45.50615" lon="6.60403">
        <ele>1591.5999755859</ele>
        <time>2012-02-25T07:43:25.000Z</time>
      </trkpt>
      <trkpt lat="45.50617" lon="6.60406">
        <ele>1592.8000488281</ele>
        <time>2012-02-25T07:43:31.000Z</time>
      </trkpt>
      <trkpt lat="45.50619" lon="6.60409">
        <ele>1593.4000244141</ele>
        <time>2012-02-25T07:43:35.000Z</time>
      </trkpt>
      <trkpt lat="45.50624" lon="6.60414">
        <ele>1594.8000488281</ele>
        <time>2012-02-25T07:43:42.000Z</time>
      </trkpt>
      <trkpt lat="45.50627" lon="6.60416">
        <ele>1595.4000244141</ele>
        <time>2012-02-25T07:43:48.000Z</time>
      </trkpt>
      <trkpt lat="45.5063" lon="6.60418">
        <ele>1595.5999755859</ele>
        <time>2012-02-25T07:43:55.000Z</time>
      </trkpt>
      <trkpt lat="45.50633" lon="6.60419">
        <ele>1595.8000488281</ele>
        <time>2012-02-25T07:44:00.000Z</time>
      </trkpt>
      <trkpt lat="45.50636" lon="6.60424">
        <ele>1597.5999755859</ele>
        <time>2012-02-25T07:44:06.000Z</time>
      </trkpt>
      <trkpt lat="45.50638" lon="6.60426">
        <ele>1598.1999511719</ele>
        <time>2012-02-25T07:44:12.000Z</time>
      </trkpt>
      <trkpt lat="45.50641" lon="6.60436">
        <ele>1602.8000488281</ele>
        <time>2012-02-25T07:44:37.000Z</time>
      </trkpt>
      <trkpt lat="45.50643" lon="6.60441">
        <ele>1605.1999511719</ele>
        <time>2012-02-25T07:44:42.000Z</time>
      </trkpt>
      <trkpt lat="45.50643" lon="6.60442">
        <ele>1605.8000488281</ele>
        <time>2012-02-25T07:44:43.000Z</time>
      </trkpt>
      <trkpt lat="45.50646" lon="6.60443">
        <ele>1605.5999755859</ele>
        <time>2012-02-25T07:44:47.000Z</time>
      </trkpt>
      <trkpt lat="45.50651" lon="6.60447">
        <ele>1607</ele>
        <time>2012-02-25T07:44:53.000Z</time>
      </trkpt>
      <trkpt lat="45.50651" lon="6.60448">
        <ele>1607.1999511719</ele>
        <time>2012-02-25T07:44:54.000Z</time>
      </trkpt>
      <trkpt lat="45.50655" lon="6.60453">
        <ele>1609.4000244141</ele>
        <time>2012-02-25T07:45:02.000Z</time>
      </trkpt>
      <trkpt lat="45.50654" lon="6.60456">
        <ele>1611</ele>
        <time>2012-02-25T07:45:06.000Z</time>
      </trkpt>
      <trkpt lat="45.5065" lon="6.60459">
        <ele>1613.1999511719</ele>
        <time>2012-02-25T07:45:12.000Z</time>
      </trkpt>
      <trkpt lat="45.50648" lon="6.60462">
        <ele>1614.8000488281</ele>
        <time>2012-02-25T07:45:17.000Z</time>
      </trkpt>
      <trkpt lat="45.50646" lon="6.60463">
        <ele>1615.8000488281</ele>
        <time>2012-02-25T07:45:23.000Z</time>
      </trkpt>
      <trkpt lat="45.50644" lon="6.60466">
        <ele>1617.8000488281</ele>
        <time>2012-02-25T07:45:28.000Z</time>
      </trkpt>
      <trkpt lat="45.50643" lon="6.60469">
        <ele>1619.5999755859</ele>
        <time>2012-02-25T07:45:33.000Z</time>
      </trkpt>
      <trkpt lat="45.50641" lon="6.60472">
        <ele>1621</ele>
        <time>2012-02-25T07:45:37.000Z</time>
      </trkpt>
      <trkpt lat="45.50639" lon="6.60473">
        <ele>1622.4000244141</ele>
        <time>2012-02-25T07:45:42.000Z</time>
      </trkpt>
      <trkpt lat="45.50635" lon="6.60476">
        <ele>1624.4000244141</ele>
        <time>2012-02-25T07:45:48.000Z</time>
      </trkpt>
      <trkpt lat="45.50633" lon="6.60478">
        <ele>1625.5999755859</ele>
        <time>2012-02-25T07:45:53.000Z</time>
      </trkpt>
      <trkpt lat="45.5063" lon="6.60479">
        <ele>1626.8000488281</ele>
        <time>2012-02-25T07:45:58.000Z</time>
      </trkpt>
      <trkpt lat="45.50626" lon="6.6048">
        <ele>1627.8000488281</ele>
        <time>2012-02-25T07:46:03.000Z</time>
      </trkpt>
      <trkpt lat="45.50622" lon="6.60482">
        <ele>1629.1999511719</ele>
        <time>2012-02-25T07:46:09.000Z</time>
      </trkpt>
      <trkpt lat="45.5062" lon="6.60483">
        <ele>1630.4000244141</ele>
        <time>2012-02-25T07:46:14.000Z</time>
      </trkpt>
      <trkpt lat="45.50617" lon="6.60483">
        <ele>1630.4000244141</ele>
        <time>2012-02-25T07:46:19.000Z</time>
      </trkpt>
      <trkpt lat="45.50612" lon="6.60481">
        <ele>1630.5999755859</ele>
        <time>2012-02-25T07:46:25.000Z</time>
      </trkpt>
      <trkpt lat="45.50611" lon="6.60478">
        <ele>1629</ele>
        <time>2012-02-25T07:46:34.000Z</time>
      </trkpt>
      <trkpt lat="45.50609" lon="6.60476">
        <ele>1628.5999755859</ele>
        <time>2012-02-25T07:46:38.000Z</time>
      </trkpt>
      <trkpt lat="45.50603" lon="6.60475">
        <ele>1628.8000488281</ele>
        <time>2012-02-25T07:46:44.000Z</time>
      </trkpt>
      <trkpt lat="45.50598" lon="6.60475">
        <ele>1629.5999755859</ele>
        <time>2012-02-25T07:46:48.000Z</time>
      </trkpt>
      <trkpt lat="45.50596" lon="6.60475">
        <ele>1630</ele>
        <time>2012-02-25T07:46:51.000Z</time>
      </trkpt>
      <trkpt lat="45.50594" lon="6.60475">
        <ele>1630</ele>
        <time>2012-02-25T07:46:53.000Z</time>
      </trkpt>
      <trkpt lat="45.50588" lon="6.60472">
        <ele>1629.5999755859</ele>
        <time>2012-02-25T07:46:57.000Z</time>
      </trkpt>
      <trkpt lat="45.50586" lon="6.60471">
        <ele>1630</ele>
        <time>2012-02-25T07:47:00.000Z</time>
      </trkpt>
      <trkpt lat="45.50576" lon="6.60468">
        <ele>1630.4000244141</ele>
        <time>2012-02-25T07:47:09.000Z</time>
      </trkpt>
      <trkpt lat="45.5057" lon="6.60468">
        <ele>1631.4000244141</ele>
        <time>2012-02-25T07:47:14.000Z</time>
      </trkpt>
      <trkpt lat="45.50562" lon="6.60465">
        <ele>1631.8000488281</ele>
        <time>2012-02-25T07:47:21.000Z</time>
      </trkpt>
      <trkpt lat="45.50561" lon="6.60465">
        <ele>1632</ele>
        <time>2012-02-25T07:47:22.000Z</time>
      </trkpt>
      <trkpt lat="45.50561" lon="6.60465">
        <ele>1632.4000244141</ele>
        <time>2012-02-25T07:47:23.000Z</time>
      </trkpt>
      <trkpt lat="45.5056" lon="6.60468">
        <ele>1634</ele>
        <time>2012-02-25T07:47:27.000Z</time>
      </trkpt>
      <trkpt lat="45.50553" lon="6.60477">
        <ele>1639.8000488281</ele>
        <time>2012-02-25T07:47:59.000Z</time>
      </trkpt>
      <trkpt lat="45.50555" lon="6.6048">
        <ele>1640.5999755859</ele>
        <time>2012-02-25T07:48:05.000Z</time>
      </trkpt>
      <trkpt lat="45.50559" lon="6.60484">
        <ele>1641.4000244141</ele>
        <time>2012-02-25T07:48:11.000Z</time>
      </trkpt>
      <trkpt lat="45.50561" lon="6.60483">
        <ele>1640.5999755859</ele>
        <time>2012-02-25T07:48:15.000Z</time>
      </trkpt>
      <trkpt lat="45.50564" lon="6.60483">
        <ele>1639.8000488281</ele>
        <time>2012-02-25T07:48:20.000Z</time>
      </trkpt>
      <trkpt lat="45.50566" lon="6.60482">
        <ele>1639.4000244141</ele>
        <time>2012-02-25T07:48:25.000Z</time>
      </trkpt>
      <trkpt lat="45.50569" lon="6.60483">
        <ele>1638.8000488281</ele>
        <time>2012-02-25T07:48:30.000Z</time>
      </trkpt>
      <trkpt lat="45.50573" lon="6.60484">
        <ele>1638.5999755859</ele>
        <time>2012-02-25T07:48:35.000Z</time>
      </trkpt>
      <trkpt lat="45.50577" lon="6.60485">
        <ele>1638.1999511719</ele>
        <time>2012-02-25T07:48:41.000Z</time>
      </trkpt>
      <trkpt lat="45.50582" lon="6.60484">
        <ele>1636.8000488281</ele>
        <time>2012-02-25T07:48:47.000Z</time>
      </trkpt>
      <trkpt lat="45.50586" lon="6.60485">
        <ele>1636.1999511719</ele>
        <time>2012-02-25T07:48:53.000Z</time>
      </trkpt>
      <trkpt lat="45.50589" lon="6.60486">
        <ele>1636.5999755859</ele>
        <time>2012-02-25T07:48:56.000Z</time>
      </trkpt>
      <trkpt lat="45.50593" lon="6.60487">
        <ele>1636.5999755859</ele>
        <time>2012-02-25T07:49:02.000Z</time>
      </trkpt>
      <trkpt lat="45.50596" lon="6.60491">
        <ele>1637.5999755859</ele>
        <time>2012-02-25T07:49:07.000Z</time>
      </trkpt>
      <trkpt lat="45.50599" lon="6.60493">
        <ele>1638.4000244141</ele>
        <time>2012-02-25T07:49:11.000Z</time>
      </trkpt>
      <trkpt lat="45.50603" lon="6.60497">
        <ele>1639.8000488281</ele>
        <time>2012-02-25T07:49:18.000Z</time>
      </trkpt>
      <trkpt lat="45.50602" lon="6.60502">
        <ele>1642.1999511719</ele>
        <time>2012-02-25T07:49:23.000Z</time>
      </trkpt>
      <trkpt lat="45.506" lon="6.60503">
        <ele>1643.1999511719</ele>
        <time>2012-02-25T07:49:28.000Z</time>
      </trkpt>
      <trkpt lat="45.50598" lon="6.60503">
        <ele>1643.5999755859</ele>
        <time>2012-02-25T07:49:33.000Z</time>
      </trkpt>
      <trkpt lat="45.50596" lon="6.60505">
        <ele>1644.8000488281</ele>
        <time>2012-02-25T07:49:38.000Z</time>
      </trkpt>
      <trkpt lat="45.50594" lon="6.60508">
        <ele>1646.8000488281</ele>
        <time>2012-02-25T07:49:42.000Z</time>
      </trkpt>
      <trkpt lat="45.50592" lon="6.6051">
        <ele>1648.1999511719</ele>
        <time>2012-02-25T07:49:46.000Z</time>
      </trkpt>
      <trkpt lat="45.50592" lon="6.60513">
        <ele>1649.8000488281</ele>
        <time>2012-02-25T07:49:51.000Z</time>
      </trkpt>
      <trkpt lat="45.50594" lon="6.60517">
        <ele>1651.5999755859</ele>
        <time>2012-02-25T07:49:59.000Z</time>
      </trkpt>
      <trkpt lat="45.50592" lon="6.60516">
        <ele>1651.4000244141</ele>
        <time>2012-02-25T07:50:06.000Z</time>
      </trkpt>
      <trkpt lat="45.50589" lon="6.60517">
        <ele>1652.4000244141</ele>
        <time>2012-02-25T07:50:11.000Z</time>
      </trkpt>
      <trkpt lat="45.50585" lon="6.6052">
        <ele>1654.4000244141</ele>
        <time>2012-02-25T07:50:18.000Z</time>
      </trkpt>
      <trkpt lat="45.50582" lon="6.60522">
        <ele>1655.8000488281</ele>
        <time>2012-02-25T07:50:24.000Z</time>
      </trkpt>
      <trkpt lat="45.5058" lon="6.60523">
        <ele>1656.8000488281</ele>
        <time>2012-02-25T07:50:28.000Z</time>
      </trkpt>
      <trkpt lat="45.50579" lon="6.60525">
        <ele>1658.1999511719</ele>
        <time>2012-02-25T07:50:32.000Z</time>
      </trkpt>
      <trkpt lat="45.50576" lon="6.60528">
        <ele>1659.8000488281</ele>
        <time>2012-02-25T07:50:37.000Z</time>
      </trkpt>
      <trkpt lat="45.50571" lon="6.6053">
        <ele>1661.8000488281</ele>
        <time>2012-02-25T07:50:44.000Z</time>
      </trkpt>
      <trkpt lat="45.50567" lon="6.60531">
        <ele>1663</ele>
        <time>2012-02-25T07:50:51.000Z</time>
      </trkpt>
      <trkpt lat="45.50562" lon="6.60529">
        <ele>1662.5999755859</ele>
        <time>2012-02-25T07:50:56.000Z</time>
      </trkpt>
      <trkpt lat="45.50558" lon="6.60531">
        <ele>1664.1999511719</ele>
        <time>2012-02-25T07:51:03.000Z</time>
      </trkpt>
      <trkpt lat="45.50555" lon="6.60532">
        <ele>1665</ele>
        <time>2012-02-25T07:51:07.000Z</time>
      </trkpt>
      <trkpt lat="45.50549" lon="6.60532">
        <ele>1666.1999511719</ele>
        <time>2012-02-25T07:51:13.000Z</time>
      </trkpt>
      <trkpt lat="45.50547" lon="6.60535">
        <ele>1667.8000488281</ele>
        <time>2012-02-25T07:51:18.000Z</time>
      </trkpt>
      <trkpt lat="45.50544" lon="6.60539">
        <ele>1669.8000488281</ele>
        <time>2012-02-25T07:51:23.000Z</time>
      </trkpt>
      <trkpt lat="45.50541" lon="6.60541">
        <ele>1671.1999511719</ele>
        <time>2012-02-25T07:51:28.000Z</time>
      </trkpt>
      <trkpt lat="45.50537" lon="6.60541">
        <ele>1671.8000488281</ele>
        <time>2012-02-25T07:51:33.000Z</time>
      </trkpt>
      <trkpt lat="45.50534" lon="6.60543">
        <ele>1673</ele>
        <time>2012-02-25T07:51:38.000Z</time>
      </trkpt>
      <trkpt lat="45.50529" lon="6.60544">
        <ele>1674.1999511719</ele>
        <time>2012-02-25T07:51:44.000Z</time>
      </trkpt>
      <trkpt lat="45.50527" lon="6.60546">
        <ele>1675.1999511719</ele>
        <time>2012-02-25T07:51:48.000Z</time>
      </trkpt>
      <trkpt lat="45.50522" lon="6.60549">
        <ele>1677.1999511719</ele>
        <time>2012-02-25T07:51:55.000Z</time>
      </trkpt>
      <trkpt lat="45.50517" lon="6.60551">
        <ele>1678.5999755859</ele>
        <time>2012-02-25T07:52:01.000Z</time>
      </trkpt>
      <trkpt lat="45.50514" lon="6.60553">
        <ele>1679.5999755859</ele>
        <time>2012-02-25T07:52:06.000Z</time>
      </trkpt>
      <trkpt lat="45.50511" lon="6.60553">
        <ele>1680.1999511719</ele>
        <time>2012-02-25T07:52:10.000Z</time>
      </trkpt>
      <trkpt lat="45.50508" lon="6.60554">
        <ele>1681</ele>
        <time>2012-02-25T07:52:16.000Z</time>
      </trkpt>
      <trkpt lat="45.50507" lon="6.60559">
        <ele>1683</ele>
        <time>2012-02-25T07:52:21.000Z</time>
      </trkpt>
      <trkpt lat="45.50507" lon="6.60561">
        <ele>1683.8000488281</ele>
        <time>2012-02-25T07:52:26.000Z</time>
      </trkpt>
      <trkpt lat="45.5051" lon="6.60561">
        <ele>1683.5999755859</ele>
        <time>2012-02-25T07:52:32.000Z</time>
      </trkpt>
      <trkpt lat="45.50513" lon="6.60561">
        <ele>1683.1999511719</ele>
        <time>2012-02-25T07:52:38.000Z</time>
      </trkpt>
      <trkpt lat="45.50514" lon="6.6056">
        <ele>1682.4000244141</ele>
        <time>2012-02-25T07:52:43.000Z</time>
      </trkpt>
      <trkpt lat="45.50513" lon="6.60549">
        <ele>1678.1999511719</ele>
        <time>2012-02-25T07:53:09.000Z</time>
      </trkpt>
      <trkpt lat="45.50516" lon="6.6055">
        <ele>1678.1999511719</ele>
        <time>2012-02-25T07:53:14.000Z</time>
      </trkpt>
      <trkpt lat="45.50519" lon="6.60549">
        <ele>1677.5999755859</ele>
        <time>2012-02-25T07:53:19.000Z</time>
      </trkpt>
      <trkpt lat="45.50523" lon="6.60551">
        <ele>1678</ele>
        <time>2012-02-25T07:53:25.000Z</time>
      </trkpt>
      <trkpt lat="45.50526" lon="6.60554">
        <ele>1678.5999755859</ele>
        <time>2012-02-25T07:53:30.000Z</time>
      </trkpt>
      <trkpt lat="45.50526" lon="6.60557">
        <ele>1680</ele>
        <time>2012-02-25T07:53:34.000Z</time>
      </trkpt>
      <trkpt lat="45.50524" lon="6.6056">
        <ele>1681.8000488281</ele>
        <time>2012-02-25T07:53:39.000Z</time>
      </trkpt>
      <trkpt lat="45.50522" lon="6.60563">
        <ele>1683.1999511719</ele>
        <time>2012-02-25T07:53:43.000Z</time>
      </trkpt>
      <trkpt lat="45.50519" lon="6.60568">
        <ele>1685.4000244141</ele>
        <time>2012-02-25T07:53:50.000Z</time>
      </trkpt>
      <trkpt lat="45.50517" lon="6.60572">
        <ele>1687.4000244141</ele>
        <time>2012-02-25T07:53:55.000Z</time>
      </trkpt>
      <trkpt lat="45.50513" lon="6.60576">
        <ele>1689.4000244141</ele>
        <time>2012-02-25T07:54:02.000Z</time>
      </trkpt>
      <trkpt lat="45.50513" lon="6.60579">
        <ele>1690.5999755859</ele>
        <time>2012-02-25T07:54:07.000Z</time>
      </trkpt>
      <trkpt lat="45.50515" lon="6.60581">
        <ele>1691</ele>
        <time>2012-02-25T07:54:13.000Z</time>
      </trkpt>
      <trkpt lat="45.50518" lon="6.60578">
        <ele>1689.8000488281</ele>
        <time>2012-02-25T07:54:31.000Z</time>
      </trkpt>
      <trkpt lat="45.50521" lon="6.60578">
        <ele>1689.4000244141</ele>
        <time>2012-02-25T07:54:36.000Z</time>
      </trkpt>
      <trkpt lat="45.50525" lon="6.6058">
        <ele>1690</ele>
        <time>2012-02-25T07:54:43.000Z</time>
      </trkpt>
      <trkpt lat="45.50529" lon="6.60582">
        <ele>1690.8000488281</ele>
        <time>2012-02-25T07:54:48.000Z</time>
      </trkpt>
      <trkpt lat="45.50533" lon="6.60587">
        <ele>1692</ele>
        <time>2012-02-25T07:54:55.000Z</time>
      </trkpt>
      <trkpt lat="45.50536" lon="6.60589">
        <ele>1692.5999755859</ele>
        <time>2012-02-25T07:55:01.000Z</time>
      </trkpt>
      <trkpt lat="45.50539" lon="6.6059">
        <ele>1692.8000488281</ele>
        <time>2012-02-25T07:55:06.000Z</time>
      </trkpt>
      <trkpt lat="45.5054" lon="6.60591">
        <ele>1693</ele>
        <time>2012-02-25T07:55:10.000Z</time>
      </trkpt>
      <trkpt lat="45.50543" lon="6.60596">
        <ele>1694.5999755859</ele>
        <time>2012-02-25T07:56:12.000Z</time>
      </trkpt>
      <trkpt lat="45.50546" lon="6.60598">
        <ele>1695</ele>
        <time>2012-02-25T07:56:17.000Z</time>
      </trkpt>
      <trkpt lat="45.50552" lon="6.60601">
        <ele>1696</ele>
        <time>2012-02-25T07:56:24.000Z</time>
      </trkpt>
      <trkpt lat="45.50556" lon="6.60605">
        <ele>1697.1999511719</ele>
        <time>2012-02-25T07:56:31.000Z</time>
      </trkpt>
      <trkpt lat="45.50561" lon="6.60608">
        <ele>1698</ele>
        <time>2012-02-25T07:56:38.000Z</time>
      </trkpt>
      <trkpt lat="45.50566" lon="6.6061">
        <ele>1698.5999755859</ele>
        <time>2012-02-25T07:56:44.000Z</time>
      </trkpt>
      <trkpt lat="45.50569" lon="6.60611">
        <ele>1699.1999511719</ele>
        <time>2012-02-25T07:56:48.000Z</time>
      </trkpt>
      <trkpt lat="45.50573" lon="6.60613">
        <ele>1700</ele>
        <time>2012-02-25T07:56:55.000Z</time>
      </trkpt>
      <trkpt lat="45.50579" lon="6.60616">
        <ele>1700.8000488281</ele>
        <time>2012-02-25T07:57:04.000Z</time>
      </trkpt>
      <trkpt lat="45.50583" lon="6.60617">
        <ele>1701.4000244141</ele>
        <time>2012-02-25T07:57:12.000Z</time>
      </trkpt>
      <trkpt lat="45.50587" lon="6.60619">
        <ele>1702</ele>
        <time>2012-02-25T07:57:42.000Z</time>
      </trkpt>
      <trkpt lat="45.50591" lon="6.60621">
        <ele>1703</ele>
        <time>2012-02-25T07:57:48.000Z</time>
      </trkpt>
      <trkpt lat="45.50596" lon="6.60624">
        <ele>1704.1999511719</ele>
        <time>2012-02-25T07:57:54.000Z</time>
      </trkpt>
      <trkpt lat="45.506" lon="6.60624">
        <ele>1704.4000244141</ele>
        <time>2012-02-25T07:58:01.000Z</time>
      </trkpt>
      <trkpt lat="45.50605" lon="6.60626">
        <ele>1705.4000244141</ele>
        <time>2012-02-25T07:58:08.000Z</time>
      </trkpt>
      <trkpt lat="45.50605" lon="6.60631">
        <ele>1707.4000244141</ele>
        <time>2012-02-25T07:58:13.000Z</time>
      </trkpt>
      <trkpt lat="45.50601" lon="6.60637">
        <ele>1709.8000488281</ele>
        <time>2012-02-25T07:58:20.000Z</time>
      </trkpt>
      <trkpt lat="45.50597" lon="6.60641">
        <ele>1711.1999511719</ele>
        <time>2012-02-25T07:58:26.000Z</time>
      </trkpt>
      <trkpt lat="45.50592" lon="6.60645">
        <ele>1712.5999755859</ele>
        <time>2012-02-25T07:58:33.000Z</time>
      </trkpt>
      <trkpt lat="45.50589" lon="6.60648">
        <ele>1713.8000488281</ele>
        <time>2012-02-25T07:58:40.000Z</time>
      </trkpt>
      <trkpt lat="45.50585" lon="6.60653">
        <ele>1715.5999755859</ele>
        <time>2012-02-25T07:59:31.000Z</time>
      </trkpt>
      <trkpt lat="45.50579" lon="6.60659">
        <ele>1717.8000488281</ele>
        <time>2012-02-25T07:59:39.000Z</time>
      </trkpt>
      <trkpt lat="45.50579" lon="6.6066">
        <ele>1718.1999511719</ele>
        <time>2012-02-25T07:59:40.000Z</time>
      </trkpt>
      <trkpt lat="45.50574" lon="6.60667">
        <ele>1720.4000244141</ele>
        <time>2012-02-25T07:59:49.000Z</time>
      </trkpt>
      <trkpt lat="45.50569" lon="6.60673">
        <ele>1722.4000244141</ele>
        <time>2012-02-25T07:59:56.000Z</time>
      </trkpt>
      <trkpt lat="45.50564" lon="6.6068">
        <ele>1724.5999755859</ele>
        <time>2012-02-25T08:00:06.000Z</time>
      </trkpt>
      <trkpt lat="45.5056" lon="6.60685">
        <ele>1726</ele>
        <time>2012-02-25T08:00:13.000Z</time>
      </trkpt>
      <trkpt lat="45.50555" lon="6.6069">
        <ele>1727.5999755859</ele>
        <time>2012-02-25T08:00:20.000Z</time>
      </trkpt>
      <trkpt lat="45.50551" lon="6.60695">
        <ele>1729.1999511719</ele>
        <time>2012-02-25T08:00:28.000Z</time>
      </trkpt>
      <trkpt lat="45.50548" lon="6.60698">
        <ele>1730.1999511719</ele>
        <time>2012-02-25T08:00:34.000Z</time>
      </trkpt>
      <trkpt lat="45.50542" lon="6.60703">
        <ele>1731.4000244141</ele>
        <time>2012-02-25T08:00:42.000Z</time>
      </trkpt>
      <trkpt lat="45.5054" lon="6.60703">
        <ele>1731.4000244141</ele>
        <time>2012-02-25T08:00:48.000Z</time>
      </trkpt>
      <trkpt lat="45.50537" lon="6.60705">
        <ele>1732</ele>
        <time>2012-02-25T08:01:37.000Z</time>
      </trkpt>
      <trkpt lat="45.50531" lon="6.60708">
        <ele>1732.5999755859</ele>
        <time>2012-02-25T08:01:44.000Z</time>
      </trkpt>
      <trkpt lat="45.50525" lon="6.60712">
        <ele>1733.4000244141</ele>
        <time>2012-02-25T08:01:53.000Z</time>
      </trkpt>
      <trkpt lat="45.50518" lon="6.60715">
        <ele>1733.5999755859</ele>
        <time>2012-02-25T08:02:01.000Z</time>
      </trkpt>
      <trkpt lat="45.50514" lon="6.60719">
        <ele>1734.8000488281</ele>
        <time>2012-02-25T08:02:08.000Z</time>
      </trkpt>
      <trkpt lat="45.50508" lon="6.60723">
        <ele>1735.5999755859</ele>
        <time>2012-02-25T08:02:17.000Z</time>
      </trkpt>
      <trkpt lat="45.50502" lon="6.60726">
        <ele>1736.4000244141</ele>
        <time>2012-02-25T08:02:25.000Z</time>
      </trkpt>
      <trkpt lat="45.50496" lon="6.6073">
        <ele>1738.1999511719</ele>
        <time>2012-02-25T08:02:33.000Z</time>
      </trkpt>
      <trkpt lat="45.50492" lon="6.60734">
        <ele>1740</ele>
        <time>2012-02-25T08:02:40.000Z</time>
      </trkpt>
      <trkpt lat="45.50488" lon="6.60738">
        <ele>1741.8000488281</ele>
        <time>2012-02-25T08:02:47.000Z</time>
      </trkpt>
      <trkpt lat="45.50485" lon="6.6074">
        <ele>1743</ele>
        <time>2012-02-25T08:02:52.000Z</time>
      </trkpt>
      <trkpt lat="45.5048" lon="6.60745">
        <ele>1745</ele>
        <time>2012-02-25T08:02:59.000Z</time>
      </trkpt>
      <trkpt lat="45.50478" lon="6.6075">
        <ele>1746.8000488281</ele>
        <time>2012-02-25T08:03:05.000Z</time>
      </trkpt>
      <trkpt lat="45.50479" lon="6.60754">
        <ele>1748.8000488281</ele>
        <time>2012-02-25T08:03:11.000Z</time>
      </trkpt>
      <trkpt lat="45.50483" lon="6.60757">
        <ele>1750.1999511719</ele>
        <time>2012-02-25T08:03:41.000Z</time>
      </trkpt>
      <trkpt lat="45.50486" lon="6.60761">
        <ele>1751.5999755859</ele>
        <time>2012-02-25T08:03:48.000Z</time>
      </trkpt>
      <trkpt lat="45.50489" lon="6.60767">
        <ele>1754.4000244141</ele>
        <time>2012-02-25T08:03:55.000Z</time>
      </trkpt>
      <trkpt lat="45.50486" lon="6.60771">
        <ele>1756.5999755859</ele>
        <time>2012-02-25T08:04:01.000Z</time>
      </trkpt>
      <trkpt lat="45.50481" lon="6.60774">
        <ele>1758.5999755859</ele>
        <time>2012-02-25T08:04:08.000Z</time>
      </trkpt>
      <trkpt lat="45.50478" lon="6.60779">
        <ele>1760.8000488281</ele>
        <time>2012-02-25T08:04:15.000Z</time>
      </trkpt>
      <trkpt lat="45.50476" lon="6.60783">
        <ele>1763.1999511719</ele>
        <time>2012-02-25T08:04:20.000Z</time>
      </trkpt>
      <trkpt lat="45.50471" lon="6.60789">
        <ele>1765.8000488281</ele>
        <time>2012-02-25T08:04:28.000Z</time>
      </trkpt>
      <trkpt lat="45.50467" lon="6.60792">
        <ele>1767.4000244141</ele>
        <time>2012-02-25T08:04:35.000Z</time>
      </trkpt>
      <trkpt lat="45.50461" lon="6.60796">
        <ele>1769</ele>
        <time>2012-02-25T08:04:43.000Z</time>
      </trkpt>
      <trkpt lat="45.50457" lon="6.60798">
        <ele>1770</ele>
        <time>2012-02-25T08:04:48.000Z</time>
      </trkpt>
      <trkpt lat="45.50454" lon="6.608">
        <ele>1771</ele>
        <time>2012-02-25T08:04:52.000Z</time>
      </trkpt>
      <trkpt lat="45.50449" lon="6.60805">
        <ele>1773</ele>
        <time>2012-02-25T08:05:00.000Z</time>
      </trkpt>
      <trkpt lat="45.50445" lon="6.60808">
        <ele>1774.1999511719</ele>
        <time>2012-02-25T08:05:07.000Z</time>
      </trkpt>
      <trkpt lat="45.50441" lon="6.6081">
        <ele>1775.1999511719</ele>
        <time>2012-02-25T08:05:13.000Z</time>
      </trkpt>
      <trkpt lat="45.50436" lon="6.60814">
        <ele>1776.4000244141</ele>
        <time>2012-02-25T08:05:20.000Z</time>
      </trkpt>
      <trkpt lat="45.50435" lon="6.60813">
        <ele>1776</ele>
        <time>2012-02-25T08:05:27.000Z</time>
      </trkpt>
      <trkpt lat="45.50432" lon="6.60813">
        <ele>1776</ele>
        <time>2012-02-25T08:05:43.000Z</time>
      </trkpt>
      <trkpt lat="45.50429" lon="6.60814">
        <ele>1776.1999511719</ele>
        <time>2012-02-25T08:05:48.000Z</time>
      </trkpt>
      <trkpt lat="45.50425" lon="6.60817">
        <ele>1777.1999511719</ele>
        <time>2012-02-25T08:05:54.000Z</time>
      </trkpt>
      <trkpt lat="45.50421" lon="6.60821">
        <ele>1778.5999755859</ele>
        <time>2012-02-25T08:06:01.000Z</time>
      </trkpt>
      <trkpt lat="45.50417" lon="6.60824">
        <ele>1779.5999755859</ele>
        <time>2012-02-25T08:06:07.000Z</time>
      </trkpt>
      <trkpt lat="45.50414" lon="6.60828">
        <ele>1781.5999755859</ele>
        <time>2012-02-25T08:06:13.000Z</time>
      </trkpt>
      <trkpt lat="45.50412" lon="6.60833">
        <ele>1783.4000244141</ele>
        <time>2012-02-25T08:06:18.000Z</time>
      </trkpt>
      <trkpt lat="45.50408" lon="6.60837">
        <ele>1785.5999755859</ele>
        <time>2012-02-25T08:06:25.000Z</time>
      </trkpt>
      <trkpt lat="45.50404" lon="6.6084">
        <ele>1787.1999511719</ele>
        <time>2012-02-25T08:06:30.000Z</time>
      </trkpt>
      <trkpt lat="45.50401" lon="6.60842">
        <ele>1788.4000244141</ele>
        <time>2012-02-25T08:06:36.000Z</time>
      </trkpt>
      <trkpt lat="45.50399" lon="6.60846">
        <ele>1790.1999511719</ele>
        <time>2012-02-25T08:06:41.000Z</time>
      </trkpt>
      <trkpt lat="45.50396" lon="6.60849">
        <ele>1791.5999755859</ele>
        <time>2012-02-25T08:06:47.000Z</time>
      </trkpt>
      <trkpt lat="45.50393" lon="6.60852">
        <ele>1793</ele>
        <time>2012-02-25T08:06:52.000Z</time>
      </trkpt>
      <trkpt lat="45.50391" lon="6.60856">
        <ele>1794.8000488281</ele>
        <time>2012-02-25T08:06:58.000Z</time>
      </trkpt>
      <trkpt lat="45.50389" lon="6.6086">
        <ele>1796.4000244141</ele>
        <time>2012-02-25T08:07:03.000Z</time>
      </trkpt>
      <trkpt lat="45.50386" lon="6.60864">
        <ele>1798</ele>
        <time>2012-02-25T08:07:09.000Z</time>
      </trkpt>
      <trkpt lat="45.50384" lon="6.60865">
        <ele>1798.8000488281</ele>
        <time>2012-02-25T08:07:14.000Z</time>
      </trkpt>
      <trkpt lat="45.50382" lon="6.60868">
        <ele>1799.8000488281</ele>
        <time>2012-02-25T08:07:19.000Z</time>
      </trkpt>
      <trkpt lat="45.5038" lon="6.6087">
        <ele>1800.8000488281</ele>
        <time>2012-02-25T08:07:23.000Z</time>
      </trkpt>
      <trkpt lat="45.50375" lon="6.60871">
        <ele>1801.4000244141</ele>
        <time>2012-02-25T08:07:30.000Z</time>
      </trkpt>
      <trkpt lat="45.50374" lon="6.60871">
        <ele>1801.5999755859</ele>
        <time>2012-02-25T08:07:36.000Z</time>
      </trkpt>
      <trkpt lat="45.50374" lon="6.6087">
        <ele>1801.1999511719</ele>
        <time>2012-02-25T08:07:58.000Z</time>
      </trkpt>
      <trkpt lat="45.50379" lon="6.60873">
        <ele>1801.8000488281</ele>
        <time>2012-02-25T08:08:05.000Z</time>
      </trkpt>
      <trkpt lat="45.50384" lon="6.60878">
        <ele>1803</ele>
        <time>2012-02-25T08:08:12.000Z</time>
      </trkpt>
      <trkpt lat="45.50385" lon="6.60883">
        <ele>1805</ele>
        <time>2012-02-25T08:08:19.000Z</time>
      </trkpt>
      <trkpt lat="45.50384" lon="6.60886">
        <ele>1806</ele>
        <time>2012-02-25T08:08:23.000Z</time>
      </trkpt>
      <trkpt lat="45.50382" lon="6.6089">
        <ele>1807.4000244141</ele>
        <time>2012-02-25T08:08:29.000Z</time>
      </trkpt>
      <trkpt lat="45.50381" lon="6.60895">
        <ele>1808.8000488281</ele>
        <time>2012-02-25T08:08:34.000Z</time>
      </trkpt>
      <trkpt lat="45.50383" lon="6.60897">
        <ele>1809.8000488281</ele>
        <time>2012-02-25T08:08:39.000Z</time>
      </trkpt>
      <trkpt lat="45.50384" lon="6.60899">
        <ele>1810.1999511719</ele>
        <time>2012-02-25T08:08:47.000Z</time>
      </trkpt>
      <trkpt lat="45.50384" lon="6.609">
        <ele>1810.5999755859</ele>
        <time>2012-02-25T08:08:57.000Z</time>
      </trkpt>
      <trkpt lat="45.5038" lon="6.609">
        <ele>1810.8000488281</ele>
        <time>2012-02-25T08:09:11.000Z</time>
      </trkpt>
      <trkpt lat="45.50378" lon="6.60903">
        <ele>1811.8000488281</ele>
        <time>2012-02-25T08:09:17.000Z</time>
      </trkpt>
      <trkpt lat="45.50374" lon="6.60906">
        <ele>1813.1999511719</ele>
        <time>2012-02-25T08:09:23.000Z</time>
      </trkpt>
      <trkpt lat="45.50373" lon="6.6091">
        <ele>1814.4000244141</ele>
        <time>2012-02-25T08:09:29.000Z</time>
      </trkpt>
      <trkpt lat="45.50374" lon="6.60914">
        <ele>1815.8000488281</ele>
        <time>2012-02-25T08:09:34.000Z</time>
      </trkpt>
      <trkpt lat="45.50376" lon="6.60918">
        <ele>1816.8000488281</ele>
        <time>2012-02-25T08:09:39.000Z</time>
      </trkpt>
      <trkpt lat="45.50379" lon="6.60922">
        <ele>1817.8000488281</ele>
        <time>2012-02-25T08:09:45.000Z</time>
      </trkpt>
      <trkpt lat="45.50382" lon="6.60924">
        <ele>1818.1999511719</ele>
        <time>2012-02-25T08:09:50.000Z</time>
      </trkpt>
      <trkpt lat="45.50385" lon="6.60923">
        <ele>1818.1999511719</ele>
        <time>2012-02-25T08:09:54.000Z</time>
      </trkpt>
      <trkpt lat="45.50388" lon="6.60925">
        <ele>1818.5999755859</ele>
        <time>2012-02-25T08:10:00.000Z</time>
      </trkpt>
      <trkpt lat="45.50388" lon="6.60926">
        <ele>1819</ele>
        <time>2012-02-25T08:10:05.000Z</time>
      </trkpt>
      <trkpt lat="45.50384" lon="6.60932">
        <ele>1820.4000244141</ele>
        <time>2012-02-25T08:10:29.000Z</time>
      </trkpt>
      <trkpt lat="45.50383" lon="6.60934">
        <ele>1821.1999511719</ele>
        <time>2012-02-25T08:10:31.000Z</time>
      </trkpt>
      <trkpt lat="45.50381" lon="6.60938">
        <ele>1822</ele>
        <time>2012-02-25T08:10:35.000Z</time>
      </trkpt>
      <trkpt lat="45.50377" lon="6.60942">
        <ele>1823.1999511719</ele>
        <time>2012-02-25T08:10:43.000Z</time>
      </trkpt>
      <trkpt lat="45.50374" lon="6.60944">
        <ele>1823.5999755859</ele>
        <time>2012-02-25T08:10:49.000Z</time>
      </trkpt>
      <trkpt lat="45.50371" lon="6.60947">
        <ele>1824.4000244141</ele>
        <time>2012-02-25T08:10:55.000Z</time>
      </trkpt>
      <trkpt lat="45.5037" lon="6.6095">
        <ele>1825</ele>
        <time>2012-02-25T08:11:00.000Z</time>
      </trkpt>
      <trkpt lat="45.50371" lon="6.60953">
        <ele>1825.8000488281</ele>
        <time>2012-02-25T08:11:06.000Z</time>
      </trkpt>
      <trkpt lat="45.50374" lon="6.60952">
        <ele>1825.5999755859</ele>
        <time>2012-02-25T08:11:23.000Z</time>
      </trkpt>
      <trkpt lat="45.50379" lon="6.60955">
        <ele>1826.5999755859</ele>
        <time>2012-02-25T08:11:36.000Z</time>
      </trkpt>
      <trkpt lat="45.50382" lon="6.6096">
        <ele>1827.8000488281</ele>
        <time>2012-02-25T08:11:43.000Z</time>
      </trkpt>
      <trkpt lat="45.50385" lon="6.60962">
        <ele>1828.5999755859</ele>
        <time>2012-02-25T08:11:50.000Z</time>
      </trkpt>
      <trkpt lat="45.50386" lon="6.60962">
        <ele>1828.8000488281</ele>
        <time>2012-02-25T08:11:54.000Z</time>
      </trkpt>
      <trkpt lat="45.50388" lon="6.60962">
        <ele>1828.8000488281</ele>
        <time>2012-02-25T08:11:59.000Z</time>
      </trkpt>
      <trkpt lat="45.50388" lon="6.60962">
        <ele>1828.8000488281</ele>
        <time>2012-02-25T08:12:04.000Z</time>
      </trkpt>
      <trkpt lat="45.50385" lon="6.60964">
        <ele>1829.1999511719</ele>
        <time>2012-02-25T08:12:13.000Z</time>
      </trkpt>
      <trkpt lat="45.50385" lon="6.60966">
        <ele>1829.8000488281</ele>
        <time>2012-02-25T08:12:18.000Z</time>
      </trkpt>
      <trkpt lat="45.50385" lon="6.60967">
        <ele>1830</ele>
        <time>2012-02-25T08:12:26.000Z</time>
      </trkpt>
      <trkpt lat="45.50387" lon="6.60966">
        <ele>1829.8000488281</ele>
        <time>2012-02-25T08:12:30.000Z</time>
      </trkpt>
      <trkpt lat="45.50388" lon="6.60965">
        <ele>1829.8000488281</ele>
        <time>2012-02-25T08:12:37.000Z</time>
      </trkpt>
      <trkpt lat="45.50389" lon="6.60966">
        <ele>1830</ele>
        <time>2012-02-25T08:12:42.000Z</time>
      </trkpt>
      <trkpt lat="45.50389" lon="6.60966">
        <ele>1829.8000488281</ele>
        <time>2012-02-25T08:12:49.000Z</time>
      </trkpt>
      <trkpt lat="45.50391" lon="6.60968">
        <ele>1830.5999755859</ele>
        <time>2012-02-25T08:12:58.000Z</time>
      </trkpt>
      <trkpt lat="45.50393" lon="6.60972">
        <ele>1832</ele>
        <time>2012-02-25T08:13:05.000Z</time>
      </trkpt>
      <trkpt lat="45.50393" lon="6.60975">
        <ele>1832.8000488281</ele>
        <time>2012-02-25T08:13:10.000Z</time>
      </trkpt>
      <trkpt lat="45.50392" lon="6.60979">
        <ele>1833.8000488281</ele>
        <time>2012-02-25T08:13:16.000Z</time>
      </trkpt>
      <trkpt lat="45.5039" lon="6.60983">
        <ele>1834.8000488281</ele>
        <time>2012-02-25T08:13:24.000Z</time>
      </trkpt>
      <trkpt lat="45.50393" lon="6.60983">
        <ele>1835</ele>
        <time>2012-02-25T08:13:32.000Z</time>
      </trkpt>
      <trkpt lat="45.50394" lon="6.60985">
        <ele>1835.5999755859</ele>
        <time>2012-02-25T08:13:36.000Z</time>
      </trkpt>
      <trkpt lat="45.50391" lon="6.60989">
        <ele>1836.4000244141</ele>
        <time>2012-02-25T08:13:43.000Z</time>
      </trkpt>
      <trkpt lat="45.5039" lon="6.60993">
        <ele>1837.4000244141</ele>
        <time>2012-02-25T08:13:49.000Z</time>
      </trkpt>
      <trkpt lat="45.50389" lon="6.60995">
        <ele>1838</ele>
        <time>2012-02-25T08:13:54.000Z</time>
      </trkpt>
      <trkpt lat="45.50388" lon="6.60997">
        <ele>1838.4000244141</ele>
        <time>2012-02-25T08:14:01.000Z</time>
      </trkpt>
      <trkpt lat="45.50387" lon="6.61">
        <ele>1839.1999511719</ele>
        <time>2012-02-25T08:14:19.000Z</time>
      </trkpt>
      <trkpt lat="45.50384" lon="6.61003">
        <ele>1839.5999755859</ele>
        <time>2012-02-25T08:14:24.000Z</time>
      </trkpt>
      <trkpt lat="45.50382" lon="6.61007">
        <ele>1840.1999511719</ele>
        <time>2012-02-25T08:14:30.000Z</time>
      </trkpt>
      <trkpt lat="45.5038" lon="6.61012">
        <ele>1841</ele>
        <time>2012-02-25T08:14:37.000Z</time>
      </trkpt>
      <trkpt lat="45.50382" lon="6.61015">
        <ele>1841.5999755859</ele>
        <time>2012-02-25T08:14:43.000Z</time>
      </trkpt>
      <trkpt lat="45.50385" lon="6.61017">
        <ele>1842.4000244141</ele>
        <time>2012-02-25T08:14:49.000Z</time>
      </trkpt>
      <trkpt lat="45.50385" lon="6.61019">
        <ele>1842.8000488281</ele>
        <time>2012-02-25T08:14:53.000Z</time>
      </trkpt>
      <trkpt lat="45.50379" lon="6.61022">
        <ele>1843</ele>
        <time>2012-02-25T08:15:01.000Z</time>
      </trkpt>
      <trkpt lat="45.50376" lon="6.61025">
        <ele>1843.1999511719</ele>
        <time>2012-02-25T08:15:07.000Z</time>
      </trkpt>
      <trkpt lat="45.50375" lon="6.61026">
        <ele>1843.4000244141</ele>
        <time>2012-02-25T08:15:16.000Z</time>
      </trkpt>
      <trkpt lat="45.50374" lon="6.61028">
        <ele>1843.8000488281</ele>
        <time>2012-02-25T08:15:25.000Z</time>
      </trkpt>
      <trkpt lat="45.50375" lon="6.61031">
        <ele>1844.4000244141</ele>
        <time>2012-02-25T08:15:30.000Z</time>
      </trkpt>
      <trkpt lat="45.50378" lon="6.61034">
        <ele>1845.4000244141</ele>
        <time>2012-02-25T08:15:36.000Z</time>
      </trkpt>
      <trkpt lat="45.50378" lon="6.61037">
        <ele>1846</ele>
        <time>2012-02-25T08:15:40.000Z</time>
      </trkpt>
      <trkpt lat="45.50371" lon="6.61037">
        <ele>1845.4000244141</ele>
        <time>2012-02-25T08:16:15.000Z</time>
      </trkpt>
      <trkpt lat="45.50368" lon="6.61035">
        <ele>1844.8000488281</ele>
        <time>2012-02-25T08:16:19.000Z</time>
      </trkpt>
      <trkpt lat="45.50359" lon="6.6103">
        <ele>1843</ele>
        <time>2012-02-25T08:16:29.000Z</time>
      </trkpt>
      <trkpt lat="45.50351" lon="6.61027">
        <ele>1841.5999755859</ele>
        <time>2012-02-25T08:16:37.000Z</time>
      </trkpt>
      <trkpt lat="45.50342" lon="6.61024">
        <ele>1840.1999511719</ele>
        <time>2012-02-25T08:16:45.000Z</time>
      </trkpt>
      <trkpt lat="45.50338" lon="6.61022">
        <ele>1839.4000244141</ele>
        <time>2012-02-25T08:16:49.000Z</time>
      </trkpt>
      <trkpt lat="45.50333" lon="6.61019">
        <ele>1838.4000244141</ele>
        <time>2012-02-25T08:16:54.000Z</time>
      </trkpt>
      <trkpt lat="45.50318" lon="6.61012">
        <ele>1838.4000244141</ele>
        <time>2012-02-25T08:17:09.000Z</time>
      </trkpt>
      <trkpt lat="45.50312" lon="6.61011">
        <ele>1838.8000488281</ele>
        <time>2012-02-25T08:17:15.000Z</time>
      </trkpt>
      <trkpt lat="45.50303" lon="6.61009">
        <ele>1839.4000244141</ele>
        <time>2012-02-25T08:17:22.000Z</time>
      </trkpt>
      <trkpt lat="45.50294" lon="6.61008">
        <ele>1840.1999511719</ele>
        <time>2012-02-25T08:17:29.000Z</time>
      </trkpt>
      <trkpt lat="45.50287" lon="6.61009">
        <ele>1841.1999511719</ele>
        <time>2012-02-25T08:17:37.000Z</time>
      </trkpt>
      <trkpt lat="45.50283" lon="6.6101">
        <ele>1841.8000488281</ele>
        <time>2012-02-25T08:17:57.000Z</time>
      </trkpt>
      <trkpt lat="45.50273" lon="6.61012">
        <ele>1843.1999511719</ele>
        <time>2012-02-25T08:18:07.000Z</time>
      </trkpt>
      <trkpt lat="45.50267" lon="6.61016">
        <ele>1844.1999511719</ele>
        <time>2012-02-25T08:18:13.000Z</time>
      </trkpt>
      <trkpt lat="45.50261" lon="6.6102">
        <ele>1845.5999755859</ele>
        <time>2012-02-25T08:18:19.000Z</time>
      </trkpt>
      <trkpt lat="45.50254" lon="6.61022">
        <ele>1846.5999755859</ele>
        <time>2012-02-25T08:18:25.000Z</time>
      </trkpt>
      <trkpt lat="45.50245" lon="6.61022">
        <ele>1847.5999755859</ele>
        <time>2012-02-25T08:18:33.000Z</time>
      </trkpt>
      <trkpt lat="45.50238" lon="6.61021">
        <ele>1848.4000244141</ele>
        <time>2012-02-25T08:18:40.000Z</time>
      </trkpt>
      <trkpt lat="45.50231" lon="6.61023">
        <ele>1849.5999755859</ele>
        <time>2012-02-25T08:18:48.000Z</time>
      </trkpt>
      <trkpt lat="45.50226" lon="6.61025">
        <ele>1850.5999755859</ele>
        <time>2012-02-25T08:18:54.000Z</time>
      </trkpt>
      <trkpt lat="45.50218" lon="6.61023">
        <ele>1851.4000244141</ele>
        <time>2012-02-25T08:19:02.000Z</time>
      </trkpt>
      <trkpt lat="45.50213" lon="6.6102">
        <ele>1851.8000488281</ele>
        <time>2012-02-25T08:19:09.000Z</time>
      </trkpt>
      <trkpt lat="45.50206" lon="6.6102">
        <ele>1852.5999755859</ele>
        <time>2012-02-25T08:19:17.000Z</time>
      </trkpt>
      <trkpt lat="45.50202" lon="6.61022">
        <ele>1853.5999755859</ele>
        <time>2012-02-25T08:19:23.000Z</time>
      </trkpt>
      <trkpt lat="45.50197" lon="6.61029">
        <ele>1855.1999511719</ele>
        <time>2012-02-25T08:19:31.000Z</time>
      </trkpt>
      <trkpt lat="45.50193" lon="6.61033">
        <ele>1856.4000244141</ele>
        <time>2012-02-25T08:19:37.000Z</time>
      </trkpt>
      <trkpt lat="45.50189" lon="6.61035">
        <ele>1857.1999511719</ele>
        <time>2012-02-25T08:19:43.000Z</time>
      </trkpt>
      <trkpt lat="45.50183" lon="6.61037">
        <ele>1858.4000244141</ele>
        <time>2012-02-25T08:19:52.000Z</time>
      </trkpt>
      <trkpt lat="45.50182" lon="6.61037">
        <ele>1858.5999755859</ele>
        <time>2012-02-25T08:19:59.000Z</time>
      </trkpt>
      <trkpt lat="45.5018" lon="6.61037">
        <ele>1858.8000488281</ele>
        <time>2012-02-25T08:20:09.000Z</time>
      </trkpt>
      <trkpt lat="45.50176" lon="6.61041">
        <ele>1860</ele>
        <time>2012-02-25T08:20:17.000Z</time>
      </trkpt>
      <trkpt lat="45.50177" lon="6.61049">
        <ele>1861.1999511719</ele>
        <time>2012-02-25T08:20:25.000Z</time>
      </trkpt>
      <trkpt lat="45.50174" lon="6.61054">
        <ele>1862.4000244141</ele>
        <time>2012-02-25T08:20:32.000Z</time>
      </trkpt>
      <trkpt lat="45.50168" lon="6.61055">
        <ele>1863.4000244141</ele>
        <time>2012-02-25T08:20:40.000Z</time>
      </trkpt>
      <trkpt lat="45.50167" lon="6.6106">
        <ele>1864.4000244141</ele>
        <time>2012-02-25T08:20:45.000Z</time>
      </trkpt>
      <trkpt lat="45.50167" lon="6.61067">
        <ele>1865.4000244141</ele>
        <time>2012-02-25T08:20:51.000Z</time>
      </trkpt>
      <trkpt lat="45.50169" lon="6.61079">
        <ele>1867</ele>
        <time>2012-02-25T08:21:01.000Z</time>
      </trkpt>
      <trkpt lat="45.5017" lon="6.61089">
        <ele>1868.1999511719</ele>
        <time>2012-02-25T08:21:08.000Z</time>
      </trkpt>
      <trkpt lat="45.50173" lon="6.611">
        <ele>1869</ele>
        <time>2012-02-25T08:21:16.000Z</time>
      </trkpt>
      <trkpt lat="45.50175" lon="6.61108">
        <ele>1869.8000488281</ele>
        <time>2012-02-25T08:21:23.000Z</time>
      </trkpt>
      <trkpt lat="45.50179" lon="6.6112">
        <ele>1870.5999755859</ele>
        <time>2012-02-25T08:21:33.000Z</time>
      </trkpt>
      <trkpt lat="45.50182" lon="6.61129">
        <ele>1871.4000244141</ele>
        <time>2012-02-25T08:21:40.000Z</time>
      </trkpt>
      <trkpt lat="45.50185" lon="6.61139">
        <ele>1872.1999511719</ele>
        <time>2012-02-25T08:21:47.000Z</time>
      </trkpt>
      <trkpt lat="45.50189" lon="6.61151">
        <ele>1873.1999511719</ele>
        <time>2012-02-25T08:21:55.000Z</time>
      </trkpt>
      <trkpt lat="45.50192" lon="6.61162">
        <ele>1874.4000244141</ele>
        <time>2012-02-25T08:22:03.000Z</time>
      </trkpt>
      <trkpt lat="45.50191" lon="6.61171">
        <ele>1876</ele>
        <time>2012-02-25T08:22:10.000Z</time>
      </trkpt>
      <trkpt lat="45.50188" lon="6.61179">
        <ele>1878</ele>
        <time>2012-02-25T08:22:17.000Z</time>
      </trkpt>
      <trkpt lat="45.50185" lon="6.61185">
        <ele>1879.8000488281</ele>
        <time>2012-02-25T08:22:24.000Z</time>
      </trkpt>
      <trkpt lat="45.50185" lon="6.61186">
        <ele>1880</ele>
        <time>2012-02-25T08:22:25.000Z</time>
      </trkpt>
      <trkpt lat="45.50186" lon="6.61192">
        <ele>1881.1999511719</ele>
        <time>2012-02-25T08:22:33.000Z</time>
      </trkpt>
      <trkpt lat="45.50188" lon="6.61196">
        <ele>1881.8000488281</ele>
        <time>2012-02-25T08:22:48.000Z</time>
      </trkpt>
      <trkpt lat="45.50193" lon="6.61204">
        <ele>1883</ele>
        <time>2012-02-25T08:22:58.000Z</time>
      </trkpt>
      <trkpt lat="45.50199" lon="6.61218">
        <ele>1885.4000244141</ele>
        <time>2012-02-25T08:23:12.000Z</time>
      </trkpt>
      <trkpt lat="45.50203" lon="6.61225">
        <ele>1886.5999755859</ele>
        <time>2012-02-25T08:23:19.000Z</time>
      </trkpt>
      <trkpt lat="45.50207" lon="6.61234">
        <ele>1888.1999511719</ele>
        <time>2012-02-25T08:23:29.000Z</time>
      </trkpt>
      <trkpt lat="45.50212" lon="6.6124">
        <ele>1888.8000488281</ele>
        <time>2012-02-25T08:23:37.000Z</time>
      </trkpt>
      <trkpt lat="45.50217" lon="6.61245">
        <ele>1889.4000244141</ele>
        <time>2012-02-25T08:23:45.000Z</time>
      </trkpt>
      <trkpt lat="45.50222" lon="6.61252">
        <ele>1890.4000244141</ele>
        <time>2012-02-25T08:23:53.000Z</time>
      </trkpt>
      <trkpt lat="45.50227" lon="6.61258">
        <ele>1890.8000488281</ele>
        <time>2012-02-25T08:24:01.000Z</time>
      </trkpt>
      <trkpt lat="45.50228" lon="6.61259">
        <ele>1891</ele>
        <time>2012-02-25T08:24:08.000Z</time>
      </trkpt>
      <trkpt lat="45.50231" lon="6.61261">
        <ele>1891.1999511719</ele>
        <time>2012-02-25T08:24:24.000Z</time>
      </trkpt>
      <trkpt lat="45.50236" lon="6.61266">
        <ele>1891.5999755859</ele>
        <time>2012-02-25T08:24:31.000Z</time>
      </trkpt>
      <trkpt lat="45.50238" lon="6.61271">
        <ele>1892.4000244141</ele>
        <time>2012-02-25T08:24:37.000Z</time>
      </trkpt>
      <trkpt lat="45.50238" lon="6.61272">
        <ele>1892.5999755859</ele>
        <time>2012-02-25T08:24:44.000Z</time>
      </trkpt>
      <trkpt lat="45.50237" lon="6.61277">
        <ele>1893.5999755859</ele>
        <time>2012-02-25T08:24:52.000Z</time>
      </trkpt>
      <trkpt lat="45.50233" lon="6.61282">
        <ele>1895</ele>
        <time>2012-02-25T08:24:59.000Z</time>
      </trkpt>
      <trkpt lat="45.50228" lon="6.61288">
        <ele>1896.4000244141</ele>
        <time>2012-02-25T08:25:07.000Z</time>
      </trkpt>
      <trkpt lat="45.50224" lon="6.61292">
        <ele>1897.5999755859</ele>
        <time>2012-02-25T08:25:14.000Z</time>
      </trkpt>
      <trkpt lat="45.50219" lon="6.61298">
        <ele>1899</ele>
        <time>2012-02-25T08:25:22.000Z</time>
      </trkpt>
      <trkpt lat="45.50216" lon="6.61303">
        <ele>1900.1999511719</ele>
        <time>2012-02-25T08:25:28.000Z</time>
      </trkpt>
      <trkpt lat="45.50212" lon="6.6131">
        <ele>1901.8000488281</ele>
        <time>2012-02-25T08:25:36.000Z</time>
      </trkpt>
      <trkpt lat="45.50208" lon="6.61319">
        <ele>1903.4000244141</ele>
        <time>2012-02-25T08:25:44.000Z</time>
      </trkpt>
      <trkpt lat="45.50205" lon="6.61325">
        <ele>1904.5999755859</ele>
        <time>2012-02-25T08:25:50.000Z</time>
      </trkpt>
      <trkpt lat="45.502" lon="6.61328">
        <ele>1905.5999755859</ele>
        <time>2012-02-25T08:25:57.000Z</time>
      </trkpt>
      <trkpt lat="45.50195" lon="6.61333">
        <ele>1906.5999755859</ele>
        <time>2012-02-25T08:26:05.000Z</time>
      </trkpt>
      <trkpt lat="45.50192" lon="6.61338">
        <ele>1907.4000244141</ele>
        <time>2012-02-25T08:26:12.000Z</time>
      </trkpt>
      <trkpt lat="45.5019" lon="6.6134">
        <ele>1907.8000488281</ele>
        <time>2012-02-25T08:26:34.000Z</time>
      </trkpt>
      <trkpt lat="45.50186" lon="6.61344">
        <ele>1908.4000244141</ele>
        <time>2012-02-25T08:26:40.000Z</time>
      </trkpt>
      <trkpt lat="45.50183" lon="6.61349">
        <ele>1909.1999511719</ele>
        <time>2012-02-25T08:26:47.000Z</time>
      </trkpt>
      <trkpt lat="45.50179" lon="6.61355">
        <ele>1910</ele>
        <time>2012-02-25T08:26:54.000Z</time>
      </trkpt>
      <trkpt lat="45.50175" lon="6.61362">
        <ele>1911.1999511719</ele>
        <time>2012-02-25T08:27:01.000Z</time>
      </trkpt>
      <trkpt lat="45.50171" lon="6.61367">
        <ele>1912</ele>
        <time>2012-02-25T08:27:08.000Z</time>
      </trkpt>
      <trkpt lat="45.50167" lon="6.61373">
        <ele>1912.8000488281</ele>
        <time>2012-02-25T08:27:15.000Z</time>
      </trkpt>
      <trkpt lat="45.50163" lon="6.61377">
        <ele>1914</ele>
        <time>2012-02-25T08:27:22.000Z</time>
      </trkpt>
      <trkpt lat="45.50159" lon="6.61382">
        <ele>1915.4000244141</ele>
        <time>2012-02-25T08:27:29.000Z</time>
      </trkpt>
      <trkpt lat="45.50155" lon="6.61386">
        <ele>1916.8000488281</ele>
        <time>2012-02-25T08:27:36.000Z</time>
      </trkpt>
      <trkpt lat="45.5015" lon="6.61389">
        <ele>1918</ele>
        <time>2012-02-25T08:27:42.000Z</time>
      </trkpt>
      <trkpt lat="45.50145" lon="6.61392">
        <ele>1919.4000244141</ele>
        <time>2012-02-25T08:27:49.000Z</time>
      </trkpt>
      <trkpt lat="45.50142" lon="6.61393">
        <ele>1920.1999511719</ele>
        <time>2012-02-25T08:27:53.000Z</time>
      </trkpt>
      <trkpt lat="45.50136" lon="6.61396">
        <ele>1922</ele>
        <time>2012-02-25T08:28:01.000Z</time>
      </trkpt>
      <trkpt lat="45.50132" lon="6.61399">
        <ele>1923.1999511719</ele>
        <time>2012-02-25T08:28:07.000Z</time>
      </trkpt>
      <trkpt lat="45.50126" lon="6.61404">
        <ele>1925</ele>
        <time>2012-02-25T08:28:15.000Z</time>
      </trkpt>
      <trkpt lat="45.50122" lon="6.61408">
        <ele>1926.5999755859</ele>
        <time>2012-02-25T08:28:22.000Z</time>
      </trkpt>
      <trkpt lat="45.50117" lon="6.61412">
        <ele>1928</ele>
        <time>2012-02-25T08:28:29.000Z</time>
      </trkpt>
      <trkpt lat="45.50113" lon="6.61415">
        <ele>1929.4000244141</ele>
        <time>2012-02-25T08:28:36.000Z</time>
      </trkpt>
      <trkpt lat="45.50108" lon="6.61414">
        <ele>1930.1999511719</ele>
        <time>2012-02-25T08:28:43.000Z</time>
      </trkpt>
      <trkpt lat="45.50108" lon="6.61413">
        <ele>1930.1999511719</ele>
        <time>2012-02-25T08:28:51.000Z</time>
      </trkpt>
      <trkpt lat="45.50105" lon="6.61413">
        <ele>1930.8000488281</ele>
        <time>2012-02-25T08:29:05.000Z</time>
      </trkpt>
      <trkpt lat="45.50101" lon="6.61416">
        <ele>1932.1999511719</ele>
        <time>2012-02-25T08:29:12.000Z</time>
      </trkpt>
      <trkpt lat="45.50096" lon="6.61417">
        <ele>1933.1999511719</ele>
        <time>2012-02-25T08:29:19.000Z</time>
      </trkpt>
      <trkpt lat="45.50092" lon="6.61419">
        <ele>1934.8000488281</ele>
        <time>2012-02-25T08:29:26.000Z</time>
      </trkpt>
      <trkpt lat="45.50087" lon="6.61423">
        <ele>1936.4000244141</ele>
        <time>2012-02-25T08:29:33.000Z</time>
      </trkpt>
      <trkpt lat="45.50082" lon="6.61426">
        <ele>1937.8000488281</ele>
        <time>2012-02-25T08:29:40.000Z</time>
      </trkpt>
      <trkpt lat="45.50079" lon="6.6143">
        <ele>1939.5999755859</ele>
        <time>2012-02-25T08:29:47.000Z</time>
      </trkpt>
      <trkpt lat="45.50077" lon="6.6143">
        <ele>1940</ele>
        <time>2012-02-25T08:29:54.000Z</time>
      </trkpt>
      <trkpt lat="45.50074" lon="6.61433">
        <ele>1941.1999511719</ele>
        <time>2012-02-25T08:30:25.000Z</time>
      </trkpt>
      <trkpt lat="45.50069" lon="6.61436">
        <ele>1942.8000488281</ele>
        <time>2012-02-25T08:30:32.000Z</time>
      </trkpt>
      <trkpt lat="45.50064" lon="6.61439">
        <ele>1944.4000244141</ele>
        <time>2012-02-25T08:30:39.000Z</time>
      </trkpt>
      <trkpt lat="45.50059" lon="6.61443">
        <ele>1946.4000244141</ele>
        <time>2012-02-25T08:30:47.000Z</time>
      </trkpt>
      <trkpt lat="45.50054" lon="6.61445">
        <ele>1947.8000488281</ele>
        <time>2012-02-25T08:30:54.000Z</time>
      </trkpt>
      <trkpt lat="45.5005" lon="6.61449">
        <ele>1949.4000244141</ele>
        <time>2012-02-25T08:31:00.000Z</time>
      </trkpt>
      <trkpt lat="45.50045" lon="6.61451">
        <ele>1950.8000488281</ele>
        <time>2012-02-25T08:31:07.000Z</time>
      </trkpt>
      <trkpt lat="45.50042" lon="6.61453">
        <ele>1952</ele>
        <time>2012-02-25T08:31:14.000Z</time>
      </trkpt>
      <trkpt lat="45.50038" lon="6.61455">
        <ele>1953.1999511719</ele>
        <time>2012-02-25T08:31:32.000Z</time>
      </trkpt>
      <trkpt lat="45.50034" lon="6.61458">
        <ele>1954.5999755859</ele>
        <time>2012-02-25T08:31:39.000Z</time>
      </trkpt>
      <trkpt lat="45.5003" lon="6.61461">
        <ele>1956</ele>
        <time>2012-02-25T08:31:46.000Z</time>
      </trkpt>
      <trkpt lat="45.50026" lon="6.61464">
        <ele>1957.4000244141</ele>
        <time>2012-02-25T08:31:52.000Z</time>
      </trkpt>
      <trkpt lat="45.50022" lon="6.61466">
        <ele>1958.8000488281</ele>
        <time>2012-02-25T08:31:59.000Z</time>
      </trkpt>
      <trkpt lat="45.50019" lon="6.6147">
        <ele>1960.1999511719</ele>
        <time>2012-02-25T08:32:05.000Z</time>
      </trkpt>
      <trkpt lat="45.50017" lon="6.61469">
        <ele>1960.4000244141</ele>
        <time>2012-02-25T08:32:12.000Z</time>
      </trkpt>
      <trkpt lat="45.50014" lon="6.61464">
        <ele>1960</ele>
        <time>2012-02-25T08:32:33.000Z</time>
      </trkpt>
      <trkpt lat="45.50009" lon="6.61463">
        <ele>1961.1999511719</ele>
        <time>2012-02-25T08:32:42.000Z</time>
      </trkpt>
      <trkpt lat="45.50004" lon="6.61462">
        <ele>1961.8000488281</ele>
        <time>2012-02-25T08:32:49.000Z</time>
      </trkpt>
      <trkpt lat="45.49999" lon="6.6146">
        <ele>1962.4000244141</ele>
        <time>2012-02-25T08:32:56.000Z</time>
      </trkpt>
      <trkpt lat="45.49995" lon="6.61459">
        <ele>1962.4000244141</ele>
        <time>2012-02-25T08:33:03.000Z</time>
      </trkpt>
      <trkpt lat="45.49989" lon="6.61459">
        <ele>1962.8000488281</ele>
        <time>2012-02-25T08:33:11.000Z</time>
      </trkpt>
      <trkpt lat="45.49985" lon="6.6146">
        <ele>1963.1999511719</ele>
        <time>2012-02-25T08:33:18.000Z</time>
      </trkpt>
      <trkpt lat="45.49979" lon="6.61462">
        <ele>1963.8000488281</ele>
        <time>2012-02-25T08:33:27.000Z</time>
      </trkpt>
      <trkpt lat="45.49974" lon="6.61465">
        <ele>1964.5999755859</ele>
        <time>2012-02-25T08:33:35.000Z</time>
      </trkpt>
      <trkpt lat="45.49973" lon="6.61465">
        <ele>1964.5999755859</ele>
        <time>2012-02-25T08:33:43.000Z</time>
      </trkpt>
      <trkpt lat="45.4997" lon="6.61468">
        <ele>1965.4000244141</ele>
        <time>2012-02-25T08:33:54.000Z</time>
      </trkpt>
      <trkpt lat="45.49966" lon="6.61472">
        <ele>1966</ele>
        <time>2012-02-25T08:33:59.000Z</time>
      </trkpt>
      <trkpt lat="45.49965" lon="6.61472">
        <ele>1966.1999511719</ele>
        <time>2012-02-25T08:34:04.000Z</time>
      </trkpt>
      <trkpt lat="45.49963" lon="6.61477">
        <ele>1967.1999511719</ele>
        <time>2012-02-25T08:34:55.000Z</time>
      </trkpt>
      <trkpt lat="45.49959" lon="6.61486">
        <ele>1968.5999755859</ele>
        <time>2012-02-25T08:35:02.000Z</time>
      </trkpt>
      <trkpt lat="45.49955" lon="6.6149">
        <ele>1969.5999755859</ele>
        <time>2012-02-25T08:35:07.000Z</time>
      </trkpt>
      <trkpt lat="45.49949" lon="6.61497">
        <ele>1970.8000488281</ele>
        <time>2012-02-25T08:35:14.000Z</time>
      </trkpt>
      <trkpt lat="45.49949" lon="6.61499">
        <ele>1971</ele>
        <time>2012-02-25T08:35:15.000Z</time>
      </trkpt>
      <trkpt lat="45.49945" lon="6.61511">
        <ele>1973.5999755859</ele>
        <time>2012-02-25T08:35:22.000Z</time>
      </trkpt>
      <trkpt lat="45.49939" lon="6.61516">
        <ele>1974.8000488281</ele>
        <time>2012-02-25T08:35:27.000Z</time>
      </trkpt>
      <trkpt lat="45.49932" lon="6.6152">
        <ele>1976</ele>
        <time>2012-02-25T08:35:34.000Z</time>
      </trkpt>
      <trkpt lat="45.49926" lon="6.61523">
        <ele>1977</ele>
        <time>2012-02-25T08:35:40.000Z</time>
      </trkpt>
      <trkpt lat="45.49921" lon="6.61527">
        <ele>1978</ele>
        <time>2012-02-25T08:35:46.000Z</time>
      </trkpt>
      <trkpt lat="45.49913" lon="6.61535">
        <ele>1980</ele>
        <time>2012-02-25T08:35:54.000Z</time>
      </trkpt>
      <trkpt lat="45.49911" lon="6.61538">
        <ele>1980.5999755859</ele>
        <time>2012-02-25T08:35:57.000Z</time>
      </trkpt>
      <trkpt lat="45.49903" lon="6.61538">
        <ele>1980.5999755859</ele>
        <time>2012-02-25T08:36:05.000Z</time>
      </trkpt>
      <trkpt lat="45.49902" lon="6.61538">
        <ele>1980.5999755859</ele>
        <time>2012-02-25T08:36:06.000Z</time>
      </trkpt>
      <trkpt lat="45.49896" lon="6.61539">
        <ele>1980.8000488281</ele>
        <time>2012-02-25T08:36:15.000Z</time>
      </trkpt>
      <trkpt lat="45.49889" lon="6.6154">
        <ele>1981.1999511719</ele>
        <time>2012-02-25T08:36:22.000Z</time>
      </trkpt>
      <trkpt lat="45.49883" lon="6.61542">
        <ele>1981.4000244141</ele>
        <time>2012-02-25T08:36:28.000Z</time>
      </trkpt>
      <trkpt lat="45.49874" lon="6.61542">
        <ele>1981.5999755859</ele>
        <time>2012-02-25T08:36:38.000Z</time>
      </trkpt>
      <trkpt lat="45.49868" lon="6.61544">
        <ele>1982.1999511719</ele>
        <time>2012-02-25T08:36:45.000Z</time>
      </trkpt>
      <trkpt lat="45.49863" lon="6.61547">
        <ele>1983.1999511719</ele>
        <time>2012-02-25T08:36:53.000Z</time>
      </trkpt>
      <trkpt lat="45.49859" lon="6.6155">
        <ele>1984.1999511719</ele>
        <time>2012-02-25T08:37:00.000Z</time>
      </trkpt>
      <trkpt lat="45.49854" lon="6.61554">
        <ele>1985.5999755859</ele>
        <time>2012-02-25T08:37:07.000Z</time>
      </trkpt>
      <trkpt lat="45.49849" lon="6.61559">
        <ele>1987.1999511719</ele>
        <time>2012-02-25T08:37:16.000Z</time>
      </trkpt>
      <trkpt lat="45.49845" lon="6.61562">
        <ele>1988.1999511719</ele>
        <time>2012-02-25T08:37:23.000Z</time>
      </trkpt>
      <trkpt lat="45.49841" lon="6.61564">
        <ele>1989.1999511719</ele>
        <time>2012-02-25T08:37:30.000Z</time>
      </trkpt>
      <trkpt lat="45.49837" lon="6.61567">
        <ele>1990</ele>
        <time>2012-02-25T08:37:37.000Z</time>
      </trkpt>
      <trkpt lat="45.49832" lon="6.61569">
        <ele>1991.1999511719</ele>
        <time>2012-02-25T08:37:43.000Z</time>
      </trkpt>
      <trkpt lat="45.49832" lon="6.61569">
        <ele>1991.1999511719</ele>
        <time>2012-02-25T08:37:50.000Z</time>
      </trkpt>
      <trkpt lat="45.49827" lon="6.61569">
        <ele>1992.4000244141</ele>
        <time>2012-02-25T08:38:00.000Z</time>
      </trkpt>
      <trkpt lat="45.49822" lon="6.61571">
        <ele>1994</ele>
        <time>2012-02-25T08:38:07.000Z</time>
      </trkpt>
      <trkpt lat="45.49816" lon="6.61573">
        <ele>1996</ele>
        <time>2012-02-25T08:38:14.000Z</time>
      </trkpt>
      <trkpt lat="45.4981" lon="6.61574">
        <ele>1997.5999755859</ele>
        <time>2012-02-25T08:38:21.000Z</time>
      </trkpt>
      <trkpt lat="45.49802" lon="6.61575">
        <ele>2000</ele>
        <time>2012-02-25T08:38:31.000Z</time>
      </trkpt>
      <trkpt lat="45.49795" lon="6.61577">
        <ele>2002.1999511719</ele>
        <time>2012-02-25T08:38:39.000Z</time>
      </trkpt>
      <trkpt lat="45.49789" lon="6.61578">
        <ele>2003.8000488281</ele>
        <time>2012-02-25T08:38:46.000Z</time>
      </trkpt>
      <trkpt lat="45.49784" lon="6.61577">
        <ele>2004.8000488281</ele>
        <time>2012-02-25T08:38:53.000Z</time>
      </trkpt>
      <trkpt lat="45.49781" lon="6.61578">
        <ele>2005.5999755859</ele>
        <time>2012-02-25T08:38:59.000Z</time>
      </trkpt>
      <trkpt lat="45.49776" lon="6.61577">
        <ele>2006.5999755859</ele>
        <time>2012-02-25T08:39:06.000Z</time>
      </trkpt>
      <trkpt lat="45.49773" lon="6.61578">
        <ele>2007.4000244141</ele>
        <time>2012-02-25T08:39:11.000Z</time>
      </trkpt>
      <trkpt lat="45.49769" lon="6.61577">
        <ele>2008</ele>
        <time>2012-02-25T08:39:17.000Z</time>
      </trkpt>
      <trkpt lat="45.49767" lon="6.61577">
        <ele>2008.4000244141</ele>
        <time>2012-02-25T08:39:25.000Z</time>
      </trkpt>
      <trkpt lat="45.49763" lon="6.61576">
        <ele>2008.8000488281</ele>
        <time>2012-02-25T08:39:49.000Z</time>
      </trkpt>
      <trkpt lat="45.49759" lon="6.61575">
        <ele>2009.4000244141</ele>
        <time>2012-02-25T08:39:55.000Z</time>
      </trkpt>
      <trkpt lat="45.49751" lon="6.61576">
        <ele>2011.4000244141</ele>
        <time>2012-02-25T08:40:09.000Z</time>
      </trkpt>
      <trkpt lat="45.49748" lon="6.61577">
        <ele>2012.5999755859</ele>
        <time>2012-02-25T08:40:15.000Z</time>
      </trkpt>
      <trkpt lat="45.49745" lon="6.61577">
        <ele>2014.8000488281</ele>
        <time>2012-02-25T08:40:19.000Z</time>
      </trkpt>
      <trkpt lat="45.49741" lon="6.61578">
        <ele>2016.8000488281</ele>
        <time>2012-02-25T08:40:24.000Z</time>
      </trkpt>
      <trkpt lat="45.49737" lon="6.61578">
        <ele>2019</ele>
        <time>2012-02-25T08:40:32.000Z</time>
      </trkpt>
      <trkpt lat="45.49731" lon="6.61577">
        <ele>2021</ele>
        <time>2012-02-25T08:40:39.000Z</time>
      </trkpt>
      <trkpt lat="45.49726" lon="6.61575">
        <ele>2023</ele>
        <time>2012-02-25T08:40:46.000Z</time>
      </trkpt>
      <trkpt lat="45.49724" lon="6.61574">
        <ele>2023.4000244141</ele>
        <time>2012-02-25T08:40:52.000Z</time>
      </trkpt>
      <trkpt lat="45.49726" lon="6.61576">
        <ele>2023.5999755859</ele>
        <time>2012-02-25T08:41:49.000Z</time>
      </trkpt>
      <trkpt lat="45.49729" lon="6.61583">
        <ele>2024.8000488281</ele>
        <time>2012-02-25T08:41:57.000Z</time>
      </trkpt>
      <trkpt lat="45.49735" lon="6.61587">
        <ele>2024.4000244141</ele>
        <time>2012-02-25T08:42:04.000Z</time>
      </trkpt>
      <trkpt lat="45.49742" lon="6.61593">
        <ele>2023.8000488281</ele>
        <time>2012-02-25T08:42:13.000Z</time>
      </trkpt>
      <trkpt lat="45.49746" lon="6.61597">
        <ele>2024.4000244141</ele>
        <time>2012-02-25T08:42:20.000Z</time>
      </trkpt>
      <trkpt lat="45.49749" lon="6.61602">
        <ele>2025.4000244141</ele>
        <time>2012-02-25T08:42:27.000Z</time>
      </trkpt>
      <trkpt lat="45.49752" lon="6.61607">
        <ele>2027.4000244141</ele>
        <time>2012-02-25T08:42:37.000Z</time>
      </trkpt>
      <trkpt lat="45.49754" lon="6.61613">
        <ele>2030</ele>
        <time>2012-02-25T08:42:45.000Z</time>
      </trkpt>
      <trkpt lat="45.49755" lon="6.61616">
        <ele>2031.5999755859</ele>
        <time>2012-02-25T08:42:50.000Z</time>
      </trkpt>
      <trkpt lat="45.49754" lon="6.61616">
        <ele>2032</ele>
        <time>2012-02-25T08:42:56.000Z</time>
      </trkpt>
      <trkpt lat="45.4975" lon="6.61616">
        <ele>2032.8000488281</ele>
        <time>2012-02-25T08:43:13.000Z</time>
      </trkpt>
      <trkpt lat="45.49747" lon="6.61613">
        <ele>2032.8000488281</ele>
        <time>2012-02-25T08:43:19.000Z</time>
      </trkpt>
      <trkpt lat="45.49745" lon="6.61611">
        <ele>2032.4000244141</ele>
        <time>2012-02-25T08:43:24.000Z</time>
      </trkpt>
      <trkpt lat="45.49742" lon="6.61609">
        <ele>2032.8000488281</ele>
        <time>2012-02-25T08:43:29.000Z</time>
      </trkpt>
      <trkpt lat="45.49738" lon="6.61609">
        <ele>2034.1999511719</ele>
        <time>2012-02-25T08:43:36.000Z</time>
      </trkpt>
      <trkpt lat="45.49738" lon="6.61609">
        <ele>2034.1999511719</ele>
        <time>2012-02-25T08:43:41.000Z</time>
      </trkpt>
      <trkpt lat="45.49742" lon="6.61611">
        <ele>2034</ele>
        <time>2012-02-25T08:43:57.000Z</time>
      </trkpt>
      <trkpt lat="45.49745" lon="6.61616">
        <ele>2035.1999511719</ele>
        <time>2012-02-25T08:44:04.000Z</time>
      </trkpt>
      <trkpt lat="45.49748" lon="6.61621">
        <ele>2037</ele>
        <time>2012-02-25T08:44:11.000Z</time>
      </trkpt>
      <trkpt lat="45.4975" lon="6.61624">
        <ele>2037.1999511719</ele>
        <time>2012-02-25T08:44:17.000Z</time>
      </trkpt>
      <trkpt lat="45.49749" lon="6.61624">
        <ele>2038.1999511719</ele>
        <time>2012-02-25T08:44:22.000Z</time>
      </trkpt>
      <trkpt lat="45.49746" lon="6.61624">
        <ele>2039</ele>
        <time>2012-02-25T08:44:26.000Z</time>
      </trkpt>
      <trkpt lat="45.49742" lon="6.61623">
        <ele>2040</ele>
        <time>2012-02-25T08:44:33.000Z</time>
      </trkpt>
      <trkpt lat="45.4974" lon="6.61622">
        <ele>2040.4000244141</ele>
        <time>2012-02-25T08:44:38.000Z</time>
      </trkpt>
      <trkpt lat="45.4974" lon="6.61622">
        <ele>2040.5999755859</ele>
        <time>2012-02-25T08:44:47.000Z</time>
      </trkpt>
      <trkpt lat="45.49742" lon="6.61626">
        <ele>2042.1999511719</ele>
        <time>2012-02-25T08:45:02.000Z</time>
      </trkpt>
      <trkpt lat="45.49743" lon="6.6163">
        <ele>2043.4000244141</ele>
        <time>2012-02-25T08:45:06.000Z</time>
      </trkpt>
      <trkpt lat="45.49745" lon="6.61633">
        <ele>2044.5999755859</ele>
        <time>2012-02-25T08:45:12.000Z</time>
      </trkpt>
      <trkpt lat="45.49744" lon="6.61634">
        <ele>2045.1999511719</ele>
        <time>2012-02-25T08:45:17.000Z</time>
      </trkpt>
      <trkpt lat="45.49741" lon="6.61634">
        <ele>2046.4000244141</ele>
        <time>2012-02-25T08:45:22.000Z</time>
      </trkpt>
      <trkpt lat="45.49738" lon="6.61632">
        <ele>2046.8000488281</ele>
        <time>2012-02-25T08:45:29.000Z</time>
      </trkpt>
      <trkpt lat="45.49737" lon="6.61631">
        <ele>2046.5999755859</ele>
        <time>2012-02-25T08:45:34.000Z</time>
      </trkpt>
      <trkpt lat="45.49736" lon="6.61632">
        <ele>2047.1999511719</ele>
        <time>2012-02-25T08:45:41.000Z</time>
      </trkpt>
      <trkpt lat="45.49739" lon="6.61634">
        <ele>2047.4000244141</ele>
        <time>2012-02-25T08:46:16.000Z</time>
      </trkpt>
      <trkpt lat="45.49741" lon="6.61637">
        <ele>2048</ele>
        <time>2012-02-25T08:46:21.000Z</time>
      </trkpt>
      <trkpt lat="45.49744" lon="6.6164">
        <ele>2048.6000976562</ele>
        <time>2012-02-25T08:46:27.000Z</time>
      </trkpt>
      <trkpt lat="45.49746" lon="6.61642">
        <ele>2048.8000488281</ele>
        <time>2012-02-25T08:46:32.000Z</time>
      </trkpt>
      <trkpt lat="45.49745" lon="6.61645">
        <ele>2050.8000488281</ele>
        <time>2012-02-25T08:46:39.000Z</time>
      </trkpt>
      <trkpt lat="45.49742" lon="6.61645">
        <ele>2052</ele>
        <time>2012-02-25T08:46:43.000Z</time>
      </trkpt>
      <trkpt lat="45.49738" lon="6.61646">
        <ele>2053.8000488281</ele>
        <time>2012-02-25T08:46:49.000Z</time>
      </trkpt>
      <trkpt lat="45.49738" lon="6.61647">
        <ele>2054.1999511719</ele>
        <time>2012-02-25T08:46:55.000Z</time>
      </trkpt>
      <trkpt lat="45.4974" lon="6.61648">
        <ele>2054.1999511719</ele>
        <time>2012-02-25T08:47:00.000Z</time>
      </trkpt>
      <trkpt lat="45.49743" lon="6.61651">
        <ele>2055</ele>
        <time>2012-02-25T08:47:06.000Z</time>
      </trkpt>
      <trkpt lat="45.49744" lon="6.61653">
        <ele>2055.1999511719</ele>
        <time>2012-02-25T08:47:11.000Z</time>
      </trkpt>
      <trkpt lat="45.49746" lon="6.61654">
        <ele>2055.6000976562</ele>
        <time>2012-02-25T08:47:16.000Z</time>
      </trkpt>
      <trkpt lat="45.49747" lon="6.61654">
        <ele>2055.1999511719</ele>
        <time>2012-02-25T08:47:32.000Z</time>
      </trkpt>
      <trkpt lat="45.49749" lon="6.61655">
        <ele>2055.1999511719</ele>
        <time>2012-02-25T08:47:37.000Z</time>
      </trkpt>
      <trkpt lat="45.49751" lon="6.61658">
        <ele>2055.6000976562</ele>
        <time>2012-02-25T08:47:44.000Z</time>
      </trkpt>
      <trkpt lat="45.49749" lon="6.61659">
        <ele>2056.6000976562</ele>
        <time>2012-02-25T08:47:49.000Z</time>
      </trkpt>
      <trkpt lat="45.49746" lon="6.6166">
        <ele>2058.6000976562</ele>
        <time>2012-02-25T08:48:00.000Z</time>
      </trkpt>
      <trkpt lat="45.49742" lon="6.61662">
        <ele>2061</ele>
        <time>2012-02-25T08:48:08.000Z</time>
      </trkpt>
      <trkpt lat="45.49736" lon="6.61663">
        <ele>2063.3999023438</ele>
        <time>2012-02-25T08:48:16.000Z</time>
      </trkpt>
      <trkpt lat="45.49733" lon="6.61664">
        <ele>2064.8000488281</ele>
        <time>2012-02-25T08:48:22.000Z</time>
      </trkpt>
      <trkpt lat="45.49731" lon="6.61662">
        <ele>2064.8000488281</ele>
        <time>2012-02-25T08:48:28.000Z</time>
      </trkpt>
      <trkpt lat="45.49731" lon="6.61663">
        <ele>2064.8000488281</ele>
        <time>2012-02-25T08:48:36.000Z</time>
      </trkpt>
      <trkpt lat="45.49735" lon="6.61666">
        <ele>2065.1999511719</ele>
        <time>2012-02-25T08:48:47.000Z</time>
      </trkpt>
      <trkpt lat="45.49738" lon="6.6167">
        <ele>2066.1999511719</ele>
        <time>2012-02-25T08:48:53.000Z</time>
      </trkpt>
      <trkpt lat="45.4974" lon="6.61672">
        <ele>2066.6000976562</ele>
        <time>2012-02-25T08:48:59.000Z</time>
      </trkpt>
      <trkpt lat="45.49743" lon="6.61677">
        <ele>2067.3999023438</ele>
        <time>2012-02-25T08:49:05.000Z</time>
      </trkpt>
      <trkpt lat="45.49745" lon="6.61678">
        <ele>2067.6000976562</ele>
        <time>2012-02-25T08:49:10.000Z</time>
      </trkpt>
      <trkpt lat="45.49744" lon="6.61679">
        <ele>2068.1999511719</ele>
        <time>2012-02-25T08:49:15.000Z</time>
      </trkpt>
      <trkpt lat="45.49741" lon="6.61679">
        <ele>2069.1999511719</ele>
        <time>2012-02-25T08:49:38.000Z</time>
      </trkpt>
      <trkpt lat="45.49737" lon="6.61677">
        <ele>2069.3999023438</ele>
        <time>2012-02-25T08:49:43.000Z</time>
      </trkpt>
      <trkpt lat="45.49733" lon="6.61676">
        <ele>2070.1999511719</ele>
        <time>2012-02-25T08:49:49.000Z</time>
      </trkpt>
      <trkpt lat="45.49733" lon="6.61675">
        <ele>2069.8000488281</ele>
        <time>2012-02-25T08:49:53.000Z</time>
      </trkpt>
      <trkpt lat="45.49736" lon="6.61679">
        <ele>2070.3999023438</ele>
        <time>2012-02-25T08:49:59.000Z</time>
      </trkpt>
      <trkpt lat="45.49739" lon="6.61683">
        <ele>2071.3999023438</ele>
        <time>2012-02-25T08:50:05.000Z</time>
      </trkpt>
      <trkpt lat="45.49742" lon="6.61686">
        <ele>2072</ele>
        <time>2012-02-25T08:50:12.000Z</time>
      </trkpt>
      <trkpt lat="45.49741" lon="6.61688">
        <ele>2072.3999023438</ele>
        <time>2012-02-25T08:50:19.000Z</time>
      </trkpt>
      <trkpt lat="45.49739" lon="6.61687">
        <ele>2072.8000488281</ele>
        <time>2012-02-25T08:50:40.000Z</time>
      </trkpt>
      <trkpt lat="45.49734" lon="6.61685">
        <ele>2073.8000488281</ele>
        <time>2012-02-25T08:50:47.000Z</time>
      </trkpt>
      <trkpt lat="45.49727" lon="6.61683">
        <ele>2074.8000488281</ele>
        <time>2012-02-25T08:50:56.000Z</time>
      </trkpt>
      <trkpt lat="45.49722" lon="6.61682">
        <ele>2076</ele>
        <time>2012-02-25T08:51:04.000Z</time>
      </trkpt>
      <trkpt lat="45.49721" lon="6.61682">
        <ele>2076.1999511719</ele>
        <time>2012-02-25T08:51:10.000Z</time>
      </trkpt>
      <trkpt lat="45.49724" lon="6.61686">
        <ele>2077</ele>
        <time>2012-02-25T08:51:22.000Z</time>
      </trkpt>
      <trkpt lat="45.49727" lon="6.61691">
        <ele>2078.1999511719</ele>
        <time>2012-02-25T08:51:28.000Z</time>
      </trkpt>
      <trkpt lat="45.4973" lon="6.61696">
        <ele>2079.1999511719</ele>
        <time>2012-02-25T08:51:35.000Z</time>
      </trkpt>
      <trkpt lat="45.49733" lon="6.61699">
        <ele>2079.8000488281</ele>
        <time>2012-02-25T08:51:40.000Z</time>
      </trkpt>
      <trkpt lat="45.49737" lon="6.61703">
        <ele>2080.1999511719</ele>
        <time>2012-02-25T08:51:46.000Z</time>
      </trkpt>
      <trkpt lat="45.49739" lon="6.61706">
        <ele>2081</ele>
        <time>2012-02-25T08:51:52.000Z</time>
      </trkpt>
      <trkpt lat="45.49739" lon="6.61706">
        <ele>2081.1999511719</ele>
        <time>2012-02-25T08:51:58.000Z</time>
      </trkpt>
      <trkpt lat="45.49736" lon="6.61707">
        <ele>2082</ele>
        <time>2012-02-25T08:52:07.000Z</time>
      </trkpt>
      <trkpt lat="45.49729" lon="6.61705">
        <ele>2083.1999511719</ele>
        <time>2012-02-25T08:52:17.000Z</time>
      </trkpt>
      <trkpt lat="45.49726" lon="6.61704">
        <ele>2083.6000976562</ele>
        <time>2012-02-25T08:52:23.000Z</time>
      </trkpt>
      <trkpt lat="45.49723" lon="6.61704">
        <ele>2084.6000976562</ele>
        <time>2012-02-25T08:52:28.000Z</time>
      </trkpt>
      <trkpt lat="45.4972" lon="6.61703">
        <ele>2085.1999511719</ele>
        <time>2012-02-25T08:52:32.000Z</time>
      </trkpt>
      <trkpt lat="45.49715" lon="6.61702">
        <ele>2086</ele>
        <time>2012-02-25T08:52:39.000Z</time>
      </trkpt>
      <trkpt lat="45.4971" lon="6.61701">
        <ele>2086.8000488281</ele>
        <time>2012-02-25T08:52:46.000Z</time>
      </trkpt>
      <trkpt lat="45.49707" lon="6.617">
        <ele>2087.1999511719</ele>
        <time>2012-02-25T08:52:51.000Z</time>
      </trkpt>
      <trkpt lat="45.49703" lon="6.61699">
        <ele>2088.1999511719</ele>
        <time>2012-02-25T08:52:57.000Z</time>
      </trkpt>
      <trkpt lat="45.49699" lon="6.61698">
        <ele>2088.8000488281</ele>
        <time>2012-02-25T08:53:03.000Z</time>
      </trkpt>
      <trkpt lat="45.49693" lon="6.61696">
        <ele>2089.6000976562</ele>
        <time>2012-02-25T08:53:12.000Z</time>
      </trkpt>
      <trkpt lat="45.49693" lon="6.61695">
        <ele>2089.6000976562</ele>
        <time>2012-02-25T08:53:19.000Z</time>
      </trkpt>
      <trkpt lat="45.49688" lon="6.61692">
        <ele>2089.8000488281</ele>
        <time>2012-02-25T08:53:25.000Z</time>
      </trkpt>
      <trkpt lat="45.49683" lon="6.61687">
        <ele>2089.3999023438</ele>
        <time>2012-02-25T08:53:32.000Z</time>
      </trkpt>
      <trkpt lat="45.49678" lon="6.61683">
        <ele>2089.3999023438</ele>
        <time>2012-02-25T08:53:37.000Z</time>
      </trkpt>
      <trkpt lat="45.49673" lon="6.61679">
        <ele>2089.6000976562</ele>
        <time>2012-02-25T08:53:44.000Z</time>
      </trkpt>
      <trkpt lat="45.49667" lon="6.61676">
        <ele>2090.3999023438</ele>
        <time>2012-02-25T08:53:52.000Z</time>
      </trkpt>
      <trkpt lat="45.49664" lon="6.61676">
        <ele>2091</ele>
        <time>2012-02-25T08:53:59.000Z</time>
      </trkpt>
      <trkpt lat="45.49661" lon="6.61676">
        <ele>2091.8000488281</ele>
        <time>2012-02-25T08:54:10.000Z</time>
      </trkpt>
      <trkpt lat="45.49656" lon="6.61677">
        <ele>2093.3999023438</ele>
        <time>2012-02-25T08:54:18.000Z</time>
      </trkpt>
      <trkpt lat="45.49651" lon="6.61679">
        <ele>2095.1999511719</ele>
        <time>2012-02-25T08:54:24.000Z</time>
      </trkpt>
      <trkpt lat="45.49646" lon="6.6168">
        <ele>2096.8000488281</ele>
        <time>2012-02-25T08:54:32.000Z</time>
      </trkpt>
      <trkpt lat="45.49642" lon="6.61682">
        <ele>2098.3999023438</ele>
        <time>2012-02-25T08:54:39.000Z</time>
      </trkpt>
      <trkpt lat="45.49642" lon="6.61684">
        <ele>2099.1999511719</ele>
        <time>2012-02-25T08:54:45.000Z</time>
      </trkpt>
      <trkpt lat="45.49642" lon="6.61685">
        <ele>2099.1999511719</ele>
        <time>2012-02-25T08:54:55.000Z</time>
      </trkpt>
      <trkpt lat="45.49644" lon="6.61688">
        <ele>2100</ele>
        <time>2012-02-25T08:55:00.000Z</time>
      </trkpt>
      <trkpt lat="45.49646" lon="6.61694">
        <ele>2101.1999511719</ele>
        <time>2012-02-25T08:55:07.000Z</time>
      </trkpt>
      <trkpt lat="45.49648" lon="6.617">
        <ele>2102.6000976562</ele>
        <time>2012-02-25T08:55:15.000Z</time>
      </trkpt>
      <trkpt lat="45.4965" lon="6.61705">
        <ele>2104</ele>
        <time>2012-02-25T08:55:21.000Z</time>
      </trkpt>
      <trkpt lat="45.49652" lon="6.6171">
        <ele>2105</ele>
        <time>2012-02-25T08:55:27.000Z</time>
      </trkpt>
      <trkpt lat="45.49652" lon="6.61714">
        <ele>2106.1999511719</ele>
        <time>2012-02-25T08:55:33.000Z</time>
      </trkpt>
      <trkpt lat="45.49647" lon="6.61715">
        <ele>2107.6000976562</ele>
        <time>2012-02-25T08:55:41.000Z</time>
      </trkpt>
      <trkpt lat="45.49643" lon="6.61717">
        <ele>2108.6000976562</ele>
        <time>2012-02-25T08:55:48.000Z</time>
      </trkpt>
      <trkpt lat="45.49643" lon="6.61717">
        <ele>2108.8000488281</ele>
        <time>2012-02-25T08:55:53.000Z</time>
      </trkpt>
      <trkpt lat="45.49638" lon="6.61717">
        <ele>2109.8000488281</ele>
        <time>2012-02-25T08:56:23.000Z</time>
      </trkpt>
      <trkpt lat="45.49635" lon="6.61717">
        <ele>2110.3999023438</ele>
        <time>2012-02-25T08:56:28.000Z</time>
      </trkpt>
      <trkpt lat="45.49635" lon="6.61718">
        <ele>2110.6000976562</ele>
        <time>2012-02-25T08:56:33.000Z</time>
      </trkpt>
      <trkpt lat="45.49636" lon="6.61723">
        <ele>2111.8000488281</ele>
        <time>2012-02-25T08:56:39.000Z</time>
      </trkpt>
      <trkpt lat="45.49638" lon="6.61731">
        <ele>2113.8000488281</ele>
        <time>2012-02-25T08:56:48.000Z</time>
      </trkpt>
      <trkpt lat="45.4964" lon="6.61736">
        <ele>2115</ele>
        <time>2012-02-25T08:56:53.000Z</time>
      </trkpt>
      <trkpt lat="45.49642" lon="6.61741">
        <ele>2116.1999511719</ele>
        <time>2012-02-25T08:57:00.000Z</time>
      </trkpt>
      <trkpt lat="45.49642" lon="6.61743">
        <ele>2117</ele>
        <time>2012-02-25T08:57:05.000Z</time>
      </trkpt>
      <trkpt lat="45.49638" lon="6.61744">
        <ele>2117.6000976562</ele>
        <time>2012-02-25T08:57:34.000Z</time>
      </trkpt>
      <trkpt lat="45.49632" lon="6.61745">
        <ele>2118.6000976562</ele>
        <time>2012-02-25T08:57:42.000Z</time>
      </trkpt>
      <trkpt lat="45.49628" lon="6.61746">
        <ele>2119.3999023438</ele>
        <time>2012-02-25T08:57:48.000Z</time>
      </trkpt>
      <trkpt lat="45.49623" lon="6.61746">
        <ele>2120</ele>
        <time>2012-02-25T08:57:56.000Z</time>
      </trkpt>
      <trkpt lat="45.4962" lon="6.61746">
        <ele>2120.3999023438</ele>
        <time>2012-02-25T08:58:02.000Z</time>
      </trkpt>
      <trkpt lat="45.49618" lon="6.61745">
        <ele>2120.6000976562</ele>
        <time>2012-02-25T08:58:06.000Z</time>
      </trkpt>
      <trkpt lat="45.49615" lon="6.61744">
        <ele>2120.8000488281</ele>
        <time>2012-02-25T08:58:12.000Z</time>
      </trkpt>
      <trkpt lat="45.49612" lon="6.61745">
        <ele>2121.1999511719</ele>
        <time>2012-02-25T08:58:24.000Z</time>
      </trkpt>
      <trkpt lat="45.49608" lon="6.61748">
        <ele>2122.6000976562</ele>
        <time>2012-02-25T08:58:31.000Z</time>
      </trkpt>
      <trkpt lat="45.49608" lon="6.61749">
        <ele>2122.8000488281</ele>
        <time>2012-02-25T08:58:37.000Z</time>
      </trkpt>
      <trkpt lat="45.49604" lon="6.61748">
        <ele>2123</ele>
        <time>2012-02-25T08:58:55.000Z</time>
      </trkpt>
      <trkpt lat="45.49604" lon="6.61748">
        <ele>2123</ele>
        <time>2012-02-25T08:59:27.000Z</time>
      </trkpt>
      <trkpt lat="45.49603" lon="6.6175">
        <ele>2123.6000976562</ele>
        <time>2012-02-25T08:59:33.000Z</time>
      </trkpt>
      <trkpt lat="45.49603" lon="6.61756">
        <ele>2124.8000488281</ele>
        <time>2012-02-25T08:59:38.000Z</time>
      </trkpt>
      <trkpt lat="45.49602" lon="6.61766">
        <ele>2126.8000488281</ele>
        <time>2012-02-25T08:59:47.000Z</time>
      </trkpt>
      <trkpt lat="45.49602" lon="6.61774">
        <ele>2128.3999023438</ele>
        <time>2012-02-25T08:59:53.000Z</time>
      </trkpt>
      <trkpt lat="45.49601" lon="6.61785">
        <ele>2130.3999023438</ele>
        <time>2012-02-25T09:00:03.000Z</time>
      </trkpt>
      <trkpt lat="45.49601" lon="6.61795">
        <ele>2132.6000976562</ele>
        <time>2012-02-25T09:00:13.000Z</time>
      </trkpt>
      <trkpt lat="45.49601" lon="6.61802">
        <ele>2134</ele>
        <time>2012-02-25T09:00:21.000Z</time>
      </trkpt>
      <trkpt lat="45.496" lon="6.61806">
        <ele>2134.6000976562</ele>
        <time>2012-02-25T09:00:27.000Z</time>
      </trkpt>
      <trkpt lat="45.496" lon="6.61812">
        <ele>2135.6000976562</ele>
        <time>2012-02-25T09:00:48.000Z</time>
      </trkpt>
      <trkpt lat="45.49601" lon="6.61819">
        <ele>2137.1999511719</ele>
        <time>2012-02-25T09:00:55.000Z</time>
      </trkpt>
      <trkpt lat="45.49604" lon="6.61833">
        <ele>2140</ele>
        <time>2012-02-25T09:01:09.000Z</time>
      </trkpt>
      <trkpt lat="45.49607" lon="6.6184">
        <ele>2141.1999511719</ele>
        <time>2012-02-25T09:01:18.000Z</time>
      </trkpt>
      <trkpt lat="45.49609" lon="6.61845">
        <ele>2142</ele>
        <time>2012-02-25T09:01:40.000Z</time>
      </trkpt>
      <trkpt lat="45.49609" lon="6.61845">
        <ele>2142</ele>
        <time>2012-02-25T09:01:48.000Z</time>
      </trkpt>
      <trkpt lat="45.49611" lon="6.61849">
        <ele>2142.8000488281</ele>
        <time>2012-02-25T09:02:06.000Z</time>
      </trkpt>
      <trkpt lat="45.49614" lon="6.61856">
        <ele>2144.1999511719</ele>
        <time>2012-02-25T09:02:13.000Z</time>
      </trkpt>
      <trkpt lat="45.49617" lon="6.61863">
        <ele>2145.3999023438</ele>
        <time>2012-02-25T09:02:21.000Z</time>
      </trkpt>
      <trkpt lat="45.49619" lon="6.6187">
        <ele>2147</ele>
        <time>2012-02-25T09:02:27.000Z</time>
      </trkpt>
      <trkpt lat="45.49622" lon="6.61879">
        <ele>2148.6000976562</ele>
        <time>2012-02-25T09:02:37.000Z</time>
      </trkpt>
      <trkpt lat="45.49624" lon="6.61886">
        <ele>2150</ele>
        <time>2012-02-25T09:02:43.000Z</time>
      </trkpt>
      <trkpt lat="45.49625" lon="6.61893">
        <ele>2151.3999023438</ele>
        <time>2012-02-25T09:02:51.000Z</time>
      </trkpt>
      <trkpt lat="45.49625" lon="6.61894">
        <ele>2151.6000976562</ele>
        <time>2012-02-25T09:02:57.000Z</time>
      </trkpt>
      <trkpt lat="45.49627" lon="6.61898">
        <ele>2152.6000976562</ele>
        <time>2012-02-25T09:03:11.000Z</time>
      </trkpt>
      <trkpt lat="45.49629" lon="6.61907">
        <ele>2154.3999023438</ele>
        <time>2012-02-25T09:03:20.000Z</time>
      </trkpt>
      <trkpt lat="45.4963" lon="6.61912">
        <ele>2155.6000976562</ele>
        <time>2012-02-25T09:03:26.000Z</time>
      </trkpt>
      <trkpt lat="45.4963" lon="6.61919">
        <ele>2156.6000976562</ele>
        <time>2012-02-25T09:03:33.000Z</time>
      </trkpt>
      <trkpt lat="45.4963" lon="6.61924">
        <ele>2157.3999023438</ele>
        <time>2012-02-25T09:04:00.000Z</time>
      </trkpt>
      <trkpt lat="45.49629" lon="6.61933">
        <ele>2158.6000976562</ele>
        <time>2012-02-25T09:04:08.000Z</time>
      </trkpt>
      <trkpt lat="45.49629" lon="6.61942">
        <ele>2159.8000488281</ele>
        <time>2012-02-25T09:04:15.000Z</time>
      </trkpt>
      <trkpt lat="45.49628" lon="6.61951">
        <ele>2161</ele>
        <time>2012-02-25T09:04:23.000Z</time>
      </trkpt>
      <trkpt lat="45.49627" lon="6.61958">
        <ele>2161.8000488281</ele>
        <time>2012-02-25T09:04:31.000Z</time>
      </trkpt>
      <trkpt lat="45.49627" lon="6.61966">
        <ele>2162.8000488281</ele>
        <time>2012-02-25T09:04:38.000Z</time>
      </trkpt>
      <trkpt lat="45.49628" lon="6.61973">
        <ele>2164.1999511719</ele>
        <time>2012-02-25T09:04:45.000Z</time>
      </trkpt>
      <trkpt lat="45.49628" lon="6.61972">
        <ele>2164</ele>
        <time>2012-02-25T09:04:53.000Z</time>
      </trkpt>
      <trkpt lat="45.4963" lon="6.61977">
        <ele>2165.1999511719</ele>
        <time>2012-02-25T09:05:08.000Z</time>
      </trkpt>
      <trkpt lat="45.49634" lon="6.61982">
        <ele>2167</ele>
        <time>2012-02-25T09:05:18.000Z</time>
      </trkpt>
      <trkpt lat="45.49638" lon="6.61984">
        <ele>2168.3999023438</ele>
        <time>2012-02-25T09:05:23.000Z</time>
      </trkpt>
      <trkpt lat="45.49643" lon="6.61988">
        <ele>2170.6000976562</ele>
        <time>2012-02-25T09:05:32.000Z</time>
      </trkpt>
      <trkpt lat="45.49646" lon="6.61995">
        <ele>2172.6000976562</ele>
        <time>2012-02-25T09:05:38.000Z</time>
      </trkpt>
      <trkpt lat="45.49649" lon="6.62001">
        <ele>2174.6000976562</ele>
        <time>2012-02-25T09:05:45.000Z</time>
      </trkpt>
      <trkpt lat="45.49652" lon="6.62011">
        <ele>2177.1999511719</ele>
        <time>2012-02-25T09:05:56.000Z</time>
      </trkpt>
      <trkpt lat="45.49654" lon="6.62017">
        <ele>2178.6000976562</ele>
        <time>2012-02-25T09:06:02.000Z</time>
      </trkpt>
      <trkpt lat="45.49656" lon="6.62028">
        <ele>2181</ele>
        <time>2012-02-25T09:06:11.000Z</time>
      </trkpt>
      <trkpt lat="45.49657" lon="6.62031">
        <ele>2181.8000488281</ele>
        <time>2012-02-25T09:06:13.000Z</time>
      </trkpt>
      <trkpt lat="45.4966" lon="6.62037">
        <ele>2183.3999023438</ele>
        <time>2012-02-25T09:06:21.000Z</time>
      </trkpt>
      <trkpt lat="45.49662" lon="6.62043">
        <ele>2184.8000488281</ele>
        <time>2012-02-25T09:06:27.000Z</time>
      </trkpt>
      <trkpt lat="45.49663" lon="6.62051">
        <ele>2186.3999023438</ele>
        <time>2012-02-25T09:06:33.000Z</time>
      </trkpt>
      <trkpt lat="45.49663" lon="6.62059">
        <ele>2187.6000976562</ele>
        <time>2012-02-25T09:06:41.000Z</time>
      </trkpt>
      <trkpt lat="45.49663" lon="6.62068">
        <ele>2188.8000488281</ele>
        <time>2012-02-25T09:06:48.000Z</time>
      </trkpt>
      <trkpt lat="45.49661" lon="6.62077">
        <ele>2189.8000488281</ele>
        <time>2012-02-25T09:06:56.000Z</time>
      </trkpt>
      <trkpt lat="45.49661" lon="6.6208">
        <ele>2190</ele>
        <time>2012-02-25T09:07:02.000Z</time>
      </trkpt>
      <trkpt lat="45.4966" lon="6.62084">
        <ele>2190.6000976562</ele>
        <time>2012-02-25T09:07:33.000Z</time>
      </trkpt>
      <trkpt lat="45.49659" lon="6.6209">
        <ele>2192.1999511719</ele>
        <time>2012-02-25T09:07:40.000Z</time>
      </trkpt>
      <trkpt lat="45.49657" lon="6.62098">
        <ele>2193.8000488281</ele>
        <time>2012-02-25T09:07:47.000Z</time>
      </trkpt>
      <trkpt lat="45.49656" lon="6.621">
        <ele>2194.1999511719</ele>
        <time>2012-02-25T09:07:49.000Z</time>
      </trkpt>
      <trkpt lat="45.49653" lon="6.62108">
        <ele>2195.6000976562</ele>
        <time>2012-02-25T09:07:56.000Z</time>
      </trkpt>
      <trkpt lat="45.49651" lon="6.62113">
        <ele>2196.8000488281</ele>
        <time>2012-02-25T09:08:02.000Z</time>
      </trkpt>
      <trkpt lat="45.49649" lon="6.6212">
        <ele>2198.3999023438</ele>
        <time>2012-02-25T09:08:08.000Z</time>
      </trkpt>
      <trkpt lat="45.49646" lon="6.62127">
        <ele>2199.8000488281</ele>
        <time>2012-02-25T09:08:15.000Z</time>
      </trkpt>
      <trkpt lat="45.49646" lon="6.62128">
        <ele>2200.1999511719</ele>
        <time>2012-02-25T09:08:16.000Z</time>
      </trkpt>
      <trkpt lat="45.49643" lon="6.62133">
        <ele>2201</ele>
        <time>2012-02-25T09:08:22.000Z</time>
      </trkpt>
      <trkpt lat="45.49641" lon="6.62138">
        <ele>2202</ele>
        <time>2012-02-25T09:08:27.000Z</time>
      </trkpt>
      <trkpt lat="45.49638" lon="6.62142">
        <ele>2202.8000488281</ele>
        <time>2012-02-25T09:08:33.000Z</time>
      </trkpt>
      <trkpt lat="45.49638" lon="6.62142">
        <ele>2202.8000488281</ele>
        <time>2012-02-25T09:08:41.000Z</time>
      </trkpt>
      <trkpt lat="45.49635" lon="6.62146">
        <ele>2203.3999023438</ele>
        <time>2012-02-25T09:09:11.000Z</time>
      </trkpt>
      <trkpt lat="45.49633" lon="6.62151">
        <ele>2204.1999511719</ele>
        <time>2012-02-25T09:09:17.000Z</time>
      </trkpt>
      <trkpt lat="45.4963" lon="6.62156">
        <ele>2205</ele>
        <time>2012-02-25T09:09:23.000Z</time>
      </trkpt>
      <trkpt lat="45.49627" lon="6.6216">
        <ele>2205.8000488281</ele>
        <time>2012-02-25T09:09:29.000Z</time>
      </trkpt>
      <trkpt lat="45.49624" lon="6.62165">
        <ele>2206.6000976562</ele>
        <time>2012-02-25T09:09:35.000Z</time>
      </trkpt>
      <trkpt lat="45.49622" lon="6.6217">
        <ele>2208</ele>
        <time>2012-02-25T09:09:42.000Z</time>
      </trkpt>
      <trkpt lat="45.49618" lon="6.62175">
        <ele>2209.1999511719</ele>
        <time>2012-02-25T09:09:48.000Z</time>
      </trkpt>
      <trkpt lat="45.49616" lon="6.62178">
        <ele>2210</ele>
        <time>2012-02-25T09:09:53.000Z</time>
      </trkpt>
      <trkpt lat="45.49614" lon="6.62183">
        <ele>2211.1999511719</ele>
        <time>2012-02-25T09:09:59.000Z</time>
      </trkpt>
      <trkpt lat="45.49612" lon="6.62186">
        <ele>2211.8000488281</ele>
        <time>2012-02-25T09:10:03.000Z</time>
      </trkpt>
      <trkpt lat="45.49609" lon="6.6219">
        <ele>2212.6000976562</ele>
        <time>2012-02-25T09:10:10.000Z</time>
      </trkpt>
      <trkpt lat="45.49608" lon="6.62192">
        <ele>2213.1999511719</ele>
        <time>2012-02-25T09:10:15.000Z</time>
      </trkpt>
      <trkpt lat="45.49608" lon="6.62191">
        <ele>2213</ele>
        <time>2012-02-25T09:10:40.000Z</time>
      </trkpt>
      <trkpt lat="45.49606" lon="6.62195">
        <ele>2214</ele>
        <time>2012-02-25T09:10:45.000Z</time>
      </trkpt>
      <trkpt lat="45.49604" lon="6.622">
        <ele>2215.1999511719</ele>
        <time>2012-02-25T09:10:51.000Z</time>
      </trkpt>
      <trkpt lat="45.49602" lon="6.62205">
        <ele>2216.6000976562</ele>
        <time>2012-02-25T09:10:57.000Z</time>
      </trkpt>
      <trkpt lat="45.496" lon="6.62209">
        <ele>2217.3999023438</ele>
        <time>2012-02-25T09:11:02.000Z</time>
      </trkpt>
      <trkpt lat="45.49597" lon="6.62212">
        <ele>2218</ele>
        <time>2012-02-25T09:11:07.000Z</time>
      </trkpt>
      <trkpt lat="45.49594" lon="6.62216">
        <ele>2218.6000976562</ele>
        <time>2012-02-25T09:11:13.000Z</time>
      </trkpt>
      <trkpt lat="45.49592" lon="6.62221">
        <ele>2219.8000488281</ele>
        <time>2012-02-25T09:11:19.000Z</time>
      </trkpt>
      <trkpt lat="45.4959" lon="6.62225">
        <ele>2220.8000488281</ele>
        <time>2012-02-25T09:11:24.000Z</time>
      </trkpt>
      <trkpt lat="45.49587" lon="6.62231">
        <ele>2222.1999511719</ele>
        <time>2012-02-25T09:11:31.000Z</time>
      </trkpt>
      <trkpt lat="45.49583" lon="6.62236">
        <ele>2223.1999511719</ele>
        <time>2012-02-25T09:11:38.000Z</time>
      </trkpt>
      <trkpt lat="45.49581" lon="6.62241">
        <ele>2224.8000488281</ele>
        <time>2012-02-25T09:11:45.000Z</time>
      </trkpt>
      <trkpt lat="45.49579" lon="6.62245">
        <ele>2225.8000488281</ele>
        <time>2012-02-25T09:12:02.000Z</time>
      </trkpt>
      <trkpt lat="45.49579" lon="6.62249">
        <ele>2227.1999511719</ele>
        <time>2012-02-25T09:12:08.000Z</time>
      </trkpt>
      <trkpt lat="45.49581" lon="6.62254">
        <ele>2228.1999511719</ele>
        <time>2012-02-25T09:12:16.000Z</time>
      </trkpt>
      <trkpt lat="45.49584" lon="6.62257">
        <ele>2229</ele>
        <time>2012-02-25T09:12:23.000Z</time>
      </trkpt>
      <trkpt lat="45.49586" lon="6.6226">
        <ele>2229.8000488281</ele>
        <time>2012-02-25T09:12:29.000Z</time>
      </trkpt>
      <trkpt lat="45.49587" lon="6.62265">
        <ele>2230.6000976562</ele>
        <time>2012-02-25T09:12:35.000Z</time>
      </trkpt>
      <trkpt lat="45.49584" lon="6.62272">
        <ele>2230.6000976562</ele>
        <time>2012-02-25T09:12:43.000Z</time>
      </trkpt>
      <trkpt lat="45.4958" lon="6.62278">
        <ele>2230.8000488281</ele>
        <time>2012-02-25T09:12:50.000Z</time>
      </trkpt>
      <trkpt lat="45.49577" lon="6.62284">
        <ele>2231.1999511719</ele>
        <time>2012-02-25T09:12:58.000Z</time>
      </trkpt>
      <trkpt lat="45.49577" lon="6.62284">
        <ele>2231.1999511719</ele>
        <time>2012-02-25T09:13:07.000Z</time>
      </trkpt>
      <trkpt lat="45.49577" lon="6.62291">
        <ele>2231.8000488281</ele>
        <time>2012-02-25T09:13:29.000Z</time>
      </trkpt>
      <trkpt lat="45.49576" lon="6.62299">
        <ele>2232.3999023438</ele>
        <time>2012-02-25T09:13:36.000Z</time>
      </trkpt>
      <trkpt lat="45.49574" lon="6.62305">
        <ele>2233</ele>
        <time>2012-02-25T09:13:43.000Z</time>
      </trkpt>
      <trkpt lat="45.49572" lon="6.6231">
        <ele>2233.1999511719</ele>
        <time>2012-02-25T09:13:48.000Z</time>
      </trkpt>
      <trkpt lat="45.4957" lon="6.62315">
        <ele>2233.3999023438</ele>
        <time>2012-02-25T09:13:54.000Z</time>
      </trkpt>
      <trkpt lat="45.49571" lon="6.62322">
        <ele>2234.3999023438</ele>
        <time>2012-02-25T09:14:00.000Z</time>
      </trkpt>
      <trkpt lat="45.49574" lon="6.62331">
        <ele>2235.6000976562</ele>
        <time>2012-02-25T09:14:07.000Z</time>
      </trkpt>
      <trkpt lat="45.49576" lon="6.62335">
        <ele>2236</ele>
        <time>2012-02-25T09:14:14.000Z</time>
      </trkpt>
      <trkpt lat="45.49579" lon="6.62341">
        <ele>2236.6000976562</ele>
        <time>2012-02-25T09:15:03.000Z</time>
      </trkpt>
      <trkpt lat="45.49585" lon="6.62349">
        <ele>2238</ele>
        <time>2012-02-25T09:15:12.000Z</time>
      </trkpt>
      <trkpt lat="45.4959" lon="6.62355">
        <ele>2239.1999511719</ele>
        <time>2012-02-25T09:15:18.000Z</time>
      </trkpt>
      <trkpt lat="45.49594" lon="6.62364">
        <ele>2240.1999511719</ele>
        <time>2012-02-25T09:15:24.000Z</time>
      </trkpt>
      <trkpt lat="45.49594" lon="6.62373">
        <ele>2240.3999023438</ele>
        <time>2012-02-25T09:15:28.000Z</time>
      </trkpt>
      <trkpt lat="45.49593" lon="6.6238">
        <ele>2240.6000976562</ele>
        <time>2012-02-25T09:15:33.000Z</time>
      </trkpt>
      <trkpt lat="45.49593" lon="6.62389">
        <ele>2240.8000488281</ele>
        <time>2012-02-25T09:15:40.000Z</time>
      </trkpt>
      <trkpt lat="45.49595" lon="6.62399">
        <ele>2241.1999511719</ele>
        <time>2012-02-25T09:15:48.000Z</time>
      </trkpt>
      <trkpt lat="45.49595" lon="6.62405">
        <ele>2241.3999023438</ele>
        <time>2012-02-25T09:15:54.000Z</time>
      </trkpt>
      <trkpt lat="45.49595" lon="6.62414">
        <ele>2241.6000976562</ele>
        <time>2012-02-25T09:16:01.000Z</time>
      </trkpt>
      <trkpt lat="45.49595" lon="6.62423">
        <ele>2242</ele>
        <time>2012-02-25T09:16:08.000Z</time>
      </trkpt>
      <trkpt lat="45.49594" lon="6.62432">
        <ele>2242.3999023438</ele>
        <time>2012-02-25T09:16:15.000Z</time>
      </trkpt>
      <trkpt lat="45.49593" lon="6.62443">
        <ele>2243.1999511719</ele>
        <time>2012-02-25T09:16:23.000Z</time>
      </trkpt>
      <trkpt lat="45.49595" lon="6.62451">
        <ele>2243.8000488281</ele>
        <time>2012-02-25T09:16:30.000Z</time>
      </trkpt>
      <trkpt lat="45.49596" lon="6.62464">
        <ele>2244.8000488281</ele>
        <time>2012-02-25T09:16:39.000Z</time>
      </trkpt>
      <trkpt lat="45.49595" lon="6.62472">
        <ele>2245.3999023438</ele>
        <time>2012-02-25T09:16:44.000Z</time>
      </trkpt>
      <trkpt lat="45.49597" lon="6.62482">
        <ele>2246.1999511719</ele>
        <time>2012-02-25T09:16:50.000Z</time>
      </trkpt>
      <trkpt lat="45.496" lon="6.62492">
        <ele>2247.1999511719</ele>
        <time>2012-02-25T09:16:57.000Z</time>
      </trkpt>
      <trkpt lat="45.49602" lon="6.62505">
        <ele>2248.3999023438</ele>
        <time>2012-02-25T09:17:06.000Z</time>
      </trkpt>
      <trkpt lat="45.49602" lon="6.62507">
        <ele>2248.6000976562</ele>
        <time>2012-02-25T09:17:07.000Z</time>
      </trkpt>
      <trkpt lat="45.496" lon="6.62515">
        <ele>2249.3999023438</ele>
        <time>2012-02-25T09:17:13.000Z</time>
      </trkpt>
      <trkpt lat="45.49599" lon="6.62524">
        <ele>2250.1999511719</ele>
        <time>2012-02-25T09:17:19.000Z</time>
      </trkpt>
      <trkpt lat="45.49599" lon="6.62531">
        <ele>2251</ele>
        <time>2012-02-25T09:17:24.000Z</time>
      </trkpt>
      <trkpt lat="45.49598" lon="6.62538">
        <ele>2251.8000488281</ele>
        <time>2012-02-25T09:17:31.000Z</time>
      </trkpt>
      <trkpt lat="45.49596" lon="6.62545">
        <ele>2252.3999023438</ele>
        <time>2012-02-25T09:17:37.000Z</time>
      </trkpt>
      <trkpt lat="45.49595" lon="6.62551">
        <ele>2253</ele>
        <time>2012-02-25T09:17:44.000Z</time>
      </trkpt>
      <trkpt lat="45.49594" lon="6.62555">
        <ele>2253.3999023438</ele>
        <time>2012-02-25T09:17:50.000Z</time>
      </trkpt>
      <trkpt lat="45.49593" lon="6.6256">
        <ele>2253.8000488281</ele>
        <time>2012-02-25T09:18:09.000Z</time>
      </trkpt>
      <trkpt lat="45.49592" lon="6.62567">
        <ele>2254.6000976562</ele>
        <time>2012-02-25T09:18:16.000Z</time>
      </trkpt>
      <trkpt lat="45.49591" lon="6.62575">
        <ele>2255.3999023438</ele>
        <time>2012-02-25T09:18:24.000Z</time>
      </trkpt>
      <trkpt lat="45.4959" lon="6.62583">
        <ele>2256.3999023438</ele>
        <time>2012-02-25T09:18:31.000Z</time>
      </trkpt>
      <trkpt lat="45.4959" lon="6.62591">
        <ele>2257.3999023438</ele>
        <time>2012-02-25T09:18:39.000Z</time>
      </trkpt>
      <trkpt lat="45.49588" lon="6.62599">
        <ele>2258.3999023438</ele>
        <time>2012-02-25T09:18:46.000Z</time>
      </trkpt>
      <trkpt lat="45.49586" lon="6.62608">
        <ele>2259.3999023438</ele>
        <time>2012-02-25T09:18:54.000Z</time>
      </trkpt>
      <trkpt lat="45.49584" lon="6.62615">
        <ele>2260.1999511719</ele>
        <time>2012-02-25T09:19:00.000Z</time>
      </trkpt>
      <trkpt lat="45.49581" lon="6.62622">
        <ele>2261.1999511719</ele>
        <time>2012-02-25T09:19:06.000Z</time>
      </trkpt>
      <trkpt lat="45.49579" lon="6.62629">
        <ele>2262.1999511719</ele>
        <time>2012-02-25T09:19:14.000Z</time>
      </trkpt>
      <trkpt lat="45.49577" lon="6.62636">
        <ele>2263.1999511719</ele>
        <time>2012-02-25T09:19:22.000Z</time>
      </trkpt>
      <trkpt lat="45.49575" lon="6.62642">
        <ele>2264.1999511719</ele>
        <time>2012-02-25T09:19:29.000Z</time>
      </trkpt>
      <trkpt lat="45.49572" lon="6.62647">
        <ele>2265</ele>
        <time>2012-02-25T09:19:35.000Z</time>
      </trkpt>
      <trkpt lat="45.49572" lon="6.62647">
        <ele>2265</ele>
        <time>2012-02-25T09:19:40.000Z</time>
      </trkpt>
      <trkpt lat="45.4957" lon="6.62649">
        <ele>2265.6000976562</ele>
        <time>2012-02-25T09:19:54.000Z</time>
      </trkpt>
      <trkpt lat="45.49567" lon="6.62653">
        <ele>2266.1999511719</ele>
        <time>2012-02-25T09:19:58.000Z</time>
      </trkpt>
      <trkpt lat="45.49564" lon="6.62659">
        <ele>2267.3999023438</ele>
        <time>2012-02-25T09:20:03.000Z</time>
      </trkpt>
      <trkpt lat="45.49563" lon="6.62664">
        <ele>2268</ele>
        <time>2012-02-25T09:20:07.000Z</time>
      </trkpt>
      <trkpt lat="45.49559" lon="6.62673">
        <ele>2269.8000488281</ele>
        <time>2012-02-25T09:20:14.000Z</time>
      </trkpt>
      <trkpt lat="45.49557" lon="6.62682">
        <ele>2271.6000976562</ele>
        <time>2012-02-25T09:20:19.000Z</time>
      </trkpt>
      <trkpt lat="45.49556" lon="6.62689">
        <ele>2273</ele>
        <time>2012-02-25T09:20:25.000Z</time>
      </trkpt>
      <trkpt lat="45.49556" lon="6.62694">
        <ele>2273.8000488281</ele>
        <time>2012-02-25T09:20:29.000Z</time>
      </trkpt>
      <trkpt lat="45.49556" lon="6.627">
        <ele>2275</ele>
        <time>2012-02-25T09:20:36.000Z</time>
      </trkpt>
      <trkpt lat="45.49556" lon="6.62704">
        <ele>2275.8000488281</ele>
        <time>2012-02-25T09:20:41.000Z</time>
      </trkpt>
      <trkpt lat="45.49555" lon="6.62709">
        <ele>2276.6000976562</ele>
        <time>2012-02-25T09:20:46.000Z</time>
      </trkpt>
      <trkpt lat="45.49556" lon="6.6271">
        <ele>2276.8000488281</ele>
        <time>2012-02-25T09:20:54.000Z</time>
      </trkpt>
      <trkpt lat="45.49553" lon="6.6271">
        <ele>2277</ele>
        <time>2012-02-25T09:21:17.000Z</time>
      </trkpt>
      <trkpt lat="45.49548" lon="6.62713">
        <ele>2277.8000488281</ele>
        <time>2012-02-25T09:21:24.000Z</time>
      </trkpt>
      <trkpt lat="45.49545" lon="6.62713">
        <ele>2278.1999511719</ele>
        <time>2012-02-25T09:21:30.000Z</time>
      </trkpt>
      <trkpt lat="45.49545" lon="6.62715">
        <ele>2278.3999023438</ele>
        <time>2012-02-25T09:21:35.000Z</time>
      </trkpt>
      <trkpt lat="45.49546" lon="6.62721">
        <ele>2279.6000976562</ele>
        <time>2012-02-25T09:21:41.000Z</time>
      </trkpt>
      <trkpt lat="45.49547" lon="6.62729">
        <ele>2280.8000488281</ele>
        <time>2012-02-25T09:21:48.000Z</time>
      </trkpt>
      <trkpt lat="45.49547" lon="6.62734">
        <ele>2281.6000976562</ele>
        <time>2012-02-25T09:21:53.000Z</time>
      </trkpt>
      <trkpt lat="45.49547" lon="6.62735">
        <ele>2282</ele>
        <time>2012-02-25T09:21:59.000Z</time>
      </trkpt>
      <trkpt lat="45.49544" lon="6.62735">
        <ele>2282.1999511719</ele>
        <time>2012-02-25T09:22:16.000Z</time>
      </trkpt>
      <trkpt lat="45.4954" lon="6.62734">
        <ele>2282.1999511719</ele>
        <time>2012-02-25T09:22:22.000Z</time>
      </trkpt>
      <trkpt lat="45.49538" lon="6.62734">
        <ele>2282.3999023438</ele>
        <time>2012-02-25T09:22:27.000Z</time>
      </trkpt>
      <trkpt lat="45.49534" lon="6.62731">
        <ele>2282.1999511719</ele>
        <time>2012-02-25T09:22:34.000Z</time>
      </trkpt>
      <trkpt lat="45.4953" lon="6.62729">
        <ele>2282</ele>
        <time>2012-02-25T09:22:40.000Z</time>
      </trkpt>
      <trkpt lat="45.49527" lon="6.62727">
        <ele>2282</ele>
        <time>2012-02-25T09:22:44.000Z</time>
      </trkpt>
      <trkpt lat="45.49525" lon="6.62725">
        <ele>2281.8000488281</ele>
        <time>2012-02-25T09:22:49.000Z</time>
      </trkpt>
      <trkpt lat="45.49524" lon="6.62725">
        <ele>2281.8000488281</ele>
        <time>2012-02-25T09:22:57.000Z</time>
      </trkpt>
      <trkpt lat="45.49523" lon="6.62727">
        <ele>2282.1999511719</ele>
        <time>2012-02-25T09:23:16.000Z</time>
      </trkpt>
      <trkpt lat="45.49523" lon="6.62733">
        <ele>2283.3999023438</ele>
        <time>2012-02-25T09:23:23.000Z</time>
      </trkpt>
      <trkpt lat="45.49523" lon="6.62741">
        <ele>2284.6000976562</ele>
        <time>2012-02-25T09:23:31.000Z</time>
      </trkpt>
      <trkpt lat="45.49524" lon="6.62746">
        <ele>2285.6000976562</ele>
        <time>2012-02-25T09:23:37.000Z</time>
      </trkpt>
      <trkpt lat="45.49524" lon="6.62753">
        <ele>2286.8000488281</ele>
        <time>2012-02-25T09:23:44.000Z</time>
      </trkpt>
      <trkpt lat="45.49525" lon="6.62758">
        <ele>2288</ele>
        <time>2012-02-25T09:23:50.000Z</time>
      </trkpt>
      <trkpt lat="45.49526" lon="6.62764">
        <ele>2289</ele>
        <time>2012-02-25T09:23:56.000Z</time>
      </trkpt>
      <trkpt lat="45.49527" lon="6.62768">
        <ele>2290</ele>
        <time>2012-02-25T09:24:03.000Z</time>
      </trkpt>
      <trkpt lat="45.49525" lon="6.62769">
        <ele>2290.1999511719</ele>
        <time>2012-02-25T09:24:24.000Z</time>
      </trkpt>
      <trkpt lat="45.49521" lon="6.62768">
        <ele>2290.3999023438</ele>
        <time>2012-02-25T09:24:30.000Z</time>
      </trkpt>
      <trkpt lat="45.49518" lon="6.62767">
        <ele>2290.3999023438</ele>
        <time>2012-02-25T09:24:36.000Z</time>
      </trkpt>
      <trkpt lat="45.49517" lon="6.62767">
        <ele>2290.3999023438</ele>
        <time>2012-02-25T09:24:41.000Z</time>
      </trkpt>
      <trkpt lat="45.49516" lon="6.62774">
        <ele>2291.8000488281</ele>
        <time>2012-02-25T09:24:54.000Z</time>
      </trkpt>
      <trkpt lat="45.49515" lon="6.62779">
        <ele>2293</ele>
        <time>2012-02-25T09:24:59.000Z</time>
      </trkpt>
      <trkpt lat="45.49515" lon="6.62788">
        <ele>2294.8000488281</ele>
        <time>2012-02-25T09:25:08.000Z</time>
      </trkpt>
      <trkpt lat="45.49514" lon="6.62791">
        <ele>2295.3999023438</ele>
        <time>2012-02-25T09:25:13.000Z</time>
      </trkpt>
      <trkpt lat="45.4951" lon="6.6279">
        <ele>2295.3999023438</ele>
        <time>2012-02-25T09:25:18.000Z</time>
      </trkpt>
      <trkpt lat="45.49511" lon="6.6279">
        <ele>2295.3999023438</ele>
        <time>2012-02-25T09:25:28.000Z</time>
      </trkpt>
      <trkpt lat="45.49506" lon="6.6279">
        <ele>2295.3999023438</ele>
        <time>2012-02-25T09:25:51.000Z</time>
      </trkpt>
      <trkpt lat="45.49502" lon="6.62788">
        <ele>2295.1999511719</ele>
        <time>2012-02-25T09:25:58.000Z</time>
      </trkpt>
      <trkpt lat="45.49499" lon="6.62786">
        <ele>2295</ele>
        <time>2012-02-25T09:26:04.000Z</time>
      </trkpt>
      <trkpt lat="45.49498" lon="6.62791">
        <ele>2296</ele>
        <time>2012-02-25T09:26:11.000Z</time>
      </trkpt>
      <trkpt lat="45.49498" lon="6.62795">
        <ele>2296.8000488281</ele>
        <time>2012-02-25T09:26:16.000Z</time>
      </trkpt>
      <trkpt lat="45.49497" lon="6.62802">
        <ele>2298</ele>
        <time>2012-02-25T09:26:23.000Z</time>
      </trkpt>
      <trkpt lat="45.49496" lon="6.62808">
        <ele>2299.1999511719</ele>
        <time>2012-02-25T09:26:29.000Z</time>
      </trkpt>
      <trkpt lat="45.49497" lon="6.62814">
        <ele>2300.1999511719</ele>
        <time>2012-02-25T09:26:36.000Z</time>
      </trkpt>
      <trkpt lat="45.49499" lon="6.62819">
        <ele>2301.1999511719</ele>
        <time>2012-02-25T09:26:43.000Z</time>
      </trkpt>
      <trkpt lat="45.49503" lon="6.62826">
        <ele>2302.6000976562</ele>
        <time>2012-02-25T09:26:50.000Z</time>
      </trkpt>
      <trkpt lat="45.49505" lon="6.62834">
        <ele>2304.1999511719</ele>
        <time>2012-02-25T09:26:57.000Z</time>
      </trkpt>
      <trkpt lat="45.49507" lon="6.62843">
        <ele>2305.3999023438</ele>
        <time>2012-02-25T09:27:04.000Z</time>
      </trkpt>
      <trkpt lat="45.49507" lon="6.62849">
        <ele>2306.1999511719</ele>
        <time>2012-02-25T09:27:09.000Z</time>
      </trkpt>
      <trkpt lat="45.49509" lon="6.62857">
        <ele>2307.3999023438</ele>
        <time>2012-02-25T09:27:15.000Z</time>
      </trkpt>
      <trkpt lat="45.49512" lon="6.62864">
        <ele>2308.3999023438</ele>
        <time>2012-02-25T09:27:21.000Z</time>
      </trkpt>
      <trkpt lat="45.49516" lon="6.62871">
        <ele>2309.8000488281</ele>
        <time>2012-02-25T09:27:28.000Z</time>
      </trkpt>
      <trkpt lat="45.4952" lon="6.62877">
        <ele>2311</ele>
        <time>2012-02-25T09:27:35.000Z</time>
      </trkpt>
      <trkpt lat="45.49525" lon="6.62883">
        <ele>2312.3999023438</ele>
        <time>2012-02-25T09:27:43.000Z</time>
      </trkpt>
      <trkpt lat="45.49528" lon="6.62884">
        <ele>2312.8000488281</ele>
        <time>2012-02-25T09:27:50.000Z</time>
      </trkpt>
      <trkpt lat="45.49532" lon="6.6288">
        <ele>2312.6000976562</ele>
        <time>2012-02-25T09:28:11.000Z</time>
      </trkpt>
      <trkpt lat="45.49537" lon="6.62877">
        <ele>2312.3999023438</ele>
        <time>2012-02-25T09:28:19.000Z</time>
      </trkpt>
      <trkpt lat="45.49542" lon="6.62877">
        <ele>2313</ele>
        <time>2012-02-25T09:28:26.000Z</time>
      </trkpt>
      <trkpt lat="45.49546" lon="6.62882">
        <ele>2314.1999511719</ele>
        <time>2012-02-25T09:28:32.000Z</time>
      </trkpt>
      <trkpt lat="45.49548" lon="6.62887">
        <ele>2315.3999023438</ele>
        <time>2012-02-25T09:28:38.000Z</time>
      </trkpt>
      <trkpt lat="45.49549" lon="6.62893">
        <ele>2316.8000488281</ele>
        <time>2012-02-25T09:28:46.000Z</time>
      </trkpt>
      <trkpt lat="45.49549" lon="6.62897">
        <ele>2317.6000976562</ele>
        <time>2012-02-25T09:28:51.000Z</time>
      </trkpt>
      <trkpt lat="45.49549" lon="6.629">
        <ele>2318.1999511719</ele>
        <time>2012-02-25T09:28:58.000Z</time>
      </trkpt>
      <trkpt lat="45.4955" lon="6.62902">
        <ele>2318.8000488281</ele>
        <time>2012-02-25T09:29:41.000Z</time>
      </trkpt>
      <trkpt lat="45.49553" lon="6.62909">
        <ele>2320.8000488281</ele>
        <time>2012-02-25T09:29:50.000Z</time>
      </trkpt>
      <trkpt lat="45.49556" lon="6.62916">
        <ele>2322.3999023438</ele>
        <time>2012-02-25T09:29:57.000Z</time>
      </trkpt>
      <trkpt lat="45.49558" lon="6.62921">
        <ele>2323.6000976562</ele>
        <time>2012-02-25T09:30:03.000Z</time>
      </trkpt>
      <trkpt lat="45.4956" lon="6.62924">
        <ele>2324.6000976562</ele>
        <time>2012-02-25T09:30:09.000Z</time>
      </trkpt>
      <trkpt lat="45.49562" lon="6.62928">
        <ele>2325.3999023438</ele>
        <time>2012-02-25T09:30:13.000Z</time>
      </trkpt>
      <trkpt lat="45.49564" lon="6.62931">
        <ele>2326</ele>
        <time>2012-02-25T09:30:17.000Z</time>
      </trkpt>
      <trkpt lat="45.49568" lon="6.62937">
        <ele>2327.3999023438</ele>
        <time>2012-02-25T09:30:26.000Z</time>
      </trkpt>
      <trkpt lat="45.49571" lon="6.62939">
        <ele>2328.1999511719</ele>
        <time>2012-02-25T09:30:33.000Z</time>
      </trkpt>
      <trkpt lat="45.49574" lon="6.62939">
        <ele>2328.6000976562</ele>
        <time>2012-02-25T09:30:56.000Z</time>
      </trkpt>
      <trkpt lat="45.49577" lon="6.62941">
        <ele>2329.3999023438</ele>
        <time>2012-02-25T09:31:02.000Z</time>
      </trkpt>
      <trkpt lat="45.49582" lon="6.62946">
        <ele>2330.6000976562</ele>
        <time>2012-02-25T09:31:10.000Z</time>
      </trkpt>
      <trkpt lat="45.49585" lon="6.62951">
        <ele>2332</ele>
        <time>2012-02-25T09:31:17.000Z</time>
      </trkpt>
      <trkpt lat="45.49589" lon="6.62956">
        <ele>2333.3999023438</ele>
        <time>2012-02-25T09:31:25.000Z</time>
      </trkpt>
      <trkpt lat="45.4959" lon="6.62961">
        <ele>2334.3999023438</ele>
        <time>2012-02-25T09:31:32.000Z</time>
      </trkpt>
      <trkpt lat="45.49591" lon="6.62962">
        <ele>2334.6000976562</ele>
        <time>2012-02-25T09:31:37.000Z</time>
      </trkpt>
      <trkpt lat="45.49592" lon="6.62967">
        <ele>2335.6000976562</ele>
        <time>2012-02-25T09:31:55.000Z</time>
      </trkpt>
      <trkpt lat="45.49595" lon="6.62973">
        <ele>2337.3999023438</ele>
        <time>2012-02-25T09:32:02.000Z</time>
      </trkpt>
      <trkpt lat="45.49597" lon="6.6298">
        <ele>2338.6000976562</ele>
        <time>2012-02-25T09:32:08.000Z</time>
      </trkpt>
      <trkpt lat="45.496" lon="6.62989">
        <ele>2340.6000976562</ele>
        <time>2012-02-25T09:32:17.000Z</time>
      </trkpt>
      <trkpt lat="45.49601" lon="6.62995">
        <ele>2341.6000976562</ele>
        <time>2012-02-25T09:32:23.000Z</time>
      </trkpt>
      <trkpt lat="45.49603" lon="6.63">
        <ele>2343</ele>
        <time>2012-02-25T09:32:30.000Z</time>
      </trkpt>
      <trkpt lat="45.49603" lon="6.63007">
        <ele>2344.1999511719</ele>
        <time>2012-02-25T09:32:36.000Z</time>
      </trkpt>
      <trkpt lat="45.49604" lon="6.63014">
        <ele>2345.6000976562</ele>
        <time>2012-02-25T09:32:43.000Z</time>
      </trkpt>
      <trkpt lat="45.49604" lon="6.63023">
        <ele>2347.3999023438</ele>
        <time>2012-02-25T09:32:52.000Z</time>
      </trkpt>
      <trkpt lat="45.49604" lon="6.63031">
        <ele>2349</ele>
        <time>2012-02-25T09:33:00.000Z</time>
      </trkpt>
      <trkpt lat="45.49604" lon="6.6304">
        <ele>2350.8000488281</ele>
        <time>2012-02-25T09:33:08.000Z</time>
      </trkpt>
      <trkpt lat="45.49605" lon="6.63048">
        <ele>2352.3999023438</ele>
        <time>2012-02-25T09:33:16.000Z</time>
      </trkpt>
      <trkpt lat="45.49605" lon="6.63056">
        <ele>2354</ele>
        <time>2012-02-25T09:33:23.000Z</time>
      </trkpt>
      <trkpt lat="45.49605" lon="6.63056">
        <ele>2353.8000488281</ele>
        <time>2012-02-25T09:33:32.000Z</time>
      </trkpt>
      <trkpt lat="45.49604" lon="6.6306">
        <ele>2354.3999023438</ele>
        <time>2012-02-25T09:33:46.000Z</time>
      </trkpt>
      <trkpt lat="45.49604" lon="6.6307">
        <ele>2356</ele>
        <time>2012-02-25T09:33:53.000Z</time>
      </trkpt>
      <trkpt lat="45.49603" lon="6.63079">
        <ele>2357.6000976562</ele>
        <time>2012-02-25T09:34:00.000Z</time>
      </trkpt>
      <trkpt lat="45.49602" lon="6.63086">
        <ele>2358.3999023438</ele>
        <time>2012-02-25T09:34:06.000Z</time>
      </trkpt>
      <trkpt lat="45.49601" lon="6.63088">
        <ele>2358.6000976562</ele>
        <time>2012-02-25T09:34:07.000Z</time>
      </trkpt>
      <trkpt lat="45.49601" lon="6.63089">
        <ele>2358.6000976562</ele>
        <time>2012-02-25T09:34:08.000Z</time>
      </trkpt>
      <trkpt lat="45.496" lon="6.63094">
        <ele>2359</ele>
        <time>2012-02-25T09:34:13.000Z</time>
      </trkpt>
      <trkpt lat="45.49599" lon="6.63104">
        <ele>2359.8000488281</ele>
        <time>2012-02-25T09:34:22.000Z</time>
      </trkpt>
      <trkpt lat="45.49598" lon="6.63105">
        <ele>2360</ele>
        <time>2012-02-25T09:34:28.000Z</time>
      </trkpt>
      <trkpt lat="45.49597" lon="6.63112">
        <ele>2360.3999023438</ele>
        <time>2012-02-25T09:34:47.000Z</time>
      </trkpt>
      <trkpt lat="45.49596" lon="6.63119">
        <ele>2361</ele>
        <time>2012-02-25T09:34:53.000Z</time>
      </trkpt>
      <trkpt lat="45.49595" lon="6.63126">
        <ele>2361.6000976562</ele>
        <time>2012-02-25T09:35:00.000Z</time>
      </trkpt>
      <trkpt lat="45.49594" lon="6.63134">
        <ele>2362.1999511719</ele>
        <time>2012-02-25T09:35:07.000Z</time>
      </trkpt>
      <trkpt lat="45.49593" lon="6.63141">
        <ele>2362.8000488281</ele>
        <time>2012-02-25T09:35:13.000Z</time>
      </trkpt>
      <trkpt lat="45.49591" lon="6.63148">
        <ele>2363.1999511719</ele>
        <time>2012-02-25T09:35:19.000Z</time>
      </trkpt>
      <trkpt lat="45.49589" lon="6.63156">
        <ele>2363.8000488281</ele>
        <time>2012-02-25T09:35:25.000Z</time>
      </trkpt>
      <trkpt lat="45.49588" lon="6.63163">
        <ele>2364.3999023438</ele>
        <time>2012-02-25T09:35:30.000Z</time>
      </trkpt>
      <trkpt lat="45.49586" lon="6.6317">
        <ele>2365</ele>
        <time>2012-02-25T09:35:35.000Z</time>
      </trkpt>
      <trkpt lat="45.49583" lon="6.63179">
        <ele>2365.3999023438</ele>
        <time>2012-02-25T09:35:41.000Z</time>
      </trkpt>
      <trkpt lat="45.49581" lon="6.63187">
        <ele>2366.3999023438</ele>
        <time>2012-02-25T09:35:46.000Z</time>
      </trkpt>
      <trkpt lat="45.49579" lon="6.63195">
        <ele>2367.3999023438</ele>
        <time>2012-02-25T09:35:53.000Z</time>
      </trkpt>
      <trkpt lat="45.49578" lon="6.63202">
        <ele>2368.3999023438</ele>
        <time>2012-02-25T09:35:59.000Z</time>
      </trkpt>
      <trkpt lat="45.49578" lon="6.63204">
        <ele>2368.3999023438</ele>
        <time>2012-02-25T09:36:06.000Z</time>
      </trkpt>
      <trkpt lat="45.49575" lon="6.6321">
        <ele>2369.1999511719</ele>
        <time>2012-02-25T09:36:41.000Z</time>
      </trkpt>
      <trkpt lat="45.49571" lon="6.63216">
        <ele>2370</ele>
        <time>2012-02-25T09:36:47.000Z</time>
      </trkpt>
      <trkpt lat="45.49565" lon="6.63223">
        <ele>2370.8000488281</ele>
        <time>2012-02-25T09:36:53.000Z</time>
      </trkpt>
      <trkpt lat="45.4956" lon="6.63229">
        <ele>2371.6000976562</ele>
        <time>2012-02-25T09:36:59.000Z</time>
      </trkpt>
      <trkpt lat="45.49557" lon="6.63233">
        <ele>2372</ele>
        <time>2012-02-25T09:37:03.000Z</time>
      </trkpt>
      <trkpt lat="45.49553" lon="6.63237">
        <ele>2372.3999023438</ele>
        <time>2012-02-25T09:37:07.000Z</time>
      </trkpt>
      <trkpt lat="45.49547" lon="6.63243">
        <ele>2373.1999511719</ele>
        <time>2012-02-25T09:37:14.000Z</time>
      </trkpt>
      <trkpt lat="45.49541" lon="6.6325">
        <ele>2374</ele>
        <time>2012-02-25T09:37:21.000Z</time>
      </trkpt>
      <trkpt lat="45.49537" lon="6.63255">
        <ele>2375.1999511719</ele>
        <time>2012-02-25T09:37:27.000Z</time>
      </trkpt>
      <trkpt lat="45.49535" lon="6.63259">
        <ele>2376</ele>
        <time>2012-02-25T09:37:31.000Z</time>
      </trkpt>
      <trkpt lat="45.4953" lon="6.63266">
        <ele>2377.3999023438</ele>
        <time>2012-02-25T09:37:38.000Z</time>
      </trkpt>
      <trkpt lat="45.4953" lon="6.63267">
        <ele>2377.6000976562</ele>
        <time>2012-02-25T09:37:39.000Z</time>
      </trkpt>
      <trkpt lat="45.49529" lon="6.63268">
        <ele>2377.8000488281</ele>
        <time>2012-02-25T09:37:40.000Z</time>
      </trkpt>
      <trkpt lat="45.49528" lon="6.63271">
        <ele>2378.3999023438</ele>
        <time>2012-02-25T09:37:43.000Z</time>
      </trkpt>
      <trkpt lat="45.49526" lon="6.63273">
        <ele>2378.6000976562</ele>
        <time>2012-02-25T09:37:45.000Z</time>
      </trkpt>
      <trkpt lat="45.49522" lon="6.63278">
        <ele>2379.6000976562</ele>
        <time>2012-02-25T09:37:52.000Z</time>
      </trkpt>
      <trkpt lat="45.49522" lon="6.63279">
        <ele>2379.6000976562</ele>
        <time>2012-02-25T09:38:00.000Z</time>
      </trkpt>
      <trkpt lat="45.49519" lon="6.63282">
        <ele>2380</ele>
        <time>2012-02-25T09:38:09.000Z</time>
      </trkpt>
      <trkpt lat="45.49515" lon="6.63286">
        <ele>2380.6000976562</ele>
        <time>2012-02-25T09:38:16.000Z</time>
      </trkpt>
      <trkpt lat="45.49512" lon="6.63289">
        <ele>2380.8000488281</ele>
        <time>2012-02-25T09:38:22.000Z</time>
      </trkpt>
      <trkpt lat="45.49509" lon="6.63292">
        <ele>2381.1999511719</ele>
        <time>2012-02-25T09:38:28.000Z</time>
      </trkpt>
      <trkpt lat="45.49504" lon="6.63295">
        <ele>2381.3999023438</ele>
        <time>2012-02-25T09:38:35.000Z</time>
      </trkpt>
      <trkpt lat="45.495" lon="6.63299">
        <ele>2381.8000488281</ele>
        <time>2012-02-25T09:38:42.000Z</time>
      </trkpt>
      <trkpt lat="45.49496" lon="6.633">
        <ele>2382.3999023438</ele>
        <time>2012-02-25T09:39:09.000Z</time>
      </trkpt>
      <trkpt lat="45.49492" lon="6.63304">
        <ele>2383.3999023438</ele>
        <time>2012-02-25T09:39:16.000Z</time>
      </trkpt>
      <trkpt lat="45.49489" lon="6.63309">
        <ele>2384.3999023438</ele>
        <time>2012-02-25T09:39:22.000Z</time>
      </trkpt>
      <trkpt lat="45.49485" lon="6.63314">
        <ele>2385.6000976562</ele>
        <time>2012-02-25T09:39:29.000Z</time>
      </trkpt>
      <trkpt lat="45.49482" lon="6.63318">
        <ele>2386.3999023438</ele>
        <time>2012-02-25T09:39:35.000Z</time>
      </trkpt>
      <trkpt lat="45.4948" lon="6.63323">
        <ele>2387.1999511719</ele>
        <time>2012-02-25T09:39:41.000Z</time>
      </trkpt>
      <trkpt lat="45.49478" lon="6.63326">
        <ele>2387.3999023438</ele>
        <time>2012-02-25T09:39:47.000Z</time>
      </trkpt>
      <trkpt lat="45.49476" lon="6.6333">
        <ele>2388.1999511719</ele>
        <time>2012-02-25T09:40:00.000Z</time>
      </trkpt>
      <trkpt lat="45.49469" lon="6.63338">
        <ele>2389.8000488281</ele>
        <time>2012-02-25T09:40:09.000Z</time>
      </trkpt>
      <trkpt lat="45.49462" lon="6.63346">
        <ele>2391.8000488281</ele>
        <time>2012-02-25T09:40:17.000Z</time>
      </trkpt>
      <trkpt lat="45.49456" lon="6.63353">
        <ele>2393.1999511719</ele>
        <time>2012-02-25T09:40:24.000Z</time>
      </trkpt>
      <trkpt lat="45.49449" lon="6.63357">
        <ele>2394.1999511719</ele>
        <time>2012-02-25T09:40:32.000Z</time>
      </trkpt>
      <trkpt lat="45.49446" lon="6.63358">
        <ele>2394.6000976562</ele>
        <time>2012-02-25T09:40:36.000Z</time>
      </trkpt>
      <trkpt lat="45.4944" lon="6.63361">
        <ele>2395.1999511719</ele>
        <time>2012-02-25T09:40:45.000Z</time>
      </trkpt>
      <trkpt lat="45.49433" lon="6.63364">
        <ele>2395.8000488281</ele>
        <time>2012-02-25T09:40:54.000Z</time>
      </trkpt>
      <trkpt lat="45.49429" lon="6.63366">
        <ele>2396.3999023438</ele>
        <time>2012-02-25T09:41:02.000Z</time>
      </trkpt>
      <trkpt lat="45.49426" lon="6.63367">
        <ele>2396.6000976562</ele>
        <time>2012-02-25T09:41:09.000Z</time>
      </trkpt>
      <trkpt lat="45.49426" lon="6.63367">
        <ele>2396.6000976562</ele>
        <time>2012-02-25T09:41:19.000Z</time>
      </trkpt>
      <trkpt lat="45.49423" lon="6.63363">
        <ele>2396.1999511719</ele>
        <time>2012-02-25T09:41:39.000Z</time>
      </trkpt>
      <trkpt lat="45.49418" lon="6.63359">
        <ele>2395.6000976562</ele>
        <time>2012-02-25T09:41:47.000Z</time>
      </trkpt>
      <trkpt lat="45.49416" lon="6.6336">
        <ele>2395.8000488281</ele>
        <time>2012-02-25T09:41:53.000Z</time>
      </trkpt>
      <trkpt lat="45.49414" lon="6.63365">
        <ele>2396.3999023438</ele>
        <time>2012-02-25T09:41:59.000Z</time>
      </trkpt>
      <trkpt lat="45.49413" lon="6.63371">
        <ele>2397.1999511719</ele>
        <time>2012-02-25T09:42:06.000Z</time>
      </trkpt>
      <trkpt lat="45.49412" lon="6.63376">
        <ele>2398</ele>
        <time>2012-02-25T09:42:11.000Z</time>
      </trkpt>
      <trkpt lat="45.4941" lon="6.63379">
        <ele>2398.1999511719</ele>
        <time>2012-02-25T09:42:17.000Z</time>
      </trkpt>
      <trkpt lat="45.49408" lon="6.63378">
        <ele>2397.8000488281</ele>
        <time>2012-02-25T09:42:22.000Z</time>
      </trkpt>
      <trkpt lat="45.49407" lon="6.63378">
        <ele>2398</ele>
        <time>2012-02-25T09:42:27.000Z</time>
      </trkpt>
      <trkpt lat="45.49406" lon="6.6338">
        <ele>2398</ele>
        <time>2012-02-25T09:42:50.000Z</time>
      </trkpt>
      <trkpt lat="45.49405" lon="6.63384">
        <ele>2398.3999023438</ele>
        <time>2012-02-25T09:42:55.000Z</time>
      </trkpt>
      <trkpt lat="45.49404" lon="6.63388">
        <ele>2399</ele>
        <time>2012-02-25T09:43:01.000Z</time>
      </trkpt>
      <trkpt lat="45.49401" lon="6.63387">
        <ele>2398.6000976562</ele>
        <time>2012-02-25T09:43:07.000Z</time>
      </trkpt>
      <trkpt lat="45.49396" lon="6.63385">
        <ele>2398</ele>
        <time>2012-02-25T09:43:15.000Z</time>
      </trkpt>
      <trkpt lat="45.49395" lon="6.63384">
        <ele>2397.8000488281</ele>
        <time>2012-02-25T09:43:25.000Z</time>
      </trkpt>
      <trkpt lat="45.49395" lon="6.63387">
        <ele>2398.1999511719</ele>
        <time>2012-02-25T09:44:12.000Z</time>
      </trkpt>
      <trkpt lat="45.49397" lon="6.63393">
        <ele>2399</ele>
        <time>2012-02-25T09:44:18.000Z</time>
      </trkpt>
      <trkpt lat="45.49401" lon="6.634">
        <ele>2400.1999511719</ele>
        <time>2012-02-25T09:44:25.000Z</time>
      </trkpt>
      <trkpt lat="45.49404" lon="6.63406">
        <ele>2401.1999511719</ele>
        <time>2012-02-25T09:44:30.000Z</time>
      </trkpt>
      <trkpt lat="45.49408" lon="6.63412">
        <ele>2402.3999023438</ele>
        <time>2012-02-25T09:44:36.000Z</time>
      </trkpt>
      <trkpt lat="45.49411" lon="6.63418">
        <ele>2403.6000976562</ele>
        <time>2012-02-25T09:44:42.000Z</time>
      </trkpt>
      <trkpt lat="45.49413" lon="6.63424">
        <ele>2404.8000488281</ele>
        <time>2012-02-25T09:44:48.000Z</time>
      </trkpt>
      <trkpt lat="45.49416" lon="6.63429">
        <ele>2406.3999023438</ele>
        <time>2012-02-25T09:44:55.000Z</time>
      </trkpt>
      <trkpt lat="45.4942" lon="6.63433">
        <ele>2407.3999023438</ele>
        <time>2012-02-25T09:45:01.000Z</time>
      </trkpt>
      <trkpt lat="45.49423" lon="6.63439">
        <ele>2408.8000488281</ele>
        <time>2012-02-25T09:45:08.000Z</time>
      </trkpt>
      <trkpt lat="45.49425" lon="6.63443">
        <ele>2409.6000976562</ele>
        <time>2012-02-25T09:45:14.000Z</time>
      </trkpt>
      <trkpt lat="45.49427" lon="6.63444">
        <ele>2410.1999511719</ele>
        <time>2012-02-25T09:45:37.000Z</time>
      </trkpt>
      <trkpt lat="45.49431" lon="6.63447">
        <ele>2411.1999511719</ele>
        <time>2012-02-25T09:45:43.000Z</time>
      </trkpt>
      <trkpt lat="45.49435" lon="6.63451">
        <ele>2412.6000976562</ele>
        <time>2012-02-25T09:45:50.000Z</time>
      </trkpt>
      <trkpt lat="45.49439" lon="6.63455">
        <ele>2413.8000488281</ele>
        <time>2012-02-25T09:45:56.000Z</time>
      </trkpt>
      <trkpt lat="45.49443" lon="6.63457">
        <ele>2414.8000488281</ele>
        <time>2012-02-25T09:46:01.000Z</time>
      </trkpt>
      <trkpt lat="45.49444" lon="6.63462">
        <ele>2416.1999511719</ele>
        <time>2012-02-25T09:46:08.000Z</time>
      </trkpt>
      <trkpt lat="45.49442" lon="6.63466">
        <ele>2417</ele>
        <time>2012-02-25T09:46:14.000Z</time>
      </trkpt>
      <trkpt lat="45.49438" lon="6.63472">
        <ele>2418</ele>
        <time>2012-02-25T09:46:22.000Z</time>
      </trkpt>
      <trkpt lat="45.49437" lon="6.63475">
        <ele>2418.3999023438</ele>
        <time>2012-02-25T09:46:28.000Z</time>
      </trkpt>
      <trkpt lat="45.49435" lon="6.63478">
        <ele>2418.8000488281</ele>
        <time>2012-02-25T09:46:55.000Z</time>
      </trkpt>
      <trkpt lat="45.49434" lon="6.63484">
        <ele>2420</ele>
        <time>2012-02-25T09:47:01.000Z</time>
      </trkpt>
      <trkpt lat="45.49433" lon="6.6349">
        <ele>2421.1999511719</ele>
        <time>2012-02-25T09:47:07.000Z</time>
      </trkpt>
      <trkpt lat="45.49433" lon="6.63494">
        <ele>2422.1999511719</ele>
        <time>2012-02-25T09:47:12.000Z</time>
      </trkpt>
      <trkpt lat="45.49433" lon="6.635">
        <ele>2423.6000976562</ele>
        <time>2012-02-25T09:47:18.000Z</time>
      </trkpt>
      <trkpt lat="45.49432" lon="6.63505">
        <ele>2424.3999023438</ele>
        <time>2012-02-25T09:47:24.000Z</time>
      </trkpt>
      <trkpt lat="45.49432" lon="6.63509">
        <ele>2425.1999511719</ele>
        <time>2012-02-25T09:47:41.000Z</time>
      </trkpt>
      <trkpt lat="45.49431" lon="6.63515">
        <ele>2426.6000976562</ele>
        <time>2012-02-25T09:47:48.000Z</time>
      </trkpt>
      <trkpt lat="45.49432" lon="6.63522">
        <ele>2428.1999511719</ele>
        <time>2012-02-25T09:47:55.000Z</time>
      </trkpt>
      <trkpt lat="45.49433" lon="6.63528">
        <ele>2430</ele>
        <time>2012-02-25T09:48:01.000Z</time>
      </trkpt>
      <trkpt lat="45.49433" lon="6.63532">
        <ele>2431</ele>
        <time>2012-02-25T09:48:05.000Z</time>
      </trkpt>
      <trkpt lat="45.49433" lon="6.63537">
        <ele>2432.3999023438</ele>
        <time>2012-02-25T09:48:11.000Z</time>
      </trkpt>
      <trkpt lat="45.49433" lon="6.63538">
        <ele>2432.3999023438</ele>
        <time>2012-02-25T09:48:18.000Z</time>
      </trkpt>
      <trkpt lat="45.49433" lon="6.63541">
        <ele>2433</ele>
        <time>2012-02-25T09:48:36.000Z</time>
      </trkpt>
      <trkpt lat="45.49434" lon="6.63546">
        <ele>2434.6000976562</ele>
        <time>2012-02-25T09:48:42.000Z</time>
      </trkpt>
      <trkpt lat="45.49435" lon="6.63553">
        <ele>2436.3999023438</ele>
        <time>2012-02-25T09:48:49.000Z</time>
      </trkpt>
      <trkpt lat="45.49434" lon="6.63559">
        <ele>2437.6000976562</ele>
        <time>2012-02-25T09:48:54.000Z</time>
      </trkpt>
      <trkpt lat="45.49434" lon="6.63564">
        <ele>2438.6000976562</ele>
        <time>2012-02-25T09:49:00.000Z</time>
      </trkpt>
      <trkpt lat="45.49433" lon="6.63568">
        <ele>2439.3999023438</ele>
        <time>2012-02-25T09:49:05.000Z</time>
      </trkpt>
      <trkpt lat="45.49433" lon="6.63573">
        <ele>2440.3999023438</ele>
        <time>2012-02-25T09:49:12.000Z</time>
      </trkpt>
      <trkpt lat="45.49431" lon="6.63579">
        <ele>2441.1999511719</ele>
        <time>2012-02-25T09:49:46.000Z</time>
      </trkpt>
      <trkpt lat="45.49431" lon="6.63583">
        <ele>2442.1999511719</ele>
        <time>2012-02-25T09:49:51.000Z</time>
      </trkpt>
      <trkpt lat="45.4943" lon="6.63588">
        <ele>2443.3999023438</ele>
        <time>2012-02-25T09:49:57.000Z</time>
      </trkpt>
      <trkpt lat="45.4943" lon="6.63593">
        <ele>2444.6000976562</ele>
        <time>2012-02-25T09:50:02.000Z</time>
      </trkpt>
      <trkpt lat="45.4943" lon="6.63598">
        <ele>2445.6000976562</ele>
        <time>2012-02-25T09:50:07.000Z</time>
      </trkpt>
      <trkpt lat="45.49429" lon="6.63604">
        <ele>2447</ele>
        <time>2012-02-25T09:50:13.000Z</time>
      </trkpt>
      <trkpt lat="45.49428" lon="6.6361">
        <ele>2448</ele>
        <time>2012-02-25T09:50:19.000Z</time>
      </trkpt>
      <trkpt lat="45.49426" lon="6.63615">
        <ele>2448.8000488281</ele>
        <time>2012-02-25T09:50:25.000Z</time>
      </trkpt>
      <trkpt lat="45.49424" lon="6.63616">
        <ele>2448.3999023438</ele>
        <time>2012-02-25T09:50:50.000Z</time>
      </trkpt>
      <trkpt lat="45.49422" lon="6.63621">
        <ele>2449</ele>
        <time>2012-02-25T09:50:56.000Z</time>
      </trkpt>
      <trkpt lat="45.49419" lon="6.63628">
        <ele>2450</ele>
        <time>2012-02-25T09:51:06.000Z</time>
      </trkpt>
      <trkpt lat="45.49416" lon="6.63633">
        <ele>2450.6000976562</ele>
        <time>2012-02-25T09:51:13.000Z</time>
      </trkpt>
      <trkpt lat="45.49413" lon="6.63638">
        <ele>2451.3999023438</ele>
        <time>2012-02-25T09:51:19.000Z</time>
      </trkpt>
      <trkpt lat="45.49411" lon="6.63643">
        <ele>2452.3999023438</ele>
        <time>2012-02-25T09:51:25.000Z</time>
      </trkpt>
      <trkpt lat="45.49409" lon="6.63649">
        <ele>2453.8000488281</ele>
        <time>2012-02-25T09:51:32.000Z</time>
      </trkpt>
      <trkpt lat="45.49408" lon="6.63654">
        <ele>2455.1999511719</ele>
        <time>2012-02-25T09:51:38.000Z</time>
      </trkpt>
      <trkpt lat="45.49407" lon="6.63659">
        <ele>2456.3999023438</ele>
        <time>2012-02-25T09:51:44.000Z</time>
      </trkpt>
      <trkpt lat="45.49405" lon="6.63662">
        <ele>2457</ele>
        <time>2012-02-25T09:52:18.000Z</time>
      </trkpt>
      <trkpt lat="45.49403" lon="6.63666">
        <ele>2458.1999511719</ele>
        <time>2012-02-25T09:52:24.000Z</time>
      </trkpt>
      <trkpt lat="45.49402" lon="6.6367">
        <ele>2459.1999511719</ele>
        <time>2012-02-25T09:52:29.000Z</time>
      </trkpt>
      <trkpt lat="45.49404" lon="6.63671">
        <ele>2459.6000976562</ele>
        <time>2012-02-25T09:52:34.000Z</time>
      </trkpt>
      <trkpt lat="45.49408" lon="6.63672">
        <ele>2460.3999023438</ele>
        <time>2012-02-25T09:52:39.000Z</time>
      </trkpt>
      <trkpt lat="45.49412" lon="6.63673">
        <ele>2461.1999511719</ele>
        <time>2012-02-25T09:52:46.000Z</time>
      </trkpt>
      <trkpt lat="45.49415" lon="6.63675">
        <ele>2461.8000488281</ele>
        <time>2012-02-25T09:52:51.000Z</time>
      </trkpt>
      <trkpt lat="45.49416" lon="6.63675">
        <ele>2462</ele>
        <time>2012-02-25T09:52:56.000Z</time>
      </trkpt>
      <trkpt lat="45.4942" lon="6.63676">
        <ele>2463.6000976562</ele>
        <time>2012-02-25T09:53:22.000Z</time>
      </trkpt>
      <trkpt lat="45.49423" lon="6.63678">
        <ele>2464.8000488281</ele>
        <time>2012-02-25T09:53:27.000Z</time>
      </trkpt>
      <trkpt lat="45.49428" lon="6.6368">
        <ele>2467</ele>
        <time>2012-02-25T09:53:35.000Z</time>
      </trkpt>
      <trkpt lat="45.49431" lon="6.63681">
        <ele>2467.8000488281</ele>
        <time>2012-02-25T09:53:39.000Z</time>
      </trkpt>
      <trkpt lat="45.49435" lon="6.63682">
        <ele>2469.1999511719</ele>
        <time>2012-02-25T09:53:45.000Z</time>
      </trkpt>
      <trkpt lat="45.49439" lon="6.63683">
        <ele>2470.6000976562</ele>
        <time>2012-02-25T09:53:52.000Z</time>
      </trkpt>
      <trkpt lat="45.49443" lon="6.63683">
        <ele>2471.8000488281</ele>
        <time>2012-02-25T09:53:58.000Z</time>
      </trkpt>
      <trkpt lat="45.49447" lon="6.63684">
        <ele>2473</ele>
        <time>2012-02-25T09:54:04.000Z</time>
      </trkpt>
      <trkpt lat="45.49447" lon="6.63685">
        <ele>2473.1999511719</ele>
        <time>2012-02-25T09:54:09.000Z</time>
      </trkpt>
      <trkpt lat="45.49444" lon="6.63688">
        <ele>2473.6000976562</ele>
        <time>2012-02-25T09:54:24.000Z</time>
      </trkpt>
      <trkpt lat="45.49442" lon="6.63693">
        <ele>2474.3999023438</ele>
        <time>2012-02-25T09:54:31.000Z</time>
      </trkpt>
      <trkpt lat="45.4944" lon="6.63695">
        <ele>2475</ele>
        <time>2012-02-25T09:54:37.000Z</time>
      </trkpt>
      <trkpt lat="45.49444" lon="6.63696">
        <ele>2476</ele>
        <time>2012-02-25T09:54:44.000Z</time>
      </trkpt>
      <trkpt lat="45.49446" lon="6.63696">
        <ele>2476.8000488281</ele>
        <time>2012-02-25T09:54:48.000Z</time>
      </trkpt>
      <trkpt lat="45.4945" lon="6.63697">
        <ele>2478</ele>
        <time>2012-02-25T09:54:54.000Z</time>
      </trkpt>
      <trkpt lat="45.49453" lon="6.63698">
        <ele>2478.8000488281</ele>
        <time>2012-02-25T09:54:59.000Z</time>
      </trkpt>
      <trkpt lat="45.49457" lon="6.63698">
        <ele>2479.8000488281</ele>
        <time>2012-02-25T09:55:04.000Z</time>
      </trkpt>
      <trkpt lat="45.4946" lon="6.63698">
        <ele>2480.6000976562</ele>
        <time>2012-02-25T09:55:10.000Z</time>
      </trkpt>
      <trkpt lat="45.49463" lon="6.63698">
        <ele>2481.1999511719</ele>
        <time>2012-02-25T09:55:15.000Z</time>
      </trkpt>
      <trkpt lat="45.49463" lon="6.637">
        <ele>2481.8000488281</ele>
        <time>2012-02-25T09:55:20.000Z</time>
      </trkpt>
      <trkpt lat="45.49461" lon="6.63705">
        <ele>2482.6000976562</ele>
        <time>2012-02-25T09:55:46.000Z</time>
      </trkpt>
      <trkpt lat="45.49458" lon="6.63709">
        <ele>2483.6000976562</ele>
        <time>2012-02-25T09:55:52.000Z</time>
      </trkpt>
      <trkpt lat="45.49455" lon="6.63716">
        <ele>2485</ele>
        <time>2012-02-25T09:56:00.000Z</time>
      </trkpt>
      <trkpt lat="45.49452" lon="6.63722">
        <ele>2486.1999511719</ele>
        <time>2012-02-25T09:56:07.000Z</time>
      </trkpt>
      <trkpt lat="45.49449" lon="6.63728">
        <ele>2487.6000976562</ele>
        <time>2012-02-25T09:56:14.000Z</time>
      </trkpt>
      <trkpt lat="45.49446" lon="6.63733">
        <ele>2488.8000488281</ele>
        <time>2012-02-25T09:56:21.000Z</time>
      </trkpt>
      <trkpt lat="45.49444" lon="6.63738">
        <ele>2489.8000488281</ele>
        <time>2012-02-25T09:56:27.000Z</time>
      </trkpt>
      <trkpt lat="45.49441" lon="6.63742">
        <ele>2490.8000488281</ele>
        <time>2012-02-25T09:56:33.000Z</time>
      </trkpt>
      <trkpt lat="45.49441" lon="6.63742">
        <ele>2490.8000488281</ele>
        <time>2012-02-25T09:56:45.000Z</time>
      </trkpt>
      <trkpt lat="45.4944" lon="6.63745">
        <ele>2491.8000488281</ele>
        <time>2012-02-25T09:56:54.000Z</time>
      </trkpt>
      <trkpt lat="45.49438" lon="6.63751">
        <ele>2493.1999511719</ele>
        <time>2012-02-25T09:57:01.000Z</time>
      </trkpt>
      <trkpt lat="45.49436" lon="6.63755">
        <ele>2494.6000976562</ele>
        <time>2012-02-25T09:57:07.000Z</time>
      </trkpt>
      <trkpt lat="45.49436" lon="6.63757">
        <ele>2495.1999511719</ele>
        <time>2012-02-25T09:57:12.000Z</time>
      </trkpt>
      <trkpt lat="45.49438" lon="6.63757">
        <ele>2495.3999023438</ele>
        <time>2012-02-25T09:57:16.000Z</time>
      </trkpt>
      <trkpt lat="45.49441" lon="6.63756">
        <ele>2495.3999023438</ele>
        <time>2012-02-25T09:57:21.000Z</time>
      </trkpt>
      <trkpt lat="45.49445" lon="6.63755">
        <ele>2495.6000976562</ele>
        <time>2012-02-25T09:57:27.000Z</time>
      </trkpt>
      <trkpt lat="45.49447" lon="6.63754">
        <ele>2495.6000976562</ele>
        <time>2012-02-25T09:57:31.000Z</time>
      </trkpt>
      <trkpt lat="45.49447" lon="6.63754">
        <ele>2495.6000976562</ele>
        <time>2012-02-25T09:57:38.000Z</time>
      </trkpt>
      <trkpt lat="45.49448" lon="6.63751">
        <ele>2494.8000488281</ele>
        <time>2012-02-25T09:57:59.000Z</time>
      </trkpt>
      <trkpt lat="45.49451" lon="6.6375">
        <ele>2495</ele>
        <time>2012-02-25T09:58:04.000Z</time>
      </trkpt>
      <trkpt lat="45.49456" lon="6.63749">
        <ele>2495.3999023438</ele>
        <time>2012-02-25T09:58:12.000Z</time>
      </trkpt>
      <trkpt lat="45.49457" lon="6.6375">
        <ele>2496</ele>
        <time>2012-02-25T09:58:17.000Z</time>
      </trkpt>
      <trkpt lat="45.49455" lon="6.63752">
        <ele>2496.1999511719</ele>
        <time>2012-02-25T09:58:24.000Z</time>
      </trkpt>
      <trkpt lat="45.49453" lon="6.63757">
        <ele>2497.1999511719</ele>
        <time>2012-02-25T09:58:30.000Z</time>
      </trkpt>
      <trkpt lat="45.4945" lon="6.63761">
        <ele>2498.1999511719</ele>
        <time>2012-02-25T09:58:36.000Z</time>
      </trkpt>
      <trkpt lat="45.49448" lon="6.63767">
        <ele>2499.8000488281</ele>
        <time>2012-02-25T09:58:43.000Z</time>
      </trkpt>
      <trkpt lat="45.49446" lon="6.63772">
        <ele>2501.6000976562</ele>
        <time>2012-02-25T09:58:50.000Z</time>
      </trkpt>
      <trkpt lat="45.49444" lon="6.63778">
        <ele>2503.1999511719</ele>
        <time>2012-02-25T09:58:56.000Z</time>
      </trkpt>
      <trkpt lat="45.49441" lon="6.63782">
        <ele>2504.6000976562</ele>
        <time>2012-02-25T09:59:02.000Z</time>
      </trkpt>
      <trkpt lat="45.4944" lon="6.63787">
        <ele>2506</ele>
        <time>2012-02-25T09:59:09.000Z</time>
      </trkpt>
      <trkpt lat="45.4944" lon="6.63788">
        <ele>2506.3999023438</ele>
        <time>2012-02-25T09:59:15.000Z</time>
      </trkpt>
      <trkpt lat="45.49441" lon="6.63786">
        <ele>2506</ele>
        <time>2012-02-25T09:59:19.000Z</time>
      </trkpt>
      <trkpt lat="45.49444" lon="6.63785">
        <ele>2505.8000488281</ele>
        <time>2012-02-25T09:59:35.000Z</time>
      </trkpt>
      <trkpt lat="45.49447" lon="6.63785">
        <ele>2505.6000976562</ele>
        <time>2012-02-25T09:59:39.000Z</time>
      </trkpt>
      <trkpt lat="45.49451" lon="6.63782">
        <ele>2505</ele>
        <time>2012-02-25T09:59:46.000Z</time>
      </trkpt>
      <trkpt lat="45.49454" lon="6.6378">
        <ele>2504.6000976562</ele>
        <time>2012-02-25T09:59:52.000Z</time>
      </trkpt>
      <trkpt lat="45.49458" lon="6.63779">
        <ele>2504.1999511719</ele>
        <time>2012-02-25T09:59:57.000Z</time>
      </trkpt>
      <trkpt lat="45.49461" lon="6.63779">
        <ele>2504.3999023438</ele>
        <time>2012-02-25T10:00:04.000Z</time>
      </trkpt>
      <trkpt lat="45.49459" lon="6.63781">
        <ele>2505</ele>
        <time>2012-02-25T10:00:22.000Z</time>
      </trkpt>
      <trkpt lat="45.49456" lon="6.63786">
        <ele>2506.3999023438</ele>
        <time>2012-02-25T10:00:28.000Z</time>
      </trkpt>
      <trkpt lat="45.49454" lon="6.63791">
        <ele>2507.8000488281</ele>
        <time>2012-02-25T10:00:34.000Z</time>
      </trkpt>
      <trkpt lat="45.49451" lon="6.63798">
        <ele>2510</ele>
        <time>2012-02-25T10:00:42.000Z</time>
      </trkpt>
      <trkpt lat="45.49448" lon="6.63805">
        <ele>2512</ele>
        <time>2012-02-25T10:00:49.000Z</time>
      </trkpt>
      <trkpt lat="45.49446" lon="6.63809">
        <ele>2513.6000976562</ele>
        <time>2012-02-25T10:00:55.000Z</time>
      </trkpt>
      <trkpt lat="45.49443" lon="6.63813">
        <ele>2515</ele>
        <time>2012-02-25T10:01:01.000Z</time>
      </trkpt>
      <trkpt lat="45.49443" lon="6.63815">
        <ele>2515.8000488281</ele>
        <time>2012-02-25T10:01:07.000Z</time>
      </trkpt>
      <trkpt lat="45.49445" lon="6.63816">
        <ele>2515.8000488281</ele>
        <time>2012-02-25T10:01:26.000Z</time>
      </trkpt>
      <trkpt lat="45.49448" lon="6.63816">
        <ele>2515.6000976562</ele>
        <time>2012-02-25T10:01:32.000Z</time>
      </trkpt>
      <trkpt lat="45.49452" lon="6.63816">
        <ele>2515.3999023438</ele>
        <time>2012-02-25T10:01:39.000Z</time>
      </trkpt>
      <trkpt lat="45.49455" lon="6.63816">
        <ele>2515.3999023438</ele>
        <time>2012-02-25T10:01:43.000Z</time>
      </trkpt>
      <trkpt lat="45.49459" lon="6.63817">
        <ele>2515.1999511719</ele>
        <time>2012-02-25T10:01:49.000Z</time>
      </trkpt>
      <trkpt lat="45.49462" lon="6.63816">
        <ele>2514.8000488281</ele>
        <time>2012-02-25T10:01:55.000Z</time>
      </trkpt>
      <trkpt lat="45.49465" lon="6.63816">
        <ele>2514.6000976562</ele>
        <time>2012-02-25T10:01:59.000Z</time>
      </trkpt>
      <trkpt lat="45.49468" lon="6.63815">
        <ele>2514</ele>
        <time>2012-02-25T10:02:05.000Z</time>
      </trkpt>
      <trkpt lat="45.4947" lon="6.63814">
        <ele>2513.8000488281</ele>
        <time>2012-02-25T10:02:12.000Z</time>
      </trkpt>
      <trkpt lat="45.49473" lon="6.63812">
        <ele>2513</ele>
        <time>2012-02-25T10:02:28.000Z</time>
      </trkpt>
      <trkpt lat="45.49477" lon="6.63809">
        <ele>2512.1999511719</ele>
        <time>2012-02-25T10:02:35.000Z</time>
      </trkpt>
      <trkpt lat="45.49481" lon="6.63806">
        <ele>2511.3999023438</ele>
        <time>2012-02-25T10:02:41.000Z</time>
      </trkpt>
      <trkpt lat="45.49484" lon="6.63805">
        <ele>2511</ele>
        <time>2012-02-25T10:02:46.000Z</time>
      </trkpt>
      <trkpt lat="45.49485" lon="6.63807">
        <ele>2511.6000976562</ele>
        <time>2012-02-25T10:02:51.000Z</time>
      </trkpt>
      <trkpt lat="45.49483" lon="6.63811">
        <ele>2512.3999023438</ele>
        <time>2012-02-25T10:02:55.000Z</time>
      </trkpt>
      <trkpt lat="45.49481" lon="6.63817">
        <ele>2513.6000976562</ele>
        <time>2012-02-25T10:03:01.000Z</time>
      </trkpt>
      <trkpt lat="45.49479" lon="6.63823">
        <ele>2515.3999023438</ele>
        <time>2012-02-25T10:03:08.000Z</time>
      </trkpt>
      <trkpt lat="45.49477" lon="6.63828">
        <ele>2516.6000976562</ele>
        <time>2012-02-25T10:03:13.000Z</time>
      </trkpt>
      <trkpt lat="45.49476" lon="6.63833">
        <ele>2517.8000488281</ele>
        <time>2012-02-25T10:03:18.000Z</time>
      </trkpt>
      <trkpt lat="45.49474" lon="6.63839">
        <ele>2518.6000976562</ele>
        <time>2012-02-25T10:03:25.000Z</time>
      </trkpt>
      <trkpt lat="45.49474" lon="6.6384">
        <ele>2518.8000488281</ele>
        <time>2012-02-25T10:03:32.000Z</time>
      </trkpt>
      <trkpt lat="45.49471" lon="6.63846">
        <ele>2519.6000976562</ele>
        <time>2012-02-25T10:03:39.000Z</time>
      </trkpt>
      <trkpt lat="45.49469" lon="6.6385">
        <ele>2520.1999511719</ele>
        <time>2012-02-25T10:03:44.000Z</time>
      </trkpt>
      <trkpt lat="45.49466" lon="6.63854">
        <ele>2520.8000488281</ele>
        <time>2012-02-25T10:03:50.000Z</time>
      </trkpt>
      <trkpt lat="45.49463" lon="6.63858">
        <ele>2521.3999023438</ele>
        <time>2012-02-25T10:03:56.000Z</time>
      </trkpt>
      <trkpt lat="45.49459" lon="6.63863">
        <ele>2522.1999511719</ele>
        <time>2012-02-25T10:04:04.000Z</time>
      </trkpt>
      <trkpt lat="45.49456" lon="6.63866">
        <ele>2522.8000488281</ele>
        <time>2012-02-25T10:04:10.000Z</time>
      </trkpt>
      <trkpt lat="45.49452" lon="6.63869">
        <ele>2523.1999511719</ele>
        <time>2012-02-25T10:04:16.000Z</time>
      </trkpt>
      <trkpt lat="45.49448" lon="6.63871">
        <ele>2523.6000976562</ele>
        <time>2012-02-25T10:04:23.000Z</time>
      </trkpt>
      <trkpt lat="45.49444" lon="6.63874">
        <ele>2524.1999511719</ele>
        <time>2012-02-25T10:04:30.000Z</time>
      </trkpt>
      <trkpt lat="45.49441" lon="6.63876">
        <ele>2524.3999023438</ele>
        <time>2012-02-25T10:04:36.000Z</time>
      </trkpt>
      <trkpt lat="45.49436" lon="6.6388">
        <ele>2525</ele>
        <time>2012-02-25T10:04:43.000Z</time>
      </trkpt>
      <trkpt lat="45.49435" lon="6.63883">
        <ele>2525.1999511719</ele>
        <time>2012-02-25T10:04:49.000Z</time>
      </trkpt>
      <trkpt lat="45.49433" lon="6.63882">
        <ele>2525.1999511719</ele>
        <time>2012-02-25T10:05:48.000Z</time>
      </trkpt>
      <trkpt lat="45.49435" lon="6.63884">
        <ele>2525.1999511719</ele>
        <time>2012-02-25T10:06:07.000Z</time>
      </trkpt>
      <trkpt lat="45.4944" lon="6.63884">
        <ele>2525</ele>
        <time>2012-02-25T10:06:14.000Z</time>
      </trkpt>
      <trkpt lat="45.49444" lon="6.63886">
        <ele>2524.8000488281</ele>
        <time>2012-02-25T10:06:20.000Z</time>
      </trkpt>
      <trkpt lat="45.49448" lon="6.63889">
        <ele>2524.8000488281</ele>
        <time>2012-02-25T10:06:26.000Z</time>
      </trkpt>
      <trkpt lat="45.49452" lon="6.63893">
        <ele>2525</ele>
        <time>2012-02-25T10:06:33.000Z</time>
      </trkpt>
      <trkpt lat="45.49455" lon="6.63897">
        <ele>2525</ele>
        <time>2012-02-25T10:06:39.000Z</time>
      </trkpt>
      <trkpt lat="45.49458" lon="6.639">
        <ele>2525.1999511719</ele>
        <time>2012-02-25T10:06:44.000Z</time>
      </trkpt>
      <trkpt lat="45.49462" lon="6.63904">
        <ele>2525.3999023438</ele>
        <time>2012-02-25T10:06:51.000Z</time>
      </trkpt>
      <trkpt lat="45.49465" lon="6.63906">
        <ele>2525.6000976562</ele>
        <time>2012-02-25T10:06:56.000Z</time>
      </trkpt>
      <trkpt lat="45.49468" lon="6.6391">
        <ele>2525.8000488281</ele>
        <time>2012-02-25T10:07:03.000Z</time>
      </trkpt>
      <trkpt lat="45.49472" lon="6.63912">
        <ele>2525.8000488281</ele>
        <time>2012-02-25T10:07:10.000Z</time>
      </trkpt>
      <trkpt lat="45.49474" lon="6.63913">
        <ele>2526</ele>
        <time>2012-02-25T10:07:14.000Z</time>
      </trkpt>
      <trkpt lat="45.49477" lon="6.63915">
        <ele>2526.1999511719</ele>
        <time>2012-02-25T10:07:19.000Z</time>
      </trkpt>
      <trkpt lat="45.49479" lon="6.63919">
        <ele>2526</ele>
        <time>2012-02-25T10:07:25.000Z</time>
      </trkpt>
      <trkpt lat="45.4948" lon="6.63921">
        <ele>2525.8000488281</ele>
        <time>2012-02-25T10:07:32.000Z</time>
      </trkpt>
      <trkpt lat="45.49481" lon="6.63925">
        <ele>2525.1999511719</ele>
        <time>2012-02-25T10:07:55.000Z</time>
      </trkpt>
      <trkpt lat="45.49481" lon="6.63926">
        <ele>2525.1999511719</ele>
        <time>2012-02-25T10:08:05.000Z</time>
      </trkpt>
      <trkpt lat="45.49481" lon="6.6393">
        <ele>2524.8000488281</ele>
        <time>2012-02-25T10:08:26.000Z</time>
      </trkpt>
      <trkpt lat="45.49478" lon="6.63935">
        <ele>2524</ele>
        <time>2012-02-25T10:08:33.000Z</time>
      </trkpt>
      <trkpt lat="45.49476" lon="6.63936">
        <ele>2523.8000488281</ele>
        <time>2012-02-25T10:09:55.000Z</time>
      </trkpt>
      <trkpt lat="45.49475" lon="6.63932">
        <ele>2524.3999023438</ele>
        <time>2012-02-25T10:18:57.000Z</time>
      </trkpt>
      <trkpt lat="45.49474" lon="6.63932">
        <ele>2524.1999511719</ele>
        <time>2012-02-25T10:19:08.000Z</time>
      </trkpt>
      <trkpt lat="45.49469" lon="6.63925">
        <ele>2525.1999511719</ele>
        <time>2012-02-25T10:19:13.000Z</time>
      </trkpt>
      <trkpt lat="45.49469" lon="6.63922">
        <ele>2525.3999023438</ele>
        <time>2012-02-25T10:19:15.000Z</time>
      </trkpt>
      <trkpt lat="45.49468" lon="6.63914">
        <ele>2526.1999511719</ele>
        <time>2012-02-25T10:19:17.000Z</time>
      </trkpt>
      <trkpt lat="45.49473" lon="6.63898">
        <ele>2524.6000976562</ele>
        <time>2012-02-25T10:19:21.000Z</time>
      </trkpt>
      <trkpt lat="45.49468" lon="6.63894">
        <ele>2524.1999511719</ele>
        <time>2012-02-25T10:19:23.000Z</time>
      </trkpt>
      <trkpt lat="45.49461" lon="6.63894">
        <ele>2524.6000976562</ele>
        <time>2012-02-25T10:19:27.000Z</time>
      </trkpt>
      <trkpt lat="45.49461" lon="6.63884">
        <ele>2523.8000488281</ele>
        <time>2012-02-25T10:19:30.000Z</time>
      </trkpt>
      <trkpt lat="45.49463" lon="6.6388">
        <ele>2523.3999023438</ele>
        <time>2012-02-25T10:19:32.000Z</time>
      </trkpt>
      <trkpt lat="45.49472" lon="6.63858">
        <ele>2520.8000488281</ele>
        <time>2012-02-25T10:19:38.000Z</time>
      </trkpt>
      <trkpt lat="45.49472" lon="6.63857">
        <ele>2520.6000976562</ele>
        <time>2012-02-25T10:19:39.000Z</time>
      </trkpt>
      <trkpt lat="45.49474" lon="6.63851">
        <ele>2519.8000488281</ele>
        <time>2012-02-25T10:19:42.000Z</time>
      </trkpt>
      <trkpt lat="45.49474" lon="6.6385">
        <ele>2519.8000488281</ele>
        <time>2012-02-25T10:19:50.000Z</time>
      </trkpt>
      <trkpt lat="45.49473" lon="6.63849">
        <ele>2519.8000488281</ele>
        <time>2012-02-25T10:19:51.000Z</time>
      </trkpt>
      <trkpt lat="45.49467" lon="6.63849">
        <ele>2520.3999023438</ele>
        <time>2012-02-25T10:19:53.000Z</time>
      </trkpt>
      <trkpt lat="45.49466" lon="6.63841">
        <ele>2519.8000488281</ele>
        <time>2012-02-25T10:19:55.000Z</time>
      </trkpt>
      <trkpt lat="45.49473" lon="6.63824">
        <ele>2516</ele>
        <time>2012-02-25T10:19:59.000Z</time>
      </trkpt>
      <trkpt lat="45.49474" lon="6.6382">
        <ele>2514.8000488281</ele>
        <time>2012-02-25T10:20:00.000Z</time>
      </trkpt>
      <trkpt lat="45.49485" lon="6.63789">
        <ele>2507.8000488281</ele>
        <time>2012-02-25T10:20:07.000Z</time>
      </trkpt>
      <trkpt lat="45.49488" lon="6.63775">
        <ele>2505.1999511719</ele>
        <time>2012-02-25T10:20:10.000Z</time>
      </trkpt>
      <trkpt lat="45.49492" lon="6.63759">
        <ele>2502.6000976562</ele>
        <time>2012-02-25T10:20:13.000Z</time>
      </trkpt>
      <trkpt lat="45.49498" lon="6.6373">
        <ele>2496.8000488281</ele>
        <time>2012-02-25T10:20:17.000Z</time>
      </trkpt>
      <trkpt lat="45.495" lon="6.6372">
        <ele>2494.8000488281</ele>
        <time>2012-02-25T10:20:18.000Z</time>
      </trkpt>
      <trkpt lat="45.49503" lon="6.63712">
        <ele>2491.6000976562</ele>
        <time>2012-02-25T10:20:19.000Z</time>
      </trkpt>
      <trkpt lat="45.495" lon="6.63692">
        <ele>2488.1999511719</ele>
        <time>2012-02-25T10:20:22.000Z</time>
      </trkpt>
      <trkpt lat="45.495" lon="6.63672">
        <ele>2483.1999511719</ele>
        <time>2012-02-25T10:20:24.000Z</time>
      </trkpt>
      <trkpt lat="45.49502" lon="6.63662">
        <ele>2480.1999511719</ele>
        <time>2012-02-25T10:20:25.000Z</time>
      </trkpt>
      <trkpt lat="45.49506" lon="6.63647">
        <ele>2475.6000976562</ele>
        <time>2012-02-25T10:20:27.000Z</time>
      </trkpt>
      <trkpt lat="45.49514" lon="6.6363">
        <ele>2470.1999511719</ele>
        <time>2012-02-25T10:20:31.000Z</time>
      </trkpt>
      <trkpt lat="45.49517" lon="6.63625">
        <ele>2468.3999023438</ele>
        <time>2012-02-25T10:20:33.000Z</time>
      </trkpt>
      <trkpt lat="45.4952" lon="6.63619">
        <ele>2466.8000488281</ele>
        <time>2012-02-25T10:20:37.000Z</time>
      </trkpt>
      <trkpt lat="45.49524" lon="6.63616">
        <ele>2465</ele>
        <time>2012-02-25T10:20:56.000Z</time>
      </trkpt>
      <trkpt lat="45.49534" lon="6.6361">
        <ele>2462</ele>
        <time>2012-02-25T10:21:01.000Z</time>
      </trkpt>
      <trkpt lat="45.49531" lon="6.636">
        <ele>2460.8000488281</ele>
        <time>2012-02-25T10:21:05.000Z</time>
      </trkpt>
      <trkpt lat="45.4953" lon="6.63599">
        <ele>2461</ele>
        <time>2012-02-25T10:21:06.000Z</time>
      </trkpt>
      <trkpt lat="45.49532" lon="6.63597">
        <ele>2460.1999511719</ele>
        <time>2012-02-25T10:21:11.000Z</time>
      </trkpt>
      <trkpt lat="45.49529" lon="6.63585">
        <ele>2458.8000488281</ele>
        <time>2012-02-25T10:21:16.000Z</time>
      </trkpt>
      <trkpt lat="45.49536" lon="6.63579">
        <ele>2456.3999023438</ele>
        <time>2012-02-25T10:21:20.000Z</time>
      </trkpt>
      <trkpt lat="45.4954" lon="6.63576">
        <ele>2455.1999511719</ele>
        <time>2012-02-25T10:21:22.000Z</time>
      </trkpt>
      <trkpt lat="45.49546" lon="6.6357">
        <ele>2453.1999511719</ele>
        <time>2012-02-25T10:21:26.000Z</time>
      </trkpt>
      <trkpt lat="45.49559" lon="6.6356">
        <ele>2449.8000488281</ele>
        <time>2012-02-25T10:21:32.000Z</time>
      </trkpt>
      <trkpt lat="45.49565" lon="6.63557">
        <ele>2448.6000976562</ele>
        <time>2012-02-25T10:21:36.000Z</time>
      </trkpt>
      <trkpt lat="45.49567" lon="6.63554">
        <ele>2448</ele>
        <time>2012-02-25T10:21:40.000Z</time>
      </trkpt>
      <trkpt lat="45.49577" lon="6.63546">
        <ele>2446</ele>
        <time>2012-02-25T10:21:45.000Z</time>
      </trkpt>
      <trkpt lat="45.49583" lon="6.63544">
        <ele>2445.1999511719</ele>
        <time>2012-02-25T10:21:47.000Z</time>
      </trkpt>
      <trkpt lat="45.49579" lon="6.63536">
        <ele>2444.6000976562</ele>
        <time>2012-02-25T10:21:51.000Z</time>
      </trkpt>
      <trkpt lat="45.49579" lon="6.63537">
        <ele>2444.6000976562</ele>
        <time>2012-02-25T10:22:09.000Z</time>
      </trkpt>
      <trkpt lat="45.49579" lon="6.63537">
        <ele>2444.8000488281</ele>
        <time>2012-02-25T10:22:33.000Z</time>
      </trkpt>
      <trkpt lat="45.4957" lon="6.63532">
        <ele>2444.3999023438</ele>
        <time>2012-02-25T10:22:39.000Z</time>
      </trkpt>
      <trkpt lat="45.49568" lon="6.6353">
        <ele>2444.1999511719</ele>
        <time>2012-02-25T10:22:40.000Z</time>
      </trkpt>
      <trkpt lat="45.4957" lon="6.63522">
        <ele>2443</ele>
        <time>2012-02-25T10:22:42.000Z</time>
      </trkpt>
      <trkpt lat="45.49581" lon="6.63511">
        <ele>2441.3999023438</ele>
        <time>2012-02-25T10:22:45.000Z</time>
      </trkpt>
      <trkpt lat="45.49604" lon="6.63483">
        <ele>2435.1999511719</ele>
        <time>2012-02-25T10:22:49.000Z</time>
      </trkpt>
      <trkpt lat="45.49612" lon="6.63473">
        <ele>2433.8000488281</ele>
        <time>2012-02-25T10:22:50.000Z</time>
      </trkpt>
      <trkpt lat="45.49624" lon="6.63454">
        <ele>2432.6000976562</ele>
        <time>2012-02-25T10:22:53.000Z</time>
      </trkpt>
      <trkpt lat="45.49627" lon="6.63446">
        <ele>2432.3999023438</ele>
        <time>2012-02-25T10:22:56.000Z</time>
      </trkpt>
      <trkpt lat="45.49629" lon="6.63442">
        <ele>2432.6000976562</ele>
        <time>2012-02-25T10:22:59.000Z</time>
      </trkpt>
      <trkpt lat="45.49634" lon="6.63435">
        <ele>2432.8000488281</ele>
        <time>2012-02-25T10:23:04.000Z</time>
      </trkpt>
      <trkpt lat="45.49637" lon="6.6343">
        <ele>2433.1999511719</ele>
        <time>2012-02-25T10:23:08.000Z</time>
      </trkpt>
      <trkpt lat="45.49639" lon="6.63426">
        <ele>2433.3999023438</ele>
        <time>2012-02-25T10:23:12.000Z</time>
      </trkpt>
      <trkpt lat="45.49639" lon="6.63425">
        <ele>2433.6000976562</ele>
        <time>2012-02-25T10:23:13.000Z</time>
      </trkpt>
      <trkpt lat="45.49644" lon="6.63417">
        <ele>2434.3999023438</ele>
        <time>2012-02-25T10:23:17.000Z</time>
      </trkpt>
      <trkpt lat="45.49646" lon="6.63416">
        <ele>2434.6000976562</ele>
        <time>2012-02-25T10:23:18.000Z</time>
      </trkpt>
      <trkpt lat="45.49656" lon="6.63405">
        <ele>2433.3999023438</ele>
        <time>2012-02-25T10:23:24.000Z</time>
      </trkpt>
      <trkpt lat="45.49664" lon="6.63393">
        <ele>2432.1999511719</ele>
        <time>2012-02-25T10:23:28.000Z</time>
      </trkpt>
      <trkpt lat="45.49675" lon="6.6337">
        <ele>2430.3999023438</ele>
        <time>2012-02-25T10:23:31.000Z</time>
      </trkpt>
      <trkpt lat="45.49687" lon="6.63345">
        <ele>2429.6000976562</ele>
        <time>2012-02-25T10:23:34.000Z</time>
      </trkpt>
      <trkpt lat="45.4969" lon="6.63336">
        <ele>2429.6000976562</ele>
        <time>2012-02-25T10:23:35.000Z</time>
      </trkpt>
      <trkpt lat="45.49699" lon="6.63319">
        <ele>2428.8000488281</ele>
        <time>2012-02-25T10:23:38.000Z</time>
      </trkpt>
      <trkpt lat="45.4971" lon="6.63298">
        <ele>2426.6000976562</ele>
        <time>2012-02-25T10:23:42.000Z</time>
      </trkpt>
      <trkpt lat="45.49723" lon="6.63273">
        <ele>2424.1999511719</ele>
        <time>2012-02-25T10:23:45.000Z</time>
      </trkpt>
      <trkpt lat="45.49732" lon="6.63251">
        <ele>2421.1999511719</ele>
        <time>2012-02-25T10:23:47.000Z</time>
      </trkpt>
      <trkpt lat="45.49736" lon="6.63226">
        <ele>2418.1999511719</ele>
        <time>2012-02-25T10:23:51.000Z</time>
      </trkpt>
      <trkpt lat="45.49736" lon="6.63221">
        <ele>2417.3999023438</ele>
        <time>2012-02-25T10:23:52.000Z</time>
      </trkpt>
      <trkpt lat="45.49736" lon="6.63215">
        <ele>2416.6000976562</ele>
        <time>2012-02-25T10:23:54.000Z</time>
      </trkpt>
      <trkpt lat="45.49737" lon="6.63212">
        <ele>2416.3999023438</ele>
        <time>2012-02-25T10:24:00.000Z</time>
      </trkpt>
      <trkpt lat="45.49737" lon="6.63204">
        <ele>2415.1999511719</ele>
        <time>2012-02-25T10:24:08.000Z</time>
      </trkpt>
      <trkpt lat="45.49742" lon="6.63177">
        <ele>2412.6000976562</ele>
        <time>2012-02-25T10:24:13.000Z</time>
      </trkpt>
      <trkpt lat="45.49745" lon="6.63149">
        <ele>2410.3999023438</ele>
        <time>2012-02-25T10:24:16.000Z</time>
      </trkpt>
      <trkpt lat="45.49748" lon="6.63124">
        <ele>2409.1999511719</ele>
        <time>2012-02-25T10:24:20.000Z</time>
      </trkpt>
      <trkpt lat="45.4975" lon="6.63107">
        <ele>2408.3999023438</ele>
        <time>2012-02-25T10:24:24.000Z</time>
      </trkpt>
      <trkpt lat="45.49752" lon="6.63096">
        <ele>2407.8000488281</ele>
        <time>2012-02-25T10:24:28.000Z</time>
      </trkpt>
      <trkpt lat="45.49757" lon="6.63075">
        <ele>2406.3999023438</ele>
        <time>2012-02-25T10:24:33.000Z</time>
      </trkpt>
      <trkpt lat="45.49762" lon="6.6305">
        <ele>2403.6000976562</ele>
        <time>2012-02-25T10:24:36.000Z</time>
      </trkpt>
      <trkpt lat="45.49769" lon="6.63022">
        <ele>2400.6000976562</ele>
        <time>2012-02-25T10:24:39.000Z</time>
      </trkpt>
      <trkpt lat="45.49772" lon="6.63014">
        <ele>2400</ele>
        <time>2012-02-25T10:24:40.000Z</time>
      </trkpt>
      <trkpt lat="45.49782" lon="6.62989">
        <ele>2397.3999023438</ele>
        <time>2012-02-25T10:24:45.000Z</time>
      </trkpt>
      <trkpt lat="45.49796" lon="6.62963">
        <ele>2394.8000488281</ele>
        <time>2012-02-25T10:24:50.000Z</time>
      </trkpt>
      <trkpt lat="45.49808" lon="6.62938">
        <ele>2391.8000488281</ele>
        <time>2012-02-25T10:24:54.000Z</time>
      </trkpt>
      <trkpt lat="45.4982" lon="6.62915">
        <ele>2389.1999511719</ele>
        <time>2012-02-25T10:24:58.000Z</time>
      </trkpt>
      <trkpt lat="45.4983" lon="6.62899">
        <ele>2387.8000488281</ele>
        <time>2012-02-25T10:25:02.000Z</time>
      </trkpt>
      <trkpt lat="45.49832" lon="6.62897">
        <ele>2387.8000488281</ele>
        <time>2012-02-25T10:25:08.000Z</time>
      </trkpt>
      <trkpt lat="45.49836" lon="6.62893">
        <ele>2387.3999023438</ele>
        <time>2012-02-25T10:25:19.000Z</time>
      </trkpt>
      <trkpt lat="45.49846" lon="6.62877">
        <ele>2385.3999023438</ele>
        <time>2012-02-25T10:25:22.000Z</time>
      </trkpt>
      <trkpt lat="45.4986" lon="6.62853">
        <ele>2382.3999023438</ele>
        <time>2012-02-25T10:25:25.000Z</time>
      </trkpt>
      <trkpt lat="45.49871" lon="6.62827">
        <ele>2378.8000488281</ele>
        <time>2012-02-25T10:25:29.000Z</time>
      </trkpt>
      <trkpt lat="45.4988" lon="6.62804">
        <ele>2376.1999511719</ele>
        <time>2012-02-25T10:25:32.000Z</time>
      </trkpt>
      <trkpt lat="45.49892" lon="6.6278">
        <ele>2373.8000488281</ele>
        <time>2012-02-25T10:25:35.000Z</time>
      </trkpt>
      <trkpt lat="45.49896" lon="6.62771">
        <ele>2373.1999511719</ele>
        <time>2012-02-25T10:25:36.000Z</time>
      </trkpt>
      <trkpt lat="45.49909" lon="6.62749">
        <ele>2372.6000976562</ele>
        <time>2012-02-25T10:25:39.000Z</time>
      </trkpt>
      <trkpt lat="45.49916" lon="6.62737">
        <ele>2373.3999023438</ele>
        <time>2012-02-25T10:25:43.000Z</time>
      </trkpt>
      <trkpt lat="45.49917" lon="6.62737">
        <ele>2373.3999023438</ele>
        <time>2012-02-25T10:25:44.000Z</time>
      </trkpt>
      <trkpt lat="45.49918" lon="6.62728">
        <ele>2372.3999023438</ele>
        <time>2012-02-25T10:25:47.000Z</time>
      </trkpt>
      <trkpt lat="45.4992" lon="6.62717">
        <ele>2371.1999511719</ele>
        <time>2012-02-25T10:25:50.000Z</time>
      </trkpt>
      <trkpt lat="45.49913" lon="6.62718">
        <ele>2368.3999023438</ele>
        <time>2012-02-25T10:25:53.000Z</time>
      </trkpt>
      <trkpt lat="45.49909" lon="6.62713">
        <ele>2365.6000976562</ele>
        <time>2012-02-25T10:25:55.000Z</time>
      </trkpt>
      <trkpt lat="45.4991" lon="6.62706">
        <ele>2364.6000976562</ele>
        <time>2012-02-25T10:25:56.000Z</time>
      </trkpt>
      <trkpt lat="45.49915" lon="6.62671">
        <ele>2360</ele>
        <time>2012-02-25T10:26:00.000Z</time>
      </trkpt>
      <trkpt lat="45.49915" lon="6.62662">
        <ele>2358.8000488281</ele>
        <time>2012-02-25T10:26:01.000Z</time>
      </trkpt>
      <trkpt lat="45.49914" lon="6.62648">
        <ele>2357.3999023438</ele>
        <time>2012-02-25T10:26:03.000Z</time>
      </trkpt>
      <trkpt lat="45.49911" lon="6.62617">
        <ele>2353</ele>
        <time>2012-02-25T10:26:07.000Z</time>
      </trkpt>
      <trkpt lat="45.49909" lon="6.62595">
        <ele>2349.8000488281</ele>
        <time>2012-02-25T10:26:10.000Z</time>
      </trkpt>
      <trkpt lat="45.49906" lon="6.62577">
        <ele>2347</ele>
        <time>2012-02-25T10:26:13.000Z</time>
      </trkpt>
      <trkpt lat="45.49906" lon="6.6257">
        <ele>2346.3999023438</ele>
        <time>2012-02-25T10:26:17.000Z</time>
      </trkpt>
      <trkpt lat="45.49903" lon="6.62562">
        <ele>2344.1999511719</ele>
        <time>2012-02-25T10:26:31.000Z</time>
      </trkpt>
      <trkpt lat="45.49896" lon="6.62539">
        <ele>2338.8000488281</ele>
        <time>2012-02-25T10:26:36.000Z</time>
      </trkpt>
      <trkpt lat="45.49889" lon="6.62513">
        <ele>2333.3999023438</ele>
        <time>2012-02-25T10:26:41.000Z</time>
      </trkpt>
      <trkpt lat="45.4988" lon="6.62486">
        <ele>2326.8000488281</ele>
        <time>2012-02-25T10:26:46.000Z</time>
      </trkpt>
      <trkpt lat="45.49876" lon="6.62474">
        <ele>2324.1999511719</ele>
        <time>2012-02-25T10:26:48.000Z</time>
      </trkpt>
      <trkpt lat="45.49871" lon="6.62441">
        <ele>2319.6000976562</ele>
        <time>2012-02-25T10:26:54.000Z</time>
      </trkpt>
      <trkpt lat="45.49871" lon="6.62437">
        <ele>2318.8000488281</ele>
        <time>2012-02-25T10:26:55.000Z</time>
      </trkpt>
      <trkpt lat="45.49868" lon="6.62412">
        <ele>2315.6000976562</ele>
        <time>2012-02-25T10:27:00.000Z</time>
      </trkpt>
      <trkpt lat="45.49868" lon="6.62401">
        <ele>2312.8000488281</ele>
        <time>2012-02-25T10:27:02.000Z</time>
      </trkpt>
      <trkpt lat="45.49868" lon="6.6239">
        <ele>2310.1999511719</ele>
        <time>2012-02-25T10:27:05.000Z</time>
      </trkpt>
      <trkpt lat="45.49861" lon="6.62389">
        <ele>2308.3999023438</ele>
        <time>2012-02-25T10:27:08.000Z</time>
      </trkpt>
      <trkpt lat="45.49859" lon="6.62392">
        <ele>2308.8000488281</ele>
        <time>2012-02-25T10:27:09.000Z</time>
      </trkpt>
      <trkpt lat="45.49855" lon="6.62388">
        <ele>2307</ele>
        <time>2012-02-25T10:27:12.000Z</time>
      </trkpt>
      <trkpt lat="45.49855" lon="6.62385">
        <ele>2306.3999023438</ele>
        <time>2012-02-25T10:27:13.000Z</time>
      </trkpt>
      <trkpt lat="45.49857" lon="6.62362">
        <ele>2302.1999511719</ele>
        <time>2012-02-25T10:27:19.000Z</time>
      </trkpt>
      <trkpt lat="45.49857" lon="6.62363">
        <ele>2302.1999511719</ele>
        <time>2012-02-25T10:27:27.000Z</time>
      </trkpt>
      <trkpt lat="45.49857" lon="6.62362">
        <ele>2302</ele>
        <time>2012-02-25T10:27:28.000Z</time>
      </trkpt>
      <trkpt lat="45.49853" lon="6.62351">
        <ele>2299.3999023438</ele>
        <time>2012-02-25T10:27:33.000Z</time>
      </trkpt>
      <trkpt lat="45.49847" lon="6.62342">
        <ele>2297.3999023438</ele>
        <time>2012-02-25T10:27:36.000Z</time>
      </trkpt>
      <trkpt lat="45.49843" lon="6.62335">
        <ele>2295.8000488281</ele>
        <time>2012-02-25T10:27:38.000Z</time>
      </trkpt>
      <trkpt lat="45.49839" lon="6.62325">
        <ele>2292.3999023438</ele>
        <time>2012-02-25T10:27:40.000Z</time>
      </trkpt>
      <trkpt lat="45.49836" lon="6.62314">
        <ele>2288.3999023438</ele>
        <time>2012-02-25T10:27:43.000Z</time>
      </trkpt>
      <trkpt lat="45.49833" lon="6.62314">
        <ele>2288</ele>
        <time>2012-02-25T10:27:44.000Z</time>
      </trkpt>
      <trkpt lat="45.49826" lon="6.62314">
        <ele>2287.1999511719</ele>
        <time>2012-02-25T10:27:46.000Z</time>
      </trkpt>
      <trkpt lat="45.49824" lon="6.62306">
        <ele>2284</ele>
        <time>2012-02-25T10:27:48.000Z</time>
      </trkpt>
      <trkpt lat="45.49827" lon="6.62296">
        <ele>2281.1999511719</ele>
        <time>2012-02-25T10:27:51.000Z</time>
      </trkpt>
      <trkpt lat="45.49826" lon="6.62283">
        <ele>2276.8000488281</ele>
        <time>2012-02-25T10:27:54.000Z</time>
      </trkpt>
      <trkpt lat="45.49822" lon="6.6227">
        <ele>2272</ele>
        <time>2012-02-25T10:27:57.000Z</time>
      </trkpt>
      <trkpt lat="45.49816" lon="6.62262">
        <ele>2268.6000976562</ele>
        <time>2012-02-25T10:28:00.000Z</time>
      </trkpt>
      <trkpt lat="45.49815" lon="6.62255">
        <ele>2266</ele>
        <time>2012-02-25T10:28:02.000Z</time>
      </trkpt>
      <trkpt lat="45.49816" lon="6.62253">
        <ele>2265.3999023438</ele>
        <time>2012-02-25T10:28:05.000Z</time>
      </trkpt>
      <trkpt lat="45.49815" lon="6.62253">
        <ele>2265.6000976562</ele>
        <time>2012-02-25T10:28:33.000Z</time>
      </trkpt>
      <trkpt lat="45.49806" lon="6.6226">
        <ele>2267</ele>
        <time>2012-02-25T10:28:37.000Z</time>
      </trkpt>
      <trkpt lat="45.49803" lon="6.62263">
        <ele>2267.6000976562</ele>
        <time>2012-02-25T10:28:38.000Z</time>
      </trkpt>
      <trkpt lat="45.49789" lon="6.6226">
        <ele>2265.1999511719</ele>
        <time>2012-02-25T10:28:43.000Z</time>
      </trkpt>
      <trkpt lat="45.49795" lon="6.62249">
        <ele>2262.6000976562</ele>
        <time>2012-02-25T10:28:45.000Z</time>
      </trkpt>
      <trkpt lat="45.49799" lon="6.62244">
        <ele>2261.6000976562</ele>
        <time>2012-02-25T10:28:46.000Z</time>
      </trkpt>
      <trkpt lat="45.49807" lon="6.62232">
        <ele>2259.3999023438</ele>
        <time>2012-02-25T10:28:49.000Z</time>
      </trkpt>
      <trkpt lat="45.49811" lon="6.62227">
        <ele>2258.3999023438</ele>
        <time>2012-02-25T10:28:53.000Z</time>
      </trkpt>
      <trkpt lat="45.49815" lon="6.6222">
        <ele>2257.1999511719</ele>
        <time>2012-02-25T10:29:03.000Z</time>
      </trkpt>
      <trkpt lat="45.49828" lon="6.62201">
        <ele>2254.6000976562</ele>
        <time>2012-02-25T10:29:06.000Z</time>
      </trkpt>
      <trkpt lat="45.49832" lon="6.62192">
        <ele>2253.1999511719</ele>
        <time>2012-02-25T10:29:07.000Z</time>
      </trkpt>
      <trkpt lat="45.49837" lon="6.62177">
        <ele>2250</ele>
        <time>2012-02-25T10:29:09.000Z</time>
      </trkpt>
      <trkpt lat="45.49833" lon="6.62171">
        <ele>2248.8000488281</ele>
        <time>2012-02-25T10:29:11.000Z</time>
      </trkpt>
      <trkpt lat="45.49824" lon="6.62182">
        <ele>2249.6000976562</ele>
        <time>2012-02-25T10:29:13.000Z</time>
      </trkpt>
      <trkpt lat="45.49821" lon="6.62188">
        <ele>2250.6000976562</ele>
        <time>2012-02-25T10:29:14.000Z</time>
      </trkpt>
      <trkpt lat="45.49819" lon="6.62191">
        <ele>2251</ele>
        <time>2012-02-25T10:29:15.000Z</time>
      </trkpt>
      <trkpt lat="45.49819" lon="6.6219">
        <ele>2250.8000488281</ele>
        <time>2012-02-25T10:29:18.000Z</time>
      </trkpt>
      <trkpt lat="45.49819" lon="6.6219">
        <ele>2250.6000976562</ele>
        <time>2012-02-25T10:29:24.000Z</time>
      </trkpt>
      <trkpt lat="45.4982" lon="6.62176">
        <ele>2247.6000976562</ele>
        <time>2012-02-25T10:29:28.000Z</time>
      </trkpt>
      <trkpt lat="45.49822" lon="6.62151">
        <ele>2241</ele>
        <time>2012-02-25T10:29:32.000Z</time>
      </trkpt>
      <trkpt lat="45.49822" lon="6.6213">
        <ele>2234.3999023438</ele>
        <time>2012-02-25T10:29:37.000Z</time>
      </trkpt>
      <trkpt lat="45.49823" lon="6.62124">
        <ele>2232.6000976562</ele>
        <time>2012-02-25T10:29:39.000Z</time>
      </trkpt>
      <trkpt lat="45.49824" lon="6.62123">
        <ele>2232.1999511719</ele>
        <time>2012-02-25T10:29:52.000Z</time>
      </trkpt>
      <trkpt lat="45.49823" lon="6.62122">
        <ele>2231.6000976562</ele>
        <time>2012-02-25T10:29:53.000Z</time>
      </trkpt>
      <trkpt lat="45.49815" lon="6.62127">
        <ele>2232.1999511719</ele>
        <time>2012-02-25T10:29:56.000Z</time>
      </trkpt>
      <trkpt lat="45.49808" lon="6.62139">
        <ele>2234.3999023438</ele>
        <time>2012-02-25T10:30:00.000Z</time>
      </trkpt>
      <trkpt lat="45.49791" lon="6.62158">
        <ele>2237.1999511719</ele>
        <time>2012-02-25T10:30:04.000Z</time>
      </trkpt>
      <trkpt lat="45.49786" lon="6.62161">
        <ele>2237.1999511719</ele>
        <time>2012-02-25T10:30:05.000Z</time>
      </trkpt>
      <trkpt lat="45.49766" lon="6.62159">
        <ele>2232.8000488281</ele>
        <time>2012-02-25T10:30:10.000Z</time>
      </trkpt>
      <trkpt lat="45.49763" lon="6.62157">
        <ele>2231.6000976562</ele>
        <time>2012-02-25T10:30:11.000Z</time>
      </trkpt>
      <trkpt lat="45.49751" lon="6.62148">
        <ele>2227</ele>
        <time>2012-02-25T10:30:16.000Z</time>
      </trkpt>
      <trkpt lat="45.49739" lon="6.62144">
        <ele>2223.6000976562</ele>
        <time>2012-02-25T10:30:22.000Z</time>
      </trkpt>
      <trkpt lat="45.49727" lon="6.62142">
        <ele>2220.6000976562</ele>
        <time>2012-02-25T10:30:28.000Z</time>
      </trkpt>
      <trkpt lat="45.49723" lon="6.62144">
        <ele>2220.3999023438</ele>
        <time>2012-02-25T10:30:30.000Z</time>
      </trkpt>
      <trkpt lat="45.49721" lon="6.62147">
        <ele>2220.8000488281</ele>
        <time>2012-02-25T10:30:35.000Z</time>
      </trkpt>
      <trkpt lat="45.49719" lon="6.62146">
        <ele>2220.3999023438</ele>
        <time>2012-02-25T10:30:45.000Z</time>
      </trkpt>
      <trkpt lat="45.49718" lon="6.62138">
        <ele>2218</ele>
        <time>2012-02-25T10:30:49.000Z</time>
      </trkpt>
      <trkpt lat="45.49722" lon="6.62127">
        <ele>2215.3999023438</ele>
        <time>2012-02-25T10:30:53.000Z</time>
      </trkpt>
      <trkpt lat="45.49733" lon="6.62116">
        <ele>2214.6000976562</ele>
        <time>2012-02-25T10:30:56.000Z</time>
      </trkpt>
      <trkpt lat="45.49736" lon="6.62114">
        <ele>2214.8000488281</ele>
        <time>2012-02-25T10:30:57.000Z</time>
      </trkpt>
      <trkpt lat="45.49742" lon="6.62113">
        <ele>2215.6000976562</ele>
        <time>2012-02-25T10:31:00.000Z</time>
      </trkpt>
      <trkpt lat="45.49742" lon="6.62113">
        <ele>2215.6000976562</ele>
        <time>2012-02-25T10:31:07.000Z</time>
      </trkpt>
      <trkpt lat="45.49747" lon="6.62111">
        <ele>2216.1999511719</ele>
        <time>2012-02-25T10:31:16.000Z</time>
      </trkpt>
      <trkpt lat="45.49764" lon="6.62104">
        <ele>2217</ele>
        <time>2012-02-25T10:31:21.000Z</time>
      </trkpt>
      <trkpt lat="45.49778" lon="6.6209">
        <ele>2215</ele>
        <time>2012-02-25T10:31:25.000Z</time>
      </trkpt>
      <trkpt lat="45.49787" lon="6.62071">
        <ele>2209.8000488281</ele>
        <time>2012-02-25T10:31:29.000Z</time>
      </trkpt>
      <trkpt lat="45.49791" lon="6.62047">
        <ele>2201.6000976562</ele>
        <time>2012-02-25T10:31:33.000Z</time>
      </trkpt>
      <trkpt lat="45.49792" lon="6.62033">
        <ele>2196.8000488281</ele>
        <time>2012-02-25T10:31:37.000Z</time>
      </trkpt>
      <trkpt lat="45.49792" lon="6.62032">
        <ele>2196</ele>
        <time>2012-02-25T10:31:42.000Z</time>
      </trkpt>
      <trkpt lat="45.49795" lon="6.62023">
        <ele>2193</ele>
        <time>2012-02-25T10:31:47.000Z</time>
      </trkpt>
      <trkpt lat="45.49797" lon="6.62013">
        <ele>2189.1999511719</ele>
        <time>2012-02-25T10:31:52.000Z</time>
      </trkpt>
      <trkpt lat="45.49798" lon="6.62011">
        <ele>2188.1999511719</ele>
        <time>2012-02-25T10:31:53.000Z</time>
      </trkpt>
      <trkpt lat="45.49801" lon="6.62004">
        <ele>2185.6000976562</ele>
        <time>2012-02-25T10:31:58.000Z</time>
      </trkpt>
      <trkpt lat="45.49799" lon="6.62005">
        <ele>2186</ele>
        <time>2012-02-25T10:32:11.000Z</time>
      </trkpt>
      <trkpt lat="45.49789" lon="6.62011">
        <ele>2188.6000976562</ele>
        <time>2012-02-25T10:32:17.000Z</time>
      </trkpt>
      <trkpt lat="45.49775" lon="6.6202">
        <ele>2192.1999511719</ele>
        <time>2012-02-25T10:32:23.000Z</time>
      </trkpt>
      <trkpt lat="45.49764" lon="6.62036">
        <ele>2197</ele>
        <time>2012-02-25T10:32:28.000Z</time>
      </trkpt>
      <trkpt lat="45.49751" lon="6.62045">
        <ele>2199</ele>
        <time>2012-02-25T10:32:31.000Z</time>
      </trkpt>
      <trkpt lat="45.49739" lon="6.6204">
        <ele>2196.1999511719</ele>
        <time>2012-02-25T10:32:34.000Z</time>
      </trkpt>
      <trkpt lat="45.49732" lon="6.62024">
        <ele>2191.1999511719</ele>
        <time>2012-02-25T10:32:39.000Z</time>
      </trkpt>
      <trkpt lat="45.49726" lon="6.62009">
        <ele>2187.1999511719</ele>
        <time>2012-02-25T10:32:45.000Z</time>
      </trkpt>
      <trkpt lat="45.4972" lon="6.61998">
        <ele>2183.8000488281</ele>
        <time>2012-02-25T10:32:51.000Z</time>
      </trkpt>
      <trkpt lat="45.49713" lon="6.61989">
        <ele>2181</ele>
        <time>2012-02-25T10:32:56.000Z</time>
      </trkpt>
      <trkpt lat="45.49705" lon="6.6198">
        <ele>2178.1999511719</ele>
        <time>2012-02-25T10:33:02.000Z</time>
      </trkpt>
      <trkpt lat="45.49704" lon="6.6198">
        <ele>2178</ele>
        <time>2012-02-25T10:33:10.000Z</time>
      </trkpt>
      <trkpt lat="45.49697" lon="6.61973">
        <ele>2176</ele>
        <time>2012-02-25T10:33:14.000Z</time>
      </trkpt>
      <trkpt lat="45.49684" lon="6.6196">
        <ele>2172.3999023438</ele>
        <time>2012-02-25T10:33:19.000Z</time>
      </trkpt>
      <trkpt lat="45.49669" lon="6.61945">
        <ele>2168.1999511719</ele>
        <time>2012-02-25T10:33:27.000Z</time>
      </trkpt>
      <trkpt lat="45.49659" lon="6.61939">
        <ele>2165.3999023438</ele>
        <time>2012-02-25T10:33:33.000Z</time>
      </trkpt>
      <trkpt lat="45.49659" lon="6.61939">
        <ele>2165.1999511719</ele>
        <time>2012-02-25T10:33:39.000Z</time>
      </trkpt>
      <trkpt lat="45.49657" lon="6.61937">
        <ele>2164.3999023438</ele>
        <time>2012-02-25T10:33:52.000Z</time>
      </trkpt>
      <trkpt lat="45.49642" lon="6.61938">
        <ele>2161.8000488281</ele>
        <time>2012-02-25T10:33:59.000Z</time>
      </trkpt>
      <trkpt lat="45.49632" lon="6.61943">
        <ele>2160.6000976562</ele>
        <time>2012-02-25T10:34:05.000Z</time>
      </trkpt>
      <trkpt lat="45.49618" lon="6.61951">
        <ele>2158.6000976562</ele>
        <time>2012-02-25T10:34:09.000Z</time>
      </trkpt>
      <trkpt lat="45.49608" lon="6.61954">
        <ele>2156.8000488281</ele>
        <time>2012-02-25T10:34:12.000Z</time>
      </trkpt>
      <trkpt lat="45.49607" lon="6.61953">
        <ele>2156.6000976562</ele>
        <time>2012-02-25T10:34:17.000Z</time>
      </trkpt>
      <trkpt lat="45.49607" lon="6.61952">
        <ele>2156.3999023438</ele>
        <time>2012-02-25T10:34:31.000Z</time>
      </trkpt>
      <trkpt lat="45.49613" lon="6.61934">
        <ele>2155.6000976562</ele>
        <time>2012-02-25T10:34:35.000Z</time>
      </trkpt>
      <trkpt lat="45.49622" lon="6.6191">
        <ele>2153.8000488281</ele>
        <time>2012-02-25T10:34:38.000Z</time>
      </trkpt>
      <trkpt lat="45.49633" lon="6.61885">
        <ele>2150.8000488281</ele>
        <time>2012-02-25T10:34:42.000Z</time>
      </trkpt>
      <trkpt lat="45.49644" lon="6.61863">
        <ele>2147.8000488281</ele>
        <time>2012-02-25T10:34:46.000Z</time>
      </trkpt>
      <trkpt lat="45.49646" lon="6.61859">
        <ele>2147.1999511719</ele>
        <time>2012-02-25T10:34:47.000Z</time>
      </trkpt>
      <trkpt lat="45.49653" lon="6.6185">
        <ele>2146</ele>
        <time>2012-02-25T10:34:52.000Z</time>
      </trkpt>
      <trkpt lat="45.4965" lon="6.61851">
        <ele>2145.8000488281</ele>
        <time>2012-02-25T10:35:03.000Z</time>
      </trkpt>
      <trkpt lat="45.49636" lon="6.6185">
        <ele>2144.8000488281</ele>
        <time>2012-02-25T10:35:07.000Z</time>
      </trkpt>
      <trkpt lat="45.49615" lon="6.61848">
        <ele>2142.8000488281</ele>
        <time>2012-02-25T10:35:13.000Z</time>
      </trkpt>
      <trkpt lat="45.49593" lon="6.61839">
        <ele>2140.1999511719</ele>
        <time>2012-02-25T10:35:17.000Z</time>
      </trkpt>
      <trkpt lat="45.49589" lon="6.61837">
        <ele>2139.6000976562</ele>
        <time>2012-02-25T10:35:18.000Z</time>
      </trkpt>
      <trkpt lat="45.49583" lon="6.61832">
        <ele>2138.6000976562</ele>
        <time>2012-02-25T10:35:21.000Z</time>
      </trkpt>
      <trkpt lat="45.49582" lon="6.61828">
        <ele>2138</ele>
        <time>2012-02-25T10:35:23.000Z</time>
      </trkpt>
      <trkpt lat="45.49581" lon="6.6182">
        <ele>2136.3999023438</ele>
        <time>2012-02-25T10:35:27.000Z</time>
      </trkpt>
      <trkpt lat="45.49583" lon="6.61814">
        <ele>2136</ele>
        <time>2012-02-25T10:35:31.000Z</time>
      </trkpt>
      <trkpt lat="45.49592" lon="6.61813">
        <ele>2135.8000488281</ele>
        <time>2012-02-25T10:35:34.000Z</time>
      </trkpt>
      <trkpt lat="45.49611" lon="6.61811">
        <ele>2135.6000976562</ele>
        <time>2012-02-25T10:35:39.000Z</time>
      </trkpt>
      <trkpt lat="45.49621" lon="6.61808">
        <ele>2134.8000488281</ele>
        <time>2012-02-25T10:35:43.000Z</time>
      </trkpt>
      <trkpt lat="45.4963" lon="6.61807">
        <ele>2134.6000976562</ele>
        <time>2012-02-25T10:35:47.000Z</time>
      </trkpt>
      <trkpt lat="45.4963" lon="6.61807">
        <ele>2134.6000976562</ele>
        <time>2012-02-25T10:35:56.000Z</time>
      </trkpt>
      <trkpt lat="45.49637" lon="6.61803">
        <ele>2133.6000976562</ele>
        <time>2012-02-25T10:36:02.000Z</time>
      </trkpt>
      <trkpt lat="45.49656" lon="6.61788">
        <ele>2128.8000488281</ele>
        <time>2012-02-25T10:36:06.000Z</time>
      </trkpt>
      <trkpt lat="45.49666" lon="6.61778">
        <ele>2125</ele>
        <time>2012-02-25T10:36:10.000Z</time>
      </trkpt>
      <trkpt lat="45.49667" lon="6.61776">
        <ele>2124.3999023438</ele>
        <time>2012-02-25T10:36:14.000Z</time>
      </trkpt>
      <trkpt lat="45.49665" lon="6.61773">
        <ele>2123.6000976562</ele>
        <time>2012-02-25T10:36:17.000Z</time>
      </trkpt>
      <trkpt lat="45.49647" lon="6.61772">
        <ele>2124.6000976562</ele>
        <time>2012-02-25T10:36:21.000Z</time>
      </trkpt>
      <trkpt lat="45.4963" lon="6.61763">
        <ele>2123.6000976562</ele>
        <time>2012-02-25T10:36:25.000Z</time>
      </trkpt>
      <trkpt lat="45.49618" lon="6.61741">
        <ele>2119.6000976562</ele>
        <time>2012-02-25T10:36:30.000Z</time>
      </trkpt>
      <trkpt lat="45.49617" lon="6.61735">
        <ele>2118.1999511719</ele>
        <time>2012-02-25T10:36:31.000Z</time>
      </trkpt>
      <trkpt lat="45.49615" lon="6.61727">
        <ele>2116.1999511719</ele>
        <time>2012-02-25T10:36:33.000Z</time>
      </trkpt>
      <trkpt lat="45.49613" lon="6.61716">
        <ele>2114</ele>
        <time>2012-02-25T10:36:38.000Z</time>
      </trkpt>
      <trkpt lat="45.49613" lon="6.61716">
        <ele>2113.8000488281</ele>
        <time>2012-02-25T10:36:46.000Z</time>
      </trkpt>
      <trkpt lat="45.49621" lon="6.61714">
        <ele>2112</ele>
        <time>2012-02-25T10:36:50.000Z</time>
      </trkpt>
      <trkpt lat="45.49621" lon="6.61701">
        <ele>2108.8000488281</ele>
        <time>2012-02-25T10:36:53.000Z</time>
      </trkpt>
      <trkpt lat="45.49619" lon="6.61696">
        <ele>2107.8000488281</ele>
        <time>2012-02-25T10:36:55.000Z</time>
      </trkpt>
      <trkpt lat="45.49619" lon="6.61695">
        <ele>2107.3999023438</ele>
        <time>2012-02-25T10:36:57.000Z</time>
      </trkpt>
      <trkpt lat="45.49619" lon="6.61692">
        <ele>2106.6000976562</ele>
        <time>2012-02-25T10:37:02.000Z</time>
      </trkpt>
      <trkpt lat="45.4962" lon="6.61692">
        <ele>2106.3999023438</ele>
        <time>2012-02-25T10:37:15.000Z</time>
      </trkpt>
      <trkpt lat="45.49627" lon="6.61697">
        <ele>2106.1999511719</ele>
        <time>2012-02-25T10:37:19.000Z</time>
      </trkpt>
      <trkpt lat="45.49646" lon="6.61706">
        <ele>2104.6000976562</ele>
        <time>2012-02-25T10:37:24.000Z</time>
      </trkpt>
      <trkpt lat="45.49662" lon="6.61711">
        <ele>2103.1999511719</ele>
        <time>2012-02-25T10:37:28.000Z</time>
      </trkpt>
      <trkpt lat="45.49664" lon="6.6171">
        <ele>2102.6000976562</ele>
        <time>2012-02-25T10:37:29.000Z</time>
      </trkpt>
      <trkpt lat="45.49664" lon="6.61704">
        <ele>2100.6000976562</ele>
        <time>2012-02-25T10:37:31.000Z</time>
      </trkpt>
      <trkpt lat="45.49661" lon="6.61701">
        <ele>2100.1999511719</ele>
        <time>2012-02-25T10:37:32.000Z</time>
      </trkpt>
      <trkpt lat="45.49642" lon="6.61682">
        <ele>2098.3999023438</ele>
        <time>2012-02-25T10:37:38.000Z</time>
      </trkpt>
      <trkpt lat="45.49634" lon="6.61669">
        <ele>2096.6000976562</ele>
        <time>2012-02-25T10:37:41.000Z</time>
      </trkpt>
      <trkpt lat="45.49643" lon="6.61663">
        <ele>2092.1999511719</ele>
        <time>2012-02-25T10:37:44.000Z</time>
      </trkpt>
      <trkpt lat="45.49651" lon="6.61653">
        <ele>2086.3999023438</ele>
        <time>2012-02-25T10:37:47.000Z</time>
      </trkpt>
      <trkpt lat="45.49646" lon="6.61642">
        <ele>2084</ele>
        <time>2012-02-25T10:37:49.000Z</time>
      </trkpt>
      <trkpt lat="45.49638" lon="6.61623">
        <ele>2080</ele>
        <time>2012-02-25T10:37:53.000Z</time>
      </trkpt>
      <trkpt lat="45.49637" lon="6.61622">
        <ele>2079.6000976562</ele>
        <time>2012-02-25T10:37:56.000Z</time>
      </trkpt>
      <trkpt lat="45.4964" lon="6.61623">
        <ele>2079.1999511719</ele>
        <time>2012-02-25T10:38:14.000Z</time>
      </trkpt>
      <trkpt lat="45.49651" lon="6.6163">
        <ele>2078.3999023438</ele>
        <time>2012-02-25T10:38:18.000Z</time>
      </trkpt>
      <trkpt lat="45.4967" lon="6.6164">
        <ele>2076</ele>
        <time>2012-02-25T10:38:24.000Z</time>
      </trkpt>
      <trkpt lat="45.49677" lon="6.61641">
        <ele>2073.8000488281</ele>
        <time>2012-02-25T10:38:28.000Z</time>
      </trkpt>
      <trkpt lat="45.49681" lon="6.61642">
        <ele>2072.8000488281</ele>
        <time>2012-02-25T10:38:33.000Z</time>
      </trkpt>
      <trkpt lat="45.4968" lon="6.6164">
        <ele>2072.1999511719</ele>
        <time>2012-02-25T10:38:38.000Z</time>
      </trkpt>
      <trkpt lat="45.49672" lon="6.61631">
        <ele>2071.8000488281</ele>
        <time>2012-02-25T10:38:42.000Z</time>
      </trkpt>
      <trkpt lat="45.49664" lon="6.61622">
        <ele>2071.3999023438</ele>
        <time>2012-02-25T10:38:47.000Z</time>
      </trkpt>
      <trkpt lat="45.49664" lon="6.61622">
        <ele>2071.1999511719</ele>
        <time>2012-02-25T10:38:48.000Z</time>
      </trkpt>
      <trkpt lat="45.49662" lon="6.61617">
        <ele>2070</ele>
        <time>2012-02-25T10:38:54.000Z</time>
      </trkpt>
      <trkpt lat="45.49663" lon="6.61616">
        <ele>2069.6000976562</ele>
        <time>2012-02-25T10:38:58.000Z</time>
      </trkpt>
      <trkpt lat="45.49668" lon="6.61618">
        <ele>2068.3999023438</ele>
        <time>2012-02-25T10:39:03.000Z</time>
      </trkpt>
      <trkpt lat="45.49669" lon="6.61618">
        <ele>2068</ele>
        <time>2012-02-25T10:39:09.000Z</time>
      </trkpt>
      <trkpt lat="45.49679" lon="6.61619">
        <ele>2064.1999511719</ele>
        <time>2012-02-25T10:39:14.000Z</time>
      </trkpt>
      <trkpt lat="45.49673" lon="6.61613">
        <ele>2064.1999511719</ele>
        <time>2012-02-25T10:39:22.000Z</time>
      </trkpt>
      <trkpt lat="45.49672" lon="6.61612">
        <ele>2064.1999511719</ele>
        <time>2012-02-25T10:39:23.000Z</time>
      </trkpt>
      <trkpt lat="45.49668" lon="6.61603">
        <ele>2062.6000976562</ele>
        <time>2012-02-25T10:39:28.000Z</time>
      </trkpt>
      <trkpt lat="45.49667" lon="6.61599">
        <ele>2062</ele>
        <time>2012-02-25T10:39:34.000Z</time>
      </trkpt>
      <trkpt lat="45.49668" lon="6.616">
        <ele>2061.8000488281</ele>
        <time>2012-02-25T10:39:40.000Z</time>
      </trkpt>
      <trkpt lat="45.49676" lon="6.61602">
        <ele>2058.6000976562</ele>
        <time>2012-02-25T10:39:45.000Z</time>
      </trkpt>
      <trkpt lat="45.49681" lon="6.61602">
        <ele>2056.1999511719</ele>
        <time>2012-02-25T10:39:47.000Z</time>
      </trkpt>
      <trkpt lat="45.49686" lon="6.61601">
        <ele>2053.6000976562</ele>
        <time>2012-02-25T10:39:50.000Z</time>
      </trkpt>
      <trkpt lat="45.49685" lon="6.616">
        <ele>2053.6000976562</ele>
        <time>2012-02-25T10:39:56.000Z</time>
      </trkpt>
      <trkpt lat="45.49684" lon="6.61597">
        <ele>2053.3999023438</ele>
        <time>2012-02-25T10:39:59.000Z</time>
      </trkpt>
      <trkpt lat="45.49678" lon="6.61594">
        <ele>2054.6000976562</ele>
        <time>2012-02-25T10:40:04.000Z</time>
      </trkpt>
      <trkpt lat="45.49673" lon="6.6159">
        <ele>2055.3999023438</ele>
        <time>2012-02-25T10:40:09.000Z</time>
      </trkpt>
      <trkpt lat="45.4967" lon="6.61581">
        <ele>2053.6000976562</ele>
        <time>2012-02-25T10:40:19.000Z</time>
      </trkpt>
      <trkpt lat="45.4967" lon="6.6158">
        <ele>2053</ele>
        <time>2012-02-25T10:40:23.000Z</time>
      </trkpt>
      <trkpt lat="45.49672" lon="6.6158">
        <ele>2051.6000976562</ele>
        <time>2012-02-25T10:40:29.000Z</time>
      </trkpt>
      <trkpt lat="45.49677" lon="6.6158">
        <ele>2049</ele>
        <time>2012-02-25T10:40:33.000Z</time>
      </trkpt>
      <trkpt lat="45.49677" lon="6.61578">
        <ele>2048.1999511719</ele>
        <time>2012-02-25T10:40:38.000Z</time>
      </trkpt>
      <trkpt lat="45.49684" lon="6.61577">
        <ele>2044.1999511719</ele>
        <time>2012-02-25T10:40:41.000Z</time>
      </trkpt>
      <trkpt lat="45.49689" lon="6.61576">
        <ele>2041.1999511719</ele>
        <time>2012-02-25T10:40:45.000Z</time>
      </trkpt>
      <trkpt lat="45.49688" lon="6.61576">
        <ele>2041.8000488281</ele>
        <time>2012-02-25T10:40:48.000Z</time>
      </trkpt>
      <trkpt lat="45.49685" lon="6.61571">
        <ele>2040.5999755859</ele>
        <time>2012-02-25T10:40:53.000Z</time>
      </trkpt>
      <trkpt lat="45.49679" lon="6.61567">
        <ele>2041.4000244141</ele>
        <time>2012-02-25T10:40:56.000Z</time>
      </trkpt>
      <trkpt lat="45.49674" lon="6.61562">
        <ele>2041.5999755859</ele>
        <time>2012-02-25T10:41:00.000Z</time>
      </trkpt>
      <trkpt lat="45.49675" lon="6.61561">
        <ele>2041</ele>
        <time>2012-02-25T10:41:05.000Z</time>
      </trkpt>
      <trkpt lat="45.49678" lon="6.6156">
        <ele>2039</ele>
        <time>2012-02-25T10:41:08.000Z</time>
      </trkpt>
      <trkpt lat="45.49678" lon="6.61561">
        <ele>2039.1999511719</ele>
        <time>2012-02-25T10:41:16.000Z</time>
      </trkpt>
      <trkpt lat="45.49679" lon="6.61561">
        <ele>2038.5999755859</ele>
        <time>2012-02-25T10:41:17.000Z</time>
      </trkpt>
      <trkpt lat="45.49684" lon="6.61561">
        <ele>2036.4000244141</ele>
        <time>2012-02-25T10:41:20.000Z</time>
      </trkpt>
      <trkpt lat="45.49683" lon="6.6156">
        <ele>2036.4000244141</ele>
        <time>2012-02-25T10:41:23.000Z</time>
      </trkpt>
      <trkpt lat="45.49681" lon="6.61555">
        <ele>2034.8000488281</ele>
        <time>2012-02-25T10:41:27.000Z</time>
      </trkpt>
      <trkpt lat="45.49679" lon="6.61548">
        <ele>2032.5999755859</ele>
        <time>2012-02-25T10:41:38.000Z</time>
      </trkpt>
      <trkpt lat="45.49674" lon="6.61539">
        <ele>2030.1999511719</ele>
        <time>2012-02-25T10:41:41.000Z</time>
      </trkpt>
      <trkpt lat="45.49671" lon="6.61534">
        <ele>2029</ele>
        <time>2012-02-25T10:41:45.000Z</time>
      </trkpt>
      <trkpt lat="45.49674" lon="6.61533">
        <ele>2027.1999511719</ele>
        <time>2012-02-25T10:41:56.000Z</time>
      </trkpt>
      <trkpt lat="45.49685" lon="6.61533">
        <ele>2022.4000244141</ele>
        <time>2012-02-25T10:42:18.000Z</time>
      </trkpt>
      <trkpt lat="45.49694" lon="6.61539">
        <ele>2021</ele>
        <time>2012-02-25T10:42:21.000Z</time>
      </trkpt>
      <trkpt lat="45.49697" lon="6.61539">
        <ele>2019.4000244141</ele>
        <time>2012-02-25T10:42:22.000Z</time>
      </trkpt>
      <trkpt lat="45.49707" lon="6.61541">
        <ele>2015.5999755859</ele>
        <time>2012-02-25T10:42:24.000Z</time>
      </trkpt>
      <trkpt lat="45.49712" lon="6.61543">
        <ele>2014.1999511719</ele>
        <time>2012-02-25T10:42:25.000Z</time>
      </trkpt>
      <trkpt lat="45.49728" lon="6.61551">
        <ele>2010.8000488281</ele>
        <time>2012-02-25T10:42:29.000Z</time>
      </trkpt>
      <trkpt lat="45.49743" lon="6.61558">
        <ele>2007</ele>
        <time>2012-02-25T10:42:33.000Z</time>
      </trkpt>
      <trkpt lat="45.49751" lon="6.61563">
        <ele>2005.5999755859</ele>
        <time>2012-02-25T10:42:35.000Z</time>
      </trkpt>
      <trkpt lat="45.49756" lon="6.61566">
        <ele>2006</ele>
        <time>2012-02-25T10:42:39.000Z</time>
      </trkpt>
      <trkpt lat="45.49758" lon="6.61565">
        <ele>2005.1999511719</ele>
        <time>2012-02-25T10:42:47.000Z</time>
      </trkpt>
      <trkpt lat="45.4977" lon="6.6157">
        <ele>2004.8000488281</ele>
        <time>2012-02-25T10:42:51.000Z</time>
      </trkpt>
      <trkpt lat="45.49774" lon="6.61572">
        <ele>2004.8000488281</ele>
        <time>2012-02-25T10:42:52.000Z</time>
      </trkpt>
      <trkpt lat="45.4979" lon="6.61575">
        <ele>2002.5999755859</ele>
        <time>2012-02-25T10:42:57.000Z</time>
      </trkpt>
      <trkpt lat="45.49801" lon="6.61571">
        <ele>1998.5999755859</ele>
        <time>2012-02-25T10:43:00.000Z</time>
      </trkpt>
      <trkpt lat="45.49824" lon="6.61564">
        <ele>1991.4000244141</ele>
        <time>2012-02-25T10:43:04.000Z</time>
      </trkpt>
      <trkpt lat="45.49844" lon="6.61559">
        <ele>1987.1999511719</ele>
        <time>2012-02-25T10:43:08.000Z</time>
      </trkpt>
      <trkpt lat="45.49865" lon="6.61554">
        <ele>1985.4000244141</ele>
        <time>2012-02-25T10:43:12.000Z</time>
      </trkpt>
      <trkpt lat="45.4987" lon="6.61554">
        <ele>1985</ele>
        <time>2012-02-25T10:43:13.000Z</time>
      </trkpt>
      <trkpt lat="45.49894" lon="6.61554">
        <ele>1984.8000488281</ele>
        <time>2012-02-25T10:43:18.000Z</time>
      </trkpt>
      <trkpt lat="45.49899" lon="6.61554">
        <ele>1984.5999755859</ele>
        <time>2012-02-25T10:43:19.000Z</time>
      </trkpt>
      <trkpt lat="45.49911" lon="6.61558">
        <ele>1985.4000244141</ele>
        <time>2012-02-25T10:43:22.000Z</time>
      </trkpt>
      <trkpt lat="45.49932" lon="6.61554">
        <ele>1983.4000244141</ele>
        <time>2012-02-25T10:43:26.000Z</time>
      </trkpt>
      <trkpt lat="45.49953" lon="6.61542">
        <ele>1979.5999755859</ele>
        <time>2012-02-25T10:43:31.000Z</time>
      </trkpt>
      <trkpt lat="45.49956" lon="6.61541">
        <ele>1979.4000244141</ele>
        <time>2012-02-25T10:43:32.000Z</time>
      </trkpt>
      <trkpt lat="45.49966" lon="6.61542">
        <ele>1979</ele>
        <time>2012-02-25T10:43:38.000Z</time>
      </trkpt>
      <trkpt lat="45.49981" lon="6.6154">
        <ele>1977.5999755859</ele>
        <time>2012-02-25T10:43:42.000Z</time>
      </trkpt>
      <trkpt lat="45.49996" lon="6.61534">
        <ele>1975.8000488281</ele>
        <time>2012-02-25T10:43:46.000Z</time>
      </trkpt>
      <trkpt lat="45.49998" lon="6.61534">
        <ele>1975.8000488281</ele>
        <time>2012-02-25T10:43:47.000Z</time>
      </trkpt>
      <trkpt lat="45.50005" lon="6.61537">
        <ele>1975.1999511719</ele>
        <time>2012-02-25T10:43:53.000Z</time>
      </trkpt>
      <trkpt lat="45.50008" lon="6.61537">
        <ele>1974.5999755859</ele>
        <time>2012-02-25T10:43:58.000Z</time>
      </trkpt>
      <trkpt lat="45.50013" lon="6.61533">
        <ele>1973</ele>
        <time>2012-02-25T10:44:06.000Z</time>
      </trkpt>
      <trkpt lat="45.50025" lon="6.61536">
        <ele>1971.1999511719</ele>
        <time>2012-02-25T10:44:11.000Z</time>
      </trkpt>
      <trkpt lat="45.50043" lon="6.61545">
        <ele>1969.5999755859</ele>
        <time>2012-02-25T10:44:18.000Z</time>
      </trkpt>
      <trkpt lat="45.50048" lon="6.61548">
        <ele>1969</ele>
        <time>2012-02-25T10:44:20.000Z</time>
      </trkpt>
      <trkpt lat="45.50062" lon="6.61534">
        <ele>1963.4000244141</ele>
        <time>2012-02-25T10:44:24.000Z</time>
      </trkpt>
      <trkpt lat="45.50084" lon="6.61539">
        <ele>1960.4000244141</ele>
        <time>2012-02-25T10:44:28.000Z</time>
      </trkpt>
      <trkpt lat="45.50098" lon="6.61548">
        <ele>1959.1999511719</ele>
        <time>2012-02-25T10:44:31.000Z</time>
      </trkpt>
      <trkpt lat="45.50104" lon="6.61553">
        <ele>1959</ele>
        <time>2012-02-25T10:44:33.000Z</time>
      </trkpt>
      <trkpt lat="45.50114" lon="6.61548">
        <ele>1955.4000244141</ele>
        <time>2012-02-25T10:44:37.000Z</time>
      </trkpt>
      <trkpt lat="45.50111" lon="6.61536">
        <ele>1953.4000244141</ele>
        <time>2012-02-25T10:44:39.000Z</time>
      </trkpt>
      <trkpt lat="45.50104" lon="6.61513">
        <ele>1950.1999511719</ele>
        <time>2012-02-25T10:44:43.000Z</time>
      </trkpt>
      <trkpt lat="45.50111" lon="6.61501">
        <ele>1946.1999511719</ele>
        <time>2012-02-25T10:44:46.000Z</time>
      </trkpt>
      <trkpt lat="45.50129" lon="6.61508">
        <ele>1943.8000488281</ele>
        <time>2012-02-25T10:44:50.000Z</time>
      </trkpt>
      <trkpt lat="45.50131" lon="6.61511">
        <ele>1943.8000488281</ele>
        <time>2012-02-25T10:44:51.000Z</time>
      </trkpt>
      <trkpt lat="45.50134" lon="6.61514">
        <ele>1944</ele>
        <time>2012-02-25T10:44:55.000Z</time>
      </trkpt>
      <trkpt lat="45.50134" lon="6.61514">
        <ele>1944</ele>
        <time>2012-02-25T10:45:07.000Z</time>
      </trkpt>
      <trkpt lat="45.50135" lon="6.61513">
        <ele>1943.5999755859</ele>
        <time>2012-02-25T10:45:09.000Z</time>
      </trkpt>
      <trkpt lat="45.50124" lon="6.61478">
        <ele>1939</ele>
        <time>2012-02-25T10:45:16.000Z</time>
      </trkpt>
      <trkpt lat="45.50114" lon="6.61452">
        <ele>1936</ele>
        <time>2012-02-25T10:45:20.000Z</time>
      </trkpt>
      <trkpt lat="45.5011" lon="6.61439">
        <ele>1934.5999755859</ele>
        <time>2012-02-25T10:45:22.000Z</time>
      </trkpt>
      <trkpt lat="45.50108" lon="6.61402">
        <ele>1928.5999755859</ele>
        <time>2012-02-25T10:45:27.000Z</time>
      </trkpt>
      <trkpt lat="45.50108" lon="6.61388">
        <ele>1926.4000244141</ele>
        <time>2012-02-25T10:45:29.000Z</time>
      </trkpt>
      <trkpt lat="45.50105" lon="6.61353">
        <ele>1922</ele>
        <time>2012-02-25T10:45:33.000Z</time>
      </trkpt>
      <trkpt lat="45.50105" lon="6.61345">
        <ele>1921</ele>
        <time>2012-02-25T10:45:34.000Z</time>
      </trkpt>
      <trkpt lat="45.50104" lon="6.6133">
        <ele>1918.8000488281</ele>
        <time>2012-02-25T10:45:36.000Z</time>
      </trkpt>
      <trkpt lat="45.50107" lon="6.61299">
        <ele>1913.4000244141</ele>
        <time>2012-02-25T10:45:40.000Z</time>
      </trkpt>
      <trkpt lat="45.50119" lon="6.61292">
        <ele>1910.4000244141</ele>
        <time>2012-02-25T10:45:42.000Z</time>
      </trkpt>
      <trkpt lat="45.5014" lon="6.61297">
        <ele>1907.5999755859</ele>
        <time>2012-02-25T10:45:45.000Z</time>
      </trkpt>
      <trkpt lat="45.50146" lon="6.613">
        <ele>1907</ele>
        <time>2012-02-25T10:45:46.000Z</time>
      </trkpt>
      <trkpt lat="45.5017" lon="6.61313">
        <ele>1904.8000488281</ele>
        <time>2012-02-25T10:45:50.000Z</time>
      </trkpt>
      <trkpt lat="45.50177" lon="6.61315">
        <ele>1904.8000488281</ele>
        <time>2012-02-25T10:45:51.000Z</time>
      </trkpt>
      <trkpt lat="45.50192" lon="6.61316">
        <ele>1904</ele>
        <time>2012-02-25T10:45:53.000Z</time>
      </trkpt>
      <trkpt lat="45.50215" lon="6.61308">
        <ele>1901.1999511719</ele>
        <time>2012-02-25T10:45:57.000Z</time>
      </trkpt>
      <trkpt lat="45.50224" lon="6.61306">
        <ele>1900.1999511719</ele>
        <time>2012-02-25T10:46:00.000Z</time>
      </trkpt>
      <trkpt lat="45.50224" lon="6.61306">
        <ele>1900.1999511719</ele>
        <time>2012-02-25T10:46:01.000Z</time>
      </trkpt>
      <trkpt lat="45.50228" lon="6.61302">
        <ele>1899.1999511719</ele>
        <time>2012-02-25T10:46:13.000Z</time>
      </trkpt>
      <trkpt lat="45.50243" lon="6.61296">
        <ele>1896.8000488281</ele>
        <time>2012-02-25T10:46:17.000Z</time>
      </trkpt>
      <trkpt lat="45.5025" lon="6.61295">
        <ele>1896.1999511719</ele>
        <time>2012-02-25T10:46:19.000Z</time>
      </trkpt>
      <trkpt lat="45.50253" lon="6.61277">
        <ele>1892.4000244141</ele>
        <time>2012-02-25T10:46:22.000Z</time>
      </trkpt>
      <trkpt lat="45.50244" lon="6.61258">
        <ele>1889.4000244141</ele>
        <time>2012-02-25T10:46:25.000Z</time>
      </trkpt>
      <trkpt lat="45.5024" lon="6.61255">
        <ele>1889.1999511719</ele>
        <time>2012-02-25T10:46:26.000Z</time>
      </trkpt>
      <trkpt lat="45.50221" lon="6.61241">
        <ele>1888</ele>
        <time>2012-02-25T10:46:30.000Z</time>
      </trkpt>
      <trkpt lat="45.50206" lon="6.61229">
        <ele>1887</ele>
        <time>2012-02-25T10:46:33.000Z</time>
      </trkpt>
      <trkpt lat="45.50185" lon="6.61204">
        <ele>1884</ele>
        <time>2012-02-25T10:46:39.000Z</time>
      </trkpt>
      <trkpt lat="45.50171" lon="6.61182">
        <ele>1880.8000488281</ele>
        <time>2012-02-25T10:46:43.000Z</time>
      </trkpt>
      <trkpt lat="45.50162" lon="6.61167">
        <ele>1879.1999511719</ele>
        <time>2012-02-25T10:46:45.000Z</time>
      </trkpt>
      <trkpt lat="45.50155" lon="6.61132">
        <ele>1877.1999511719</ele>
        <time>2012-02-25T10:46:49.000Z</time>
      </trkpt>
      <trkpt lat="45.50156" lon="6.61117">
        <ele>1875.1999511719</ele>
        <time>2012-02-25T10:46:51.000Z</time>
      </trkpt>
      <trkpt lat="45.5016" lon="6.61079">
        <ele>1869.1999511719</ele>
        <time>2012-02-25T10:46:56.000Z</time>
      </trkpt>
      <trkpt lat="45.50161" lon="6.61073">
        <ele>1868</ele>
        <time>2012-02-25T10:46:57.000Z</time>
      </trkpt>
      <trkpt lat="45.50172" lon="6.61054">
        <ele>1862.5999755859</ele>
        <time>2012-02-25T10:47:02.000Z</time>
      </trkpt>
      <trkpt lat="45.50181" lon="6.61052">
        <ele>1861</ele>
        <time>2012-02-25T10:47:04.000Z</time>
      </trkpt>
      <trkpt lat="45.50192" lon="6.61055">
        <ele>1859.8000488281</ele>
        <time>2012-02-25T10:47:09.000Z</time>
      </trkpt>
      <trkpt lat="45.50195" lon="6.61055">
        <ele>1859.4000244141</ele>
        <time>2012-02-25T10:47:28.000Z</time>
      </trkpt>
      <trkpt lat="45.50206" lon="6.61062">
        <ele>1858.8000488281</ele>
        <time>2012-02-25T10:47:33.000Z</time>
      </trkpt>
      <trkpt lat="45.50209" lon="6.61064">
        <ele>1858.5999755859</ele>
        <time>2012-02-25T10:47:34.000Z</time>
      </trkpt>
      <trkpt lat="45.50236" lon="6.61065">
        <ele>1854.8000488281</ele>
        <time>2012-02-25T10:47:39.000Z</time>
      </trkpt>
      <trkpt lat="45.50241" lon="6.61066">
        <ele>1854</ele>
        <time>2012-02-25T10:47:40.000Z</time>
      </trkpt>
      <trkpt lat="45.50261" lon="6.6105">
        <ele>1850</ele>
        <time>2012-02-25T10:47:44.000Z</time>
      </trkpt>
      <trkpt lat="45.50267" lon="6.6103">
        <ele>1846.4000244141</ele>
        <time>2012-02-25T10:47:48.000Z</time>
      </trkpt>
      <trkpt lat="45.50267" lon="6.61025">
        <ele>1845.8000488281</ele>
        <time>2012-02-25T10:47:49.000Z</time>
      </trkpt>
      <trkpt lat="45.50267" lon="6.61021">
        <ele>1845.1999511719</ele>
        <time>2012-02-25T10:47:50.000Z</time>
      </trkpt>
      <trkpt lat="45.50274" lon="6.61005">
        <ele>1842</ele>
        <time>2012-02-25T10:47:54.000Z</time>
      </trkpt>
      <trkpt lat="45.50277" lon="6.61004">
        <ele>1841.4000244141</ele>
        <time>2012-02-25T10:47:55.000Z</time>
      </trkpt>
      <trkpt lat="45.50288" lon="6.61001">
        <ele>1839.8000488281</ele>
        <time>2012-02-25T10:48:00.000Z</time>
      </trkpt>
      <trkpt lat="45.50298" lon="6.61001">
        <ele>1838.4000244141</ele>
        <time>2012-02-25T10:48:06.000Z</time>
      </trkpt>
      <trkpt lat="45.50305" lon="6.61003">
        <ele>1838</ele>
        <time>2012-02-25T10:48:11.000Z</time>
      </trkpt>
      <trkpt lat="45.50306" lon="6.61003">
        <ele>1838</ele>
        <time>2012-02-25T10:48:12.000Z</time>
      </trkpt>
      <trkpt lat="45.5031" lon="6.61004">
        <ele>1837.5999755859</ele>
        <time>2012-02-25T10:48:16.000Z</time>
      </trkpt>
      <trkpt lat="45.50316" lon="6.61007">
        <ele>1837.5999755859</ele>
        <time>2012-02-25T10:48:21.000Z</time>
      </trkpt>
      <trkpt lat="45.50325" lon="6.61011">
        <ele>1837.4000244141</ele>
        <time>2012-02-25T10:48:28.000Z</time>
      </trkpt>
      <trkpt lat="45.50333" lon="6.61014">
        <ele>1837.1999511719</ele>
        <time>2012-02-25T10:48:33.000Z</time>
      </trkpt>
      <trkpt lat="45.50341" lon="6.61016">
        <ele>1838.4000244141</ele>
        <time>2012-02-25T10:48:39.000Z</time>
      </trkpt>
      <trkpt lat="45.50348" lon="6.61019">
        <ele>1839.5999755859</ele>
        <time>2012-02-25T10:48:45.000Z</time>
      </trkpt>
      <trkpt lat="45.50353" lon="6.61021">
        <ele>1840.5999755859</ele>
        <time>2012-02-25T10:48:50.000Z</time>
      </trkpt>
      <trkpt lat="45.50358" lon="6.61024">
        <ele>1841.5999755859</ele>
        <time>2012-02-25T10:48:55.000Z</time>
      </trkpt>
      <trkpt lat="45.50359" lon="6.61024">
        <ele>1841.5999755859</ele>
        <time>2012-02-25T10:48:56.000Z</time>
      </trkpt>
      <trkpt lat="45.50363" lon="6.61022">
        <ele>1841.5999755859</ele>
        <time>2012-02-25T10:49:01.000Z</time>
      </trkpt>
      <trkpt lat="45.50367" lon="6.61021">
        <ele>1841.5999755859</ele>
        <time>2012-02-25T10:49:02.000Z</time>
      </trkpt>
      <trkpt lat="45.50374" lon="6.6102">
        <ele>1842</ele>
        <time>2012-02-25T10:49:06.000Z</time>
      </trkpt>
      <trkpt lat="45.50377" lon="6.61017">
        <ele>1841.8000488281</ele>
        <time>2012-02-25T10:49:07.000Z</time>
      </trkpt>
      <trkpt lat="45.50382" lon="6.61012">
        <ele>1841.1999511719</ele>
        <time>2012-02-25T10:49:11.000Z</time>
      </trkpt>
      <trkpt lat="45.50383" lon="6.61008">
        <ele>1840.5999755859</ele>
        <time>2012-02-25T10:49:14.000Z</time>
      </trkpt>
      <trkpt lat="45.50377" lon="6.61003">
        <ele>1839</ele>
        <time>2012-02-25T10:49:18.000Z</time>
      </trkpt>
      <trkpt lat="45.50377" lon="6.61003">
        <ele>1838.8000488281</ele>
        <time>2012-02-25T10:49:19.000Z</time>
      </trkpt>
      <trkpt lat="45.50377" lon="6.61003">
        <ele>1838.8000488281</ele>
        <time>2012-02-25T10:49:22.000Z</time>
      </trkpt>
      <trkpt lat="45.50373" lon="6.60995">
        <ele>1836.5999755859</ele>
        <time>2012-02-25T10:49:25.000Z</time>
      </trkpt>
      <trkpt lat="45.50375" lon="6.60993">
        <ele>1836.1999511719</ele>
        <time>2012-02-25T10:49:26.000Z</time>
      </trkpt>
      <trkpt lat="45.50373" lon="6.60992">
        <ele>1835.8000488281</ele>
        <time>2012-02-25T10:49:33.000Z</time>
      </trkpt>
      <trkpt lat="45.50371" lon="6.60991">
        <ele>1835.1999511719</ele>
        <time>2012-02-25T10:49:34.000Z</time>
      </trkpt>
      <trkpt lat="45.50369" lon="6.60989">
        <ele>1834.5999755859</ele>
        <time>2012-02-25T10:49:37.000Z</time>
      </trkpt>
      <trkpt lat="45.50375" lon="6.60978">
        <ele>1832.4000244141</ele>
        <time>2012-02-25T10:49:41.000Z</time>
      </trkpt>
      <trkpt lat="45.50378" lon="6.60974">
        <ele>1831.5999755859</ele>
        <time>2012-02-25T10:49:44.000Z</time>
      </trkpt>
      <trkpt lat="45.50379" lon="6.60973">
        <ele>1831.4000244141</ele>
        <time>2012-02-25T10:49:49.000Z</time>
      </trkpt>
      <trkpt lat="45.50377" lon="6.60968">
        <ele>1829.8000488281</ele>
        <time>2012-02-25T10:49:53.000Z</time>
      </trkpt>
      <trkpt lat="45.50374" lon="6.60967">
        <ele>1829.4000244141</ele>
        <time>2012-02-25T10:49:58.000Z</time>
      </trkpt>
      <trkpt lat="45.50372" lon="6.60968">
        <ele>1829.5999755859</ele>
        <time>2012-02-25T10:50:01.000Z</time>
      </trkpt>
      <trkpt lat="45.50371" lon="6.60968">
        <ele>1829.4000244141</ele>
        <time>2012-02-25T10:50:11.000Z</time>
      </trkpt>
      <trkpt lat="45.50373" lon="6.6096">
        <ele>1827.8000488281</ele>
        <time>2012-02-25T10:50:13.000Z</time>
      </trkpt>
      <trkpt lat="45.50375" lon="6.60955">
        <ele>1826.4000244141</ele>
        <time>2012-02-25T10:50:15.000Z</time>
      </trkpt>
      <trkpt lat="45.50368" lon="6.60952">
        <ele>1825.4000244141</ele>
        <time>2012-02-25T10:50:18.000Z</time>
      </trkpt>
      <trkpt lat="45.5037" lon="6.6094">
        <ele>1822.4000244141</ele>
        <time>2012-02-25T10:50:22.000Z</time>
      </trkpt>
      <trkpt lat="45.50373" lon="6.60938">
        <ele>1821.8000488281</ele>
        <time>2012-02-25T10:50:23.000Z</time>
      </trkpt>
      <trkpt lat="45.50378" lon="6.60934">
        <ele>1820.8000488281</ele>
        <time>2012-02-25T10:50:26.000Z</time>
      </trkpt>
      <trkpt lat="45.50378" lon="6.60932">
        <ele>1820.5999755859</ele>
        <time>2012-02-25T10:50:33.000Z</time>
      </trkpt>
      <trkpt lat="45.50373" lon="6.60925">
        <ele>1818.5999755859</ele>
        <time>2012-02-25T10:50:36.000Z</time>
      </trkpt>
      <trkpt lat="45.50376" lon="6.6092">
        <ele>1817.1999511719</ele>
        <time>2012-02-25T10:50:38.000Z</time>
      </trkpt>
      <trkpt lat="45.5038" lon="6.60915">
        <ele>1815.8000488281</ele>
        <time>2012-02-25T10:50:41.000Z</time>
      </trkpt>
      <trkpt lat="45.50378" lon="6.60913">
        <ele>1815.1999511719</ele>
        <time>2012-02-25T10:50:42.000Z</time>
      </trkpt>
      <trkpt lat="45.50366" lon="6.60899">
        <ele>1811</ele>
        <time>2012-02-25T10:50:47.000Z</time>
      </trkpt>
      <trkpt lat="45.50366" lon="6.60896">
        <ele>1810.1999511719</ele>
        <time>2012-02-25T10:50:48.000Z</time>
      </trkpt>
      <trkpt lat="45.50371" lon="6.60894">
        <ele>1809.4000244141</ele>
        <time>2012-02-25T10:50:50.000Z</time>
      </trkpt>
      <trkpt lat="45.50381" lon="6.60894">
        <ele>1808.5999755859</ele>
        <time>2012-02-25T10:50:54.000Z</time>
      </trkpt>
      <trkpt lat="45.5038" lon="6.60891">
        <ele>1807.5999755859</ele>
        <time>2012-02-25T10:50:57.000Z</time>
      </trkpt>
      <trkpt lat="45.50375" lon="6.60884">
        <ele>1805.8000488281</ele>
        <time>2012-02-25T10:51:00.000Z</time>
      </trkpt>
      <trkpt lat="45.50374" lon="6.60881">
        <ele>1805</ele>
        <time>2012-02-25T10:51:01.000Z</time>
      </trkpt>
      <trkpt lat="45.50379" lon="6.60875">
        <ele>1802.5999755859</ele>
        <time>2012-02-25T10:51:04.000Z</time>
      </trkpt>
      <trkpt lat="45.50376" lon="6.60864">
        <ele>1799.1999511719</ele>
        <time>2012-02-25T10:51:07.000Z</time>
      </trkpt>
      <trkpt lat="45.50374" lon="6.60862">
        <ele>1798.4000244141</ele>
        <time>2012-02-25T10:51:08.000Z</time>
      </trkpt>
      <trkpt lat="45.50372" lon="6.60855">
        <ele>1796.5999755859</ele>
        <time>2012-02-25T10:51:19.000Z</time>
      </trkpt>
      <trkpt lat="45.50379" lon="6.60849">
        <ele>1793.8000488281</ele>
        <time>2012-02-25T10:51:23.000Z</time>
      </trkpt>
      <trkpt lat="45.50381" lon="6.60848">
        <ele>1793</ele>
        <time>2012-02-25T10:51:24.000Z</time>
      </trkpt>
      <trkpt lat="45.50385" lon="6.60842">
        <ele>1790.4000244141</ele>
        <time>2012-02-25T10:51:26.000Z</time>
      </trkpt>
      <trkpt lat="45.50398" lon="6.60826">
        <ele>1783.4000244141</ele>
        <time>2012-02-25T10:51:33.000Z</time>
      </trkpt>
      <trkpt lat="45.5041" lon="6.60817">
        <ele>1778</ele>
        <time>2012-02-25T10:51:36.000Z</time>
      </trkpt>
      <trkpt lat="45.5042" lon="6.60806">
        <ele>1773</ele>
        <time>2012-02-25T10:51:40.000Z</time>
      </trkpt>
      <trkpt lat="45.50435" lon="6.60795">
        <ele>1769</ele>
        <time>2012-02-25T10:51:44.000Z</time>
      </trkpt>
      <trkpt lat="45.50441" lon="6.60796">
        <ele>1769.1999511719</ele>
        <time>2012-02-25T10:51:47.000Z</time>
      </trkpt>
      <trkpt lat="45.50448" lon="6.60793">
        <ele>1767.8000488281</ele>
        <time>2012-02-25T10:52:07.000Z</time>
      </trkpt>
      <trkpt lat="45.50463" lon="6.6078">
        <ele>1761.8000488281</ele>
        <time>2012-02-25T10:52:10.000Z</time>
      </trkpt>
      <trkpt lat="45.50483" lon="6.60769">
        <ele>1755.8000488281</ele>
        <time>2012-02-25T10:52:13.000Z</time>
      </trkpt>
      <trkpt lat="45.50496" lon="6.60763">
        <ele>1752</ele>
        <time>2012-02-25T10:52:15.000Z</time>
      </trkpt>
      <trkpt lat="45.50524" lon="6.60758">
        <ele>1751.8000488281</ele>
        <time>2012-02-25T10:52:20.000Z</time>
      </trkpt>
      <trkpt lat="45.50544" lon="6.60754">
        <ele>1751.5999755859</ele>
        <time>2012-02-25T10:52:23.000Z</time>
      </trkpt>
      <trkpt lat="45.5055" lon="6.60752">
        <ele>1751.4000244141</ele>
        <time>2012-02-25T10:52:24.000Z</time>
      </trkpt>
      <trkpt lat="45.50567" lon="6.60744">
        <ele>1749.5999755859</ele>
        <time>2012-02-25T10:52:27.000Z</time>
      </trkpt>
      <trkpt lat="45.50574" lon="6.6074">
        <ele>1749</ele>
        <time>2012-02-25T10:52:30.000Z</time>
      </trkpt>
      <trkpt lat="45.50568" lon="6.60741">
        <ele>1748.8000488281</ele>
        <time>2012-02-25T10:52:53.000Z</time>
      </trkpt>
      <trkpt lat="45.5055" lon="6.60736">
        <ele>1745</ele>
        <time>2012-02-25T10:52:57.000Z</time>
      </trkpt>
      <trkpt lat="45.50537" lon="6.60729">
        <ele>1740.8000488281</ele>
        <time>2012-02-25T10:53:01.000Z</time>
      </trkpt>
      <trkpt lat="45.50521" lon="6.60713">
        <ele>1733.1999511719</ele>
        <time>2012-02-25T10:53:06.000Z</time>
      </trkpt>
      <trkpt lat="45.50511" lon="6.60702">
        <ele>1728</ele>
        <time>2012-02-25T10:53:10.000Z</time>
      </trkpt>
      <trkpt lat="45.5051" lon="6.60699">
        <ele>1727</ele>
        <time>2012-02-25T10:53:11.000Z</time>
      </trkpt>
      <trkpt lat="45.50516" lon="6.60686">
        <ele>1722.5999755859</ele>
        <time>2012-02-25T10:53:14.000Z</time>
      </trkpt>
      <trkpt lat="45.50535" lon="6.6068">
        <ele>1722</ele>
        <time>2012-02-25T10:53:17.000Z</time>
      </trkpt>
      <trkpt lat="45.50541" lon="6.60679">
        <ele>1722.1999511719</ele>
        <time>2012-02-25T10:53:18.000Z</time>
      </trkpt>
      <trkpt lat="45.50546" lon="6.60678">
        <ele>1722.4000244141</ele>
        <time>2012-02-25T10:53:19.000Z</time>
      </trkpt>
      <trkpt lat="45.50554" lon="6.60677">
        <ele>1722.5999755859</ele>
        <time>2012-02-25T10:53:22.000Z</time>
      </trkpt>
      <trkpt lat="45.50559" lon="6.60669">
        <ele>1720</ele>
        <time>2012-02-25T10:53:26.000Z</time>
      </trkpt>
      <trkpt lat="45.50568" lon="6.60647">
        <ele>1712.5999755859</ele>
        <time>2012-02-25T10:53:30.000Z</time>
      </trkpt>
      <trkpt lat="45.50572" lon="6.60647">
        <ele>1712.5999755859</ele>
        <time>2012-02-25T10:53:31.000Z</time>
      </trkpt>
      <trkpt lat="45.50575" lon="6.60645">
        <ele>1712.1999511719</ele>
        <time>2012-02-25T10:53:33.000Z</time>
      </trkpt>
      <trkpt lat="45.50574" lon="6.60641">
        <ele>1710.4000244141</ele>
        <time>2012-02-25T10:53:35.000Z</time>
      </trkpt>
      <trkpt lat="45.5057" lon="6.60639">
        <ele>1709.5999755859</ele>
        <time>2012-02-25T10:53:43.000Z</time>
      </trkpt>
      <trkpt lat="45.50556" lon="6.60638">
        <ele>1708.8000488281</ele>
        <time>2012-02-25T10:53:47.000Z</time>
      </trkpt>
      <trkpt lat="45.50541" lon="6.60638">
        <ele>1708</ele>
        <time>2012-02-25T10:53:52.000Z</time>
      </trkpt>
      <trkpt lat="45.50543" lon="6.6063">
        <ele>1705.8000488281</ele>
        <time>2012-02-25T10:53:56.000Z</time>
      </trkpt>
      <trkpt lat="45.50547" lon="6.60628">
        <ele>1705.1999511719</ele>
        <time>2012-02-25T10:53:57.000Z</time>
      </trkpt>
      <trkpt lat="45.50554" lon="6.60626">
        <ele>1704.5999755859</ele>
        <time>2012-02-25T10:53:59.000Z</time>
      </trkpt>
      <trkpt lat="45.50564" lon="6.60618">
        <ele>1701.8000488281</ele>
        <time>2012-02-25T10:54:03.000Z</time>
      </trkpt>
      <trkpt lat="45.50564" lon="6.60617">
        <ele>1701.4000244141</ele>
        <time>2012-02-25T10:54:06.000Z</time>
      </trkpt>
      <trkpt lat="45.50564" lon="6.60616">
        <ele>1701.1999511719</ele>
        <time>2012-02-25T10:54:12.000Z</time>
      </trkpt>
      <trkpt lat="45.50563" lon="6.60615">
        <ele>1700.8000488281</ele>
        <time>2012-02-25T10:54:18.000Z</time>
      </trkpt>
      <trkpt lat="45.50557" lon="6.60615">
        <ele>1700.5999755859</ele>
        <time>2012-02-25T10:54:23.000Z</time>
      </trkpt>
      <trkpt lat="45.50549" lon="6.60615">
        <ele>1700.8000488281</ele>
        <time>2012-02-25T10:54:28.000Z</time>
      </trkpt>
      <trkpt lat="45.50548" lon="6.60614">
        <ele>1700.4000244141</ele>
        <time>2012-02-25T10:54:31.000Z</time>
      </trkpt>
      <trkpt lat="45.50552" lon="6.60605">
        <ele>1697.4000244141</ele>
        <time>2012-02-25T10:54:35.000Z</time>
      </trkpt>
      <trkpt lat="45.50552" lon="6.60601">
        <ele>1696</ele>
        <time>2012-02-25T10:54:38.000Z</time>
      </trkpt>
      <trkpt lat="45.50546" lon="6.60597">
        <ele>1694.5999755859</ele>
        <time>2012-02-25T10:54:42.000Z</time>
      </trkpt>
      <trkpt lat="45.50538" lon="6.6059">
        <ele>1693</ele>
        <time>2012-02-25T10:54:47.000Z</time>
      </trkpt>
      <trkpt lat="45.50529" lon="6.60584">
        <ele>1691.1999511719</ele>
        <time>2012-02-25T10:54:50.000Z</time>
      </trkpt>
      <trkpt lat="45.50517" lon="6.60578">
        <ele>1690</ele>
        <time>2012-02-25T10:54:55.000Z</time>
      </trkpt>
      <trkpt lat="45.50511" lon="6.60572">
        <ele>1687.8000488281</ele>
        <time>2012-02-25T10:54:59.000Z</time>
      </trkpt>
      <trkpt lat="45.50515" lon="6.60563">
        <ele>1684</ele>
        <time>2012-02-25T10:55:02.000Z</time>
      </trkpt>
      <trkpt lat="45.50517" lon="6.60561">
        <ele>1683</ele>
        <time>2012-02-25T10:55:03.000Z</time>
      </trkpt>
      <trkpt lat="45.50523" lon="6.60556">
        <ele>1680.1999511719</ele>
        <time>2012-02-25T10:55:05.000Z</time>
      </trkpt>
      <trkpt lat="45.50523" lon="6.60552">
        <ele>1678.4000244141</ele>
        <time>2012-02-25T10:55:08.000Z</time>
      </trkpt>
      <trkpt lat="45.5052" lon="6.60551">
        <ele>1678.1999511719</ele>
        <time>2012-02-25T10:55:17.000Z</time>
      </trkpt>
      <trkpt lat="45.50512" lon="6.60549">
        <ele>1678.4000244141</ele>
        <time>2012-02-25T10:55:21.000Z</time>
      </trkpt>
      <trkpt lat="45.50509" lon="6.60548">
        <ele>1678.1999511719</ele>
        <time>2012-02-25T10:55:22.000Z</time>
      </trkpt>
      <trkpt lat="45.50503" lon="6.60543">
        <ele>1677</ele>
        <time>2012-02-25T10:55:24.000Z</time>
      </trkpt>
      <trkpt lat="45.50505" lon="6.60531">
        <ele>1672.4000244141</ele>
        <time>2012-02-25T10:55:27.000Z</time>
      </trkpt>
      <trkpt lat="45.50522" lon="6.60519">
        <ele>1664.4000244141</ele>
        <time>2012-02-25T10:55:33.000Z</time>
      </trkpt>
      <trkpt lat="45.50524" lon="6.60517">
        <ele>1663.4000244141</ele>
        <time>2012-02-25T10:55:34.000Z</time>
      </trkpt>
      <trkpt lat="45.50534" lon="6.60513">
        <ele>1659.8000488281</ele>
        <time>2012-02-25T10:55:39.000Z</time>
      </trkpt>
      <trkpt lat="45.50542" lon="6.60509">
        <ele>1656.8000488281</ele>
        <time>2012-02-25T10:55:44.000Z</time>
      </trkpt>
      <trkpt lat="45.50544" lon="6.60509">
        <ele>1656</ele>
        <time>2012-02-25T10:55:47.000Z</time>
      </trkpt>
      <trkpt lat="45.50549" lon="6.60507">
        <ele>1654.1999511719</ele>
        <time>2012-02-25T10:55:52.000Z</time>
      </trkpt>
      <trkpt lat="45.50551" lon="6.60506">
        <ele>1653.1999511719</ele>
        <time>2012-02-25T10:55:53.000Z</time>
      </trkpt>
      <trkpt lat="45.50567" lon="6.60498">
        <ele>1646.1999511719</ele>
        <time>2012-02-25T10:55:58.000Z</time>
      </trkpt>
      <trkpt lat="45.50582" lon="6.60492">
        <ele>1640.4000244141</ele>
        <time>2012-02-25T10:56:01.000Z</time>
      </trkpt>
      <trkpt lat="45.5059" lon="6.60488">
        <ele>1637.1999511719</ele>
        <time>2012-02-25T10:56:03.000Z</time>
      </trkpt>
      <trkpt lat="45.50607" lon="6.60491">
        <ele>1636.1999511719</ele>
        <time>2012-02-25T10:56:07.000Z</time>
      </trkpt>
      <trkpt lat="45.50605" lon="6.60491">
        <ele>1636.4000244141</ele>
        <time>2012-02-25T10:56:08.000Z</time>
      </trkpt>
      <trkpt lat="45.50604" lon="6.6049">
        <ele>1636</ele>
        <time>2012-02-25T10:56:17.000Z</time>
      </trkpt>
      <trkpt lat="45.50603" lon="6.60489">
        <ele>1635.8000488281</ele>
        <time>2012-02-25T10:56:23.000Z</time>
      </trkpt>
      <trkpt lat="45.506" lon="6.60491">
        <ele>1637.1999511719</ele>
        <time>2012-02-25T10:56:36.000Z</time>
      </trkpt>
      <trkpt lat="45.50588" lon="6.60481">
        <ele>1634.4000244141</ele>
        <time>2012-02-25T10:56:43.000Z</time>
      </trkpt>
      <trkpt lat="45.5058" lon="6.60477">
        <ele>1633.8000488281</ele>
        <time>2012-02-25T10:56:49.000Z</time>
      </trkpt>
      <trkpt lat="45.50579" lon="6.60476">
        <ele>1633.5999755859</ele>
        <time>2012-02-25T10:56:50.000Z</time>
      </trkpt>
      <trkpt lat="45.50578" lon="6.60475">
        <ele>1633.1999511719</ele>
        <time>2012-02-25T10:56:57.000Z</time>
      </trkpt>
      <trkpt lat="45.50579" lon="6.60478">
        <ele>1634.5999755859</ele>
        <time>2012-02-25T10:57:08.000Z</time>
      </trkpt>
      <trkpt lat="45.50569" lon="6.60472">
        <ele>1634</ele>
        <time>2012-02-25T10:57:14.000Z</time>
      </trkpt>
      <trkpt lat="45.50557" lon="6.60466">
        <ele>1633.5999755859</ele>
        <time>2012-02-25T10:57:18.000Z</time>
      </trkpt>
      <trkpt lat="45.50547" lon="6.60453">
        <ele>1630</ele>
        <time>2012-02-25T10:57:22.000Z</time>
      </trkpt>
      <trkpt lat="45.50547" lon="6.60453">
        <ele>1629.8000488281</ele>
        <time>2012-02-25T10:57:23.000Z</time>
      </trkpt>
      <trkpt lat="45.50553" lon="6.60463">
        <ele>1633</ele>
        <time>2012-02-25T10:57:49.000Z</time>
      </trkpt>
      <trkpt lat="45.50563" lon="6.60464">
        <ele>1631.4000244141</ele>
        <time>2012-02-25T10:57:55.000Z</time>
      </trkpt>
      <trkpt lat="45.50576" lon="6.60464">
        <ele>1628.4000244141</ele>
        <time>2012-02-25T10:58:01.000Z</time>
      </trkpt>
      <trkpt lat="45.5058" lon="6.60463">
        <ele>1627</ele>
        <time>2012-02-25T10:58:03.000Z</time>
      </trkpt>
      <trkpt lat="45.50591" lon="6.60458">
        <ele>1622.8000488281</ele>
        <time>2012-02-25T10:58:08.000Z</time>
      </trkpt>
      <trkpt lat="45.506" lon="6.60455">
        <ele>1619.4000244141</ele>
        <time>2012-02-25T10:58:13.000Z</time>
      </trkpt>
      <trkpt lat="45.50615" lon="6.6045">
        <ele>1614.8000488281</ele>
        <time>2012-02-25T10:58:17.000Z</time>
      </trkpt>
      <trkpt lat="45.50617" lon="6.60448">
        <ele>1613</ele>
        <time>2012-02-25T10:58:18.000Z</time>
      </trkpt>
      <trkpt lat="45.50626" lon="6.60446">
        <ele>1610.5999755859</ele>
        <time>2012-02-25T10:58:21.000Z</time>
      </trkpt>
      <trkpt lat="45.5064" lon="6.60443">
        <ele>1606.8000488281</ele>
        <time>2012-02-25T10:58:26.000Z</time>
      </trkpt>
      <trkpt lat="45.50651" lon="6.6044">
        <ele>1603.1999511719</ele>
        <time>2012-02-25T10:58:29.000Z</time>
      </trkpt>
      <trkpt lat="45.5065" lon="6.60433">
        <ele>1599.4000244141</ele>
        <time>2012-02-25T10:58:32.000Z</time>
      </trkpt>
      <trkpt lat="45.5065" lon="6.60433">
        <ele>1599.4000244141</ele>
        <time>2012-02-25T10:58:33.000Z</time>
      </trkpt>
      <trkpt lat="45.50647" lon="6.60433">
        <ele>1600.5999755859</ele>
        <time>2012-02-25T10:58:42.000Z</time>
      </trkpt>
      <trkpt lat="45.50643" lon="6.60431">
        <ele>1599.5999755859</ele>
        <time>2012-02-25T10:58:44.000Z</time>
      </trkpt>
      <trkpt lat="45.50632" lon="6.60418">
        <ele>1595.4000244141</ele>
        <time>2012-02-25T10:58:48.000Z</time>
      </trkpt>
      <trkpt lat="45.50624" lon="6.6041">
        <ele>1593</ele>
        <time>2012-02-25T10:58:53.000Z</time>
      </trkpt>
      <trkpt lat="45.50618" lon="6.60401">
        <ele>1590.4000244141</ele>
        <time>2012-02-25T10:58:57.000Z</time>
      </trkpt>
      <trkpt lat="45.50608" lon="6.60392">
        <ele>1588.1999511719</ele>
        <time>2012-02-25T10:59:02.000Z</time>
      </trkpt>
      <trkpt lat="45.50604" lon="6.60388">
        <ele>1586.8000488281</ele>
        <time>2012-02-25T10:59:04.000Z</time>
      </trkpt>
      <trkpt lat="45.50594" lon="6.60375">
        <ele>1582.8000488281</ele>
        <time>2012-02-25T10:59:08.000Z</time>
      </trkpt>
      <trkpt lat="45.5058" lon="6.60368">
        <ele>1582.4000244141</ele>
        <time>2012-02-25T10:59:13.000Z</time>
      </trkpt>
      <trkpt lat="45.50579" lon="6.60355">
        <ele>1576.8000488281</ele>
        <time>2012-02-25T10:59:16.000Z</time>
      </trkpt>
      <trkpt lat="45.50581" lon="6.60355">
        <ele>1576.1999511719</ele>
        <time>2012-02-25T10:59:17.000Z</time>
      </trkpt>
      <trkpt lat="45.50584" lon="6.60351">
        <ele>1574</ele>
        <time>2012-02-25T10:59:30.000Z</time>
      </trkpt>
      <trkpt lat="45.50594" lon="6.60345">
        <ele>1569.4000244141</ele>
        <time>2012-02-25T10:59:35.000Z</time>
      </trkpt>
      <trkpt lat="45.50592" lon="6.60342">
        <ele>1568.4000244141</ele>
        <time>2012-02-25T10:59:37.000Z</time>
      </trkpt>
      <trkpt lat="45.50591" lon="6.6034">
        <ele>1567.8000488281</ele>
        <time>2012-02-25T10:59:38.000Z</time>
      </trkpt>
      <trkpt lat="45.50582" lon="6.60331">
        <ele>1565.1999511719</ele>
        <time>2012-02-25T10:59:43.000Z</time>
      </trkpt>
      <trkpt lat="45.50581" lon="6.60326">
        <ele>1563</ele>
        <time>2012-02-25T10:59:44.000Z</time>
      </trkpt>
      <trkpt lat="45.5058" lon="6.60318">
        <ele>1559.4000244141</ele>
        <time>2012-02-25T10:59:46.000Z</time>
      </trkpt>
      <trkpt lat="45.50566" lon="6.60312">
        <ele>1559.8000488281</ele>
        <time>2012-02-25T10:59:50.000Z</time>
      </trkpt>
      <trkpt lat="45.50555" lon="6.60301">
        <ele>1557.4000244141</ele>
        <time>2012-02-25T10:59:54.000Z</time>
      </trkpt>
      <trkpt lat="45.50556" lon="6.60292">
        <ele>1553</ele>
        <time>2012-02-25T10:59:56.000Z</time>
      </trkpt>
      <trkpt lat="45.5055" lon="6.60277">
        <ele>1547.5999755859</ele>
        <time>2012-02-25T10:59:59.000Z</time>
      </trkpt>
      <trkpt lat="45.50541" lon="6.60264">
        <ele>1544</ele>
        <time>2012-02-25T11:00:03.000Z</time>
      </trkpt>
      <trkpt lat="45.50533" lon="6.6024">
        <ele>1536.4000244141</ele>
        <time>2012-02-25T11:00:07.000Z</time>
      </trkpt>
      <trkpt lat="45.50538" lon="6.60235">
        <ele>1533.4000244141</ele>
        <time>2012-02-25T11:00:10.000Z</time>
      </trkpt>
      <trkpt lat="45.50542" lon="6.60234">
        <ele>1531.8000488281</ele>
        <time>2012-02-25T11:00:15.000Z</time>
      </trkpt>
      <trkpt lat="45.50545" lon="6.60228">
        <ele>1529.5999755859</ele>
        <time>2012-02-25T11:00:17.000Z</time>
      </trkpt>
      <trkpt lat="45.50542" lon="6.60225">
        <ele>1529.1999511719</ele>
        <time>2012-02-25T11:00:21.000Z</time>
      </trkpt>
      <trkpt lat="45.50542" lon="6.60228">
        <ele>1530.1999511719</ele>
        <time>2012-02-25T11:00:32.000Z</time>
      </trkpt>
      <trkpt lat="45.50541" lon="6.6023">
        <ele>1531</ele>
        <time>2012-02-25T11:00:47.000Z</time>
      </trkpt>
      <trkpt lat="45.50545" lon="6.60222">
        <ele>1527.4000244141</ele>
        <time>2012-02-25T11:00:50.000Z</time>
      </trkpt>
      <trkpt lat="45.5055" lon="6.60222">
        <ele>1526.4000244141</ele>
        <time>2012-02-25T11:00:53.000Z</time>
      </trkpt>
      <trkpt lat="45.50551" lon="6.60222">
        <ele>1526</ele>
        <time>2012-02-25T11:00:55.000Z</time>
      </trkpt>
      <trkpt lat="45.50547" lon="6.60213">
        <ele>1524.1999511719</ele>
        <time>2012-02-25T11:00:59.000Z</time>
      </trkpt>
      <trkpt lat="45.50543" lon="6.60202">
        <ele>1521.1999511719</ele>
        <time>2012-02-25T11:01:03.000Z</time>
      </trkpt>
      <trkpt lat="45.50548" lon="6.60199">
        <ele>1519</ele>
        <time>2012-02-25T11:01:05.000Z</time>
      </trkpt>
      <trkpt lat="45.50548" lon="6.60199">
        <ele>1519</ele>
        <time>2012-02-25T11:01:06.000Z</time>
      </trkpt>
      <trkpt lat="45.5055" lon="6.60199">
        <ele>1518.4000244141</ele>
        <time>2012-02-25T11:01:16.000Z</time>
      </trkpt>
      <trkpt lat="45.50552" lon="6.60195">
        <ele>1516.8000488281</ele>
        <time>2012-02-25T11:01:21.000Z</time>
      </trkpt>
      <trkpt lat="45.50545" lon="6.6019">
        <ele>1516.8000488281</ele>
        <time>2012-02-25T11:01:26.000Z</time>
      </trkpt>
      <trkpt lat="45.50543" lon="6.6019">
        <ele>1517</ele>
        <time>2012-02-25T11:01:27.000Z</time>
      </trkpt>
      <trkpt lat="45.50543" lon="6.6018">
        <ele>1513.8000488281</ele>
        <time>2012-02-25T11:01:36.000Z</time>
      </trkpt>
      <trkpt lat="45.50543" lon="6.60165">
        <ele>1508.8000488281</ele>
        <time>2012-02-25T11:01:41.000Z</time>
      </trkpt>
      <trkpt lat="45.50542" lon="6.60152">
        <ele>1505.8000488281</ele>
        <time>2012-02-25T11:01:45.000Z</time>
      </trkpt>
      <trkpt lat="45.50552" lon="6.60147">
        <ele>1502.8000488281</ele>
        <time>2012-02-25T11:01:49.000Z</time>
      </trkpt>
      <trkpt lat="45.50553" lon="6.60148">
        <ele>1502.8000488281</ele>
        <time>2012-02-25T11:01:50.000Z</time>
      </trkpt>
      <trkpt lat="45.50554" lon="6.60148">
        <ele>1502.8000488281</ele>
        <time>2012-02-25T11:01:55.000Z</time>
      </trkpt>
      <trkpt lat="45.50552" lon="6.60134">
        <ele>1499.5999755859</ele>
        <time>2012-02-25T11:01:59.000Z</time>
      </trkpt>
      <trkpt lat="45.50544" lon="6.60118">
        <ele>1496.8000488281</ele>
        <time>2012-02-25T11:02:03.000Z</time>
      </trkpt>
      <trkpt lat="45.50548" lon="6.60112">
        <ele>1494.8000488281</ele>
        <time>2012-02-25T11:02:04.000Z</time>
      </trkpt>
      <trkpt lat="45.50555" lon="6.60099">
        <ele>1490.8000488281</ele>
        <time>2012-02-25T11:02:06.000Z</time>
      </trkpt>
      <trkpt lat="45.50558" lon="6.60078">
        <ele>1485.8000488281</ele>
        <time>2012-02-25T11:02:08.000Z</time>
      </trkpt>
      <trkpt lat="45.50569" lon="6.60066">
        <ele>1482.8000488281</ele>
        <time>2012-02-25T11:02:10.000Z</time>
      </trkpt>
      <trkpt lat="45.50574" lon="6.60053">
        <ele>1480.1999511719</ele>
        <time>2012-02-25T11:02:12.000Z</time>
      </trkpt>
      <trkpt lat="45.50574" lon="6.60045">
        <ele>1478.8000488281</ele>
        <time>2012-02-25T11:02:13.000Z</time>
      </trkpt>
      <trkpt lat="45.50578" lon="6.60037">
        <ele>1477.1999511719</ele>
        <time>2012-02-25T11:02:14.000Z</time>
      </trkpt>
      <trkpt lat="45.50586" lon="6.60033">
        <ele>1475.5999755859</ele>
        <time>2012-02-25T11:02:16.000Z</time>
      </trkpt>
      <trkpt lat="45.50589" lon="6.60013">
        <ele>1471.8000488281</ele>
        <time>2012-02-25T11:02:19.000Z</time>
      </trkpt>
      <trkpt lat="45.50592" lon="6.59998">
        <ele>1468.5999755859</ele>
        <time>2012-02-25T11:02:21.000Z</time>
      </trkpt>
      <trkpt lat="45.50601" lon="6.59988">
        <ele>1465.1999511719</ele>
        <time>2012-02-25T11:02:23.000Z</time>
      </trkpt>
      <trkpt lat="45.50603" lon="6.59972">
        <ele>1462.5999755859</ele>
        <time>2012-02-25T11:02:25.000Z</time>
      </trkpt>
      <trkpt lat="45.50612" lon="6.59966">
        <ele>1459.1999511719</ele>
        <time>2012-02-25T11:02:27.000Z</time>
      </trkpt>
      <trkpt lat="45.50618" lon="6.59956">
        <ele>1456.1999511719</ele>
        <time>2012-02-25T11:02:29.000Z</time>
      </trkpt>
      <trkpt lat="45.50618" lon="6.59948">
        <ele>1455</ele>
        <time>2012-02-25T11:02:30.000Z</time>
      </trkpt>
      <trkpt lat="45.50621" lon="6.59943">
        <ele>1453.4000244141</ele>
        <time>2012-02-25T11:02:31.000Z</time>
      </trkpt>
      <trkpt lat="45.50628" lon="6.59923">
        <ele>1448.4000244141</ele>
        <time>2012-02-25T11:02:34.000Z</time>
      </trkpt>
      <trkpt lat="45.50625" lon="6.59908">
        <ele>1446.5999755859</ele>
        <time>2012-02-25T11:02:37.000Z</time>
      </trkpt>
      <trkpt lat="45.50632" lon="6.59905">
        <ele>1443.8000488281</ele>
        <time>2012-02-25T11:02:39.000Z</time>
      </trkpt>
      <trkpt lat="45.50636" lon="6.59898">
        <ele>1441</ele>
        <time>2012-02-25T11:02:41.000Z</time>
      </trkpt>
      <trkpt lat="45.50641" lon="6.59887">
        <ele>1437.1999511719</ele>
        <time>2012-02-25T11:02:44.000Z</time>
      </trkpt>
      <trkpt lat="45.50646" lon="6.59879">
        <ele>1434</ele>
        <time>2012-02-25T11:02:47.000Z</time>
      </trkpt>
      <trkpt lat="45.50655" lon="6.59873">
        <ele>1429.8000488281</ele>
        <time>2012-02-25T11:02:50.000Z</time>
      </trkpt>
      <trkpt lat="45.50658" lon="6.59861">
        <ele>1426.1999511719</ele>
        <time>2012-02-25T11:02:52.000Z</time>
      </trkpt>
      <trkpt lat="45.50665" lon="6.59862">
        <ele>1424.1999511719</ele>
        <time>2012-02-25T11:02:54.000Z</time>
      </trkpt>
      <trkpt lat="45.5067" lon="6.59856">
        <ele>1421.1999511719</ele>
        <time>2012-02-25T11:02:56.000Z</time>
      </trkpt>
      <trkpt lat="45.50678" lon="6.59853">
        <ele>1417.1999511719</ele>
        <time>2012-02-25T11:02:59.000Z</time>
      </trkpt>
      <trkpt lat="45.50687" lon="6.59849">
        <ele>1413.1999511719</ele>
        <time>2012-02-25T11:03:02.000Z</time>
      </trkpt>
      <trkpt lat="45.50691" lon="6.59843">
        <ele>1410.4000244141</ele>
        <time>2012-02-25T11:03:04.000Z</time>
      </trkpt>
      <trkpt lat="45.50692" lon="6.59844">
        <ele>1410.1999511719</ele>
        <time>2012-02-25T11:03:12.000Z</time>
      </trkpt>
      <trkpt lat="45.50703" lon="6.59848">
        <ele>1406.8000488281</ele>
        <time>2012-02-25T11:03:16.000Z</time>
      </trkpt>
      <trkpt lat="45.50712" lon="6.5984">
        <ele>1401.5999755859</ele>
        <time>2012-02-25T11:03:19.000Z</time>
      </trkpt>
      <trkpt lat="45.5072" lon="6.59842">
        <ele>1399</ele>
        <time>2012-02-25T11:03:21.000Z</time>
      </trkpt>
      <trkpt lat="45.50733" lon="6.59821">
        <ele>1391.1999511719</ele>
        <time>2012-02-25T11:03:24.000Z</time>
      </trkpt>
      <trkpt lat="45.5074" lon="6.59789">
        <ele>1384.8000488281</ele>
        <time>2012-02-25T11:03:27.000Z</time>
      </trkpt>
      <trkpt lat="45.50743" lon="6.59769">
        <ele>1381.5999755859</ele>
        <time>2012-02-25T11:03:29.000Z</time>
      </trkpt>
      <trkpt lat="45.5075" lon="6.59762">
        <ele>1378.4000244141</ele>
        <time>2012-02-25T11:03:31.000Z</time>
      </trkpt>
      <trkpt lat="45.50754" lon="6.59745">
        <ele>1375</ele>
        <time>2012-02-25T11:03:34.000Z</time>
      </trkpt>
      <trkpt lat="45.50764" lon="6.59745">
        <ele>1372.4000244141</ele>
        <time>2012-02-25T11:03:36.000Z</time>
      </trkpt>
      <trkpt lat="45.50771" lon="6.59738">
        <ele>1369.4000244141</ele>
        <time>2012-02-25T11:03:39.000Z</time>
      </trkpt>
      <trkpt lat="45.5078" lon="6.59733">
        <ele>1366</ele>
        <time>2012-02-25T11:03:42.000Z</time>
      </trkpt>
      <trkpt lat="45.50787" lon="6.59726">
        <ele>1363</ele>
        <time>2012-02-25T11:03:44.000Z</time>
      </trkpt>
      <trkpt lat="45.50793" lon="6.59707">
        <ele>1358.4000244141</ele>
        <time>2012-02-25T11:03:47.000Z</time>
      </trkpt>
      <trkpt lat="45.50798" lon="6.59708">
        <ele>1357</ele>
        <time>2012-02-25T11:03:48.000Z</time>
      </trkpt>
      <trkpt lat="45.50808" lon="6.59707">
        <ele>1354</ele>
        <time>2012-02-25T11:03:50.000Z</time>
      </trkpt>
      <trkpt lat="45.5081" lon="6.59694">
        <ele>1351.4000244141</ele>
        <time>2012-02-25T11:03:52.000Z</time>
      </trkpt>
      <trkpt lat="45.50817" lon="6.59681">
        <ele>1347.1999511719</ele>
        <time>2012-02-25T11:03:55.000Z</time>
      </trkpt>
      <trkpt lat="45.50826" lon="6.59671">
        <ele>1342.8000488281</ele>
        <time>2012-02-25T11:03:58.000Z</time>
      </trkpt>
      <trkpt lat="45.50823" lon="6.59651">
        <ele>1341.5999755859</ele>
        <time>2012-02-25T11:04:01.000Z</time>
      </trkpt>
      <trkpt lat="45.50822" lon="6.59645">
        <ele>1341.1999511719</ele>
        <time>2012-02-25T11:04:02.000Z</time>
      </trkpt>
      <trkpt lat="45.50822" lon="6.59635">
        <ele>1340</ele>
        <time>2012-02-25T11:04:04.000Z</time>
      </trkpt>
      <trkpt lat="45.50832" lon="6.59634">
        <ele>1337</ele>
        <time>2012-02-25T11:04:06.000Z</time>
      </trkpt>
      <trkpt lat="45.50839" lon="6.59628">
        <ele>1333.8000488281</ele>
        <time>2012-02-25T11:04:08.000Z</time>
      </trkpt>
      <trkpt lat="45.50842" lon="6.5961">
        <ele>1330.8000488281</ele>
        <time>2012-02-25T11:04:11.000Z</time>
      </trkpt>
      <trkpt lat="45.50851" lon="6.59611">
        <ele>1327.8000488281</ele>
        <time>2012-02-25T11:04:13.000Z</time>
      </trkpt>
      <trkpt lat="45.50855" lon="6.596">
        <ele>1325.1999511719</ele>
        <time>2012-02-25T11:04:15.000Z</time>
      </trkpt>
      <trkpt lat="45.50853" lon="6.59594">
        <ele>1325</ele>
        <time>2012-02-25T11:04:16.000Z</time>
      </trkpt>
      <trkpt lat="45.50852" lon="6.59583">
        <ele>1324</ele>
        <time>2012-02-25T11:04:18.000Z</time>
      </trkpt>
      <trkpt lat="45.5086" lon="6.59582">
        <ele>1320.8000488281</ele>
        <time>2012-02-25T11:04:20.000Z</time>
      </trkpt>
      <trkpt lat="45.50864" lon="6.59571">
        <ele>1316.8000488281</ele>
        <time>2012-02-25T11:04:22.000Z</time>
      </trkpt>
      <trkpt lat="45.50872" lon="6.59566">
        <ele>1312.8000488281</ele>
        <time>2012-02-25T11:04:24.000Z</time>
      </trkpt>
      <trkpt lat="45.50879" lon="6.59556">
        <ele>1308.1999511719</ele>
        <time>2012-02-25T11:04:26.000Z</time>
      </trkpt>
      <trkpt lat="45.50886" lon="6.59541">
        <ele>1302.4000244141</ele>
        <time>2012-02-25T11:04:28.000Z</time>
      </trkpt>
      <trkpt lat="45.50901" lon="6.59537">
        <ele>1296.5999755859</ele>
        <time>2012-02-25T11:04:30.000Z</time>
      </trkpt>
      <trkpt lat="45.5091" lon="6.59518">
        <ele>1289.8000488281</ele>
        <time>2012-02-25T11:04:32.000Z</time>
      </trkpt>
      <trkpt lat="45.50926" lon="6.59492">
        <ele>1282.1999511719</ele>
        <time>2012-02-25T11:04:35.000Z</time>
      </trkpt>
      <trkpt lat="45.50939" lon="6.59476">
        <ele>1279</ele>
        <time>2012-02-25T11:04:37.000Z</time>
      </trkpt>
      <trkpt lat="45.50945" lon="6.59453">
        <ele>1276.1999511719</ele>
        <time>2012-02-25T11:04:39.000Z</time>
      </trkpt>
      <trkpt lat="45.50956" lon="6.59442">
        <ele>1274.4000244141</ele>
        <time>2012-02-25T11:04:41.000Z</time>
      </trkpt>
      <trkpt lat="45.50964" lon="6.59427">
        <ele>1272.5999755859</ele>
        <time>2012-02-25T11:04:43.000Z</time>
      </trkpt>
      <trkpt lat="45.50974" lon="6.59403">
        <ele>1270.4000244141</ele>
        <time>2012-02-25T11:04:46.000Z</time>
      </trkpt>
      <trkpt lat="45.50968" lon="6.5939">
        <ele>1269.5999755859</ele>
        <time>2012-02-25T11:04:48.000Z</time>
      </trkpt>
      <trkpt lat="45.50968" lon="6.59372">
        <ele>1268.4000244141</ele>
        <time>2012-02-25T11:04:51.000Z</time>
      </trkpt>
      <trkpt lat="45.50978" lon="6.59368">
        <ele>1268.1999511719</ele>
        <time>2012-02-25T11:04:54.000Z</time>
      </trkpt>
      <trkpt lat="45.50981" lon="6.59367">
        <ele>1268.1999511719</ele>
        <time>2012-02-25T11:04:55.000Z</time>
      </trkpt>
      <trkpt lat="45.50982" lon="6.59367">
        <ele>1268.1999511719</ele>
        <time>2012-02-25T11:04:56.000Z</time>
      </trkpt>
      <trkpt lat="45.50984" lon="6.59367">
        <ele>1268.1999511719</ele>
        <time>2012-02-25T11:05:00.000Z</time>
      </trkpt>
      <trkpt lat="45.50985" lon="6.59367">
        <ele>1268.1999511719</ele>
        <time>2012-02-25T11:05:08.000Z</time>
      </trkpt>
      <trkpt lat="45.50984" lon="6.59367">
        <ele>1268.1999511719</ele>
        <time>2012-02-25T11:05:26.000Z</time>
      </trkpt>
    </trkseg>
  </trk>
</gpx>